[[{"header":{"parameterUnit":"m.s-1","parameterCategory":1,"la1":30.6,"la2":28.766,"lo1":-90.7593,"lo2":-88.6598,"dy":0.0162,"dx":0.0183,"nx":116,"ny":114,"refTime":"2023-10-25T12:00:00:Z","depth":0,"parameterNumber":2,"parameterNumberName":"U-component_of_WINDS"},"data":[0.0,0.0,0.0,0.0,0.0,0.0,0.0,0.0,0.0,0.0,0.0,0.0,0.0,0.0,0.0,0.0,0.0,0.0,0.0,0.0,0.0,0.0,0.0,0.0,0.0,0.0,0.0,0.0,0.0,0.0,0.0,0.0,0.0,0.0,0.0,0.0,0.0,0.0,0.0,0.0,0.0,0.0,0.0,0.0,0.0,0.0,0.0,0.0,0.0,0.0,0.0,0.0,0.0,0.0,0.0,0.0,0.0,0.0,0.0,0.0,0.0,0.0,0.0,0.0,0.0,0.0,0.0,0.0,0.0,0.0,0.0,0.0,0.0,0.0,0.0,0.0,0.0,0.0,0.0,0.0,0.0,0.0,0.0,0.0,0.0,0.0,0.0,0.0,0.0,0.0,0.0,0.0,0.0,0.0,0.0,0.0,0.0,0.0,0.0,0.0,0.0,0.0,0.0,0.0,0.0,0.0,0.0,0.0,0.0,0.0,0.0,0.0,0.0,0.0,0.0,0.0,0.0,0.0,0.0,0.0,0.0,0.0,0.0,0.0,0.0,0.0,0.0,0.0,0.0,0.0,0.0,0.0,0.0,0.0,0.0,0.0,0.0,0.0,0.0,0.0,0.0,0.0,0.0,0.0,0.0,0.0,0.0,0.0,0.0,0.0,0.0,0.0,0.0,0.0,0.0,0.0,0.0,0.0,0.0,0.0,0.0,0.0,0.0,0.0,0.0,0.0,0.0,0.0,0.0,0.0,0.0,0.0,0.0,0.0,0.0,0.0,0.0,0.0,0.0,0.0,0.0,0.0,0.0,0.0,0.0,0.0,0.0,0.0,0.0,0.0,0.0,0.0,0.0,0.0,0.0,0.0,0.0,0.0,0.0,0.0,0.0,0.0,0.0,0.0,0.0,0.0,0.0,0.0,0.0,0.0,0.0,0.0,0.0,0.0,0.0,0.0,0.0,0.0,0.0,0.0,0.0,0.0,0.0,0.0,0.0,0.0,0.0,0.0,0.0,0.0,0.0,0.0,0.0,0.0,0.0,0.0,0.0,0.0,0.0,0.0,0.0,0.0,0.0,0.0,0.0,0.0,0.0,0.0,0.0,0.0,0.0,0.0,0.0,0.0,0.0,0.0,0.0,0.0,0.0,0.0,0.0,0.0,0.0,0.0,0.0,0.0,0.0,0.0,0.0,0.0,0.0,0.0,0.0,0.0,0.0,0.0,0.0,0.0,0.0,0.0,0.0,0.0,0.0,0.0,0.0,0.0,0.0,0.0,0.0,0.0,0.0,0.0,0.0,0.0,0.0,0.0,0.0,0.0,0.0,0.0,0.0,0.0,0.0,0.0,0.0,0.0,0.0,0.0,0.0,0.0,0.0,0.0,0.0,0.0,0.0,0.0,0.0,0.0,0.0,0.0,0.0,0.0,0.0,0.0,0.0,0.0,0.0,0.0,0.0,0.0,0.0,0.0,0.0,0.0,0.0,0.0,0.0,0.0,0.0,0.0,0.0,0.0,0.0,0.0,0.0,0.0,0.0,0.0,0.0,0.0,0.0,0.0,0.0,0.0,0.0,0.0,0.0,0.0,0.0,0.0,0.0,0.0,0.0,0.0,0.0,0.0,0.0,0.0,0.0,0.0,0.0,0.0,0.0,0.0,0.0,0.0,0.0,0.0,0.0,0.0,0.0,0.0,0.0,0.0,0.0,0.0,0.0,0.0,0.0,0.0,0.0,0.0,0.0,0.0,0.0,0.0,0.0,0.0,0.0,0.0,0.0,0.0,0.0,0.0,0.0,0.0,0.0,0.0,0.0,0.0,0.0,0.0,0.0,0.0,0.0,0.0,0.0,0.0,0.0,0.0,0.0,0.0,0.0,0.0,0.0,0.0,0.0,0.0,0.0,0.0,0.0,0.0,0.0,0.0,0.0,0.0,0.0,0.0,0.0,0.0,0.0,0.0,0.0,0.0,0.0,0.0,0.0,0.0,0.0,0.0,0.0,0.0,0.0,0.0,0.0,0.0,0.0,0.0,0.0,0.0,0.0,0.0,0.0,0.0,0.0,0.0,0.0,0.0,0.0,0.0,0.0,0.0,0.0,0.0,0.0,0.0,0.0,0.0,0.0,0.0,0.0,0.0,0.0,0.0,0.0,0.0,0.0,0.0,0.0,0.0,0.0,0.0,0.0,0.0,0.0,0.0,0.0,0.0,0.0,0.0,0.0,0.0,0.0,0.0,0.0,0.0,0.0,0.0,0.0,0.0,0.0,0.0,0.0,0.0,0.0,0.0,0.0,0.0,0.0,0.0,0.0,0.0,0.0,0.0,0.0,0.0,0.0,0.0,0.0,0.0,0.0,0.0,0.0,0.0,0.0,0.0,0.0,0.0,0.0,0.0,0.0,0.0,0.0,0.0,0.0,0.0,0.0,0.0,0.0,0.0,0.0,0.0,0.0,0.0,0.0,0.0,0.0,0.0,0.0,0.0,0.0,0.0,0.0,0.0,0.0,0.0,0.0,0.0,0.0,0.0,0.0,0.0,0.0,0.0,0.0,0.0,0.0,0.0,0.0,0.0,0.0,0.0,0.0,0.0,0.0,0.0,0.0,0.0,0.0,0.0,0.0,0.0,0.0,0.0,0.0,0.0,0.0,0.0,0.0,0.0,0.0,0.0,0.0,0.0,0.0,0.0,0.0,0.0,0.0,0.0,0.0,0.0,0.0,0.0,0.0,0.0,0.0,0.0,0.0,0.0,0.0,0.0,0.0,0.0,0.0,0.0,0.0,0.0,0.0,0.0,0.0,0.0,0.0,0.0,0.0,0.0,0.0,0.0,0.0,0.0,0.0,0.0,0.0,0.0,0.0,0.0,0.0,0.0,0.0,0.0,0.0,0.0,0.0,0.0,0.0,0.0,0.0,0.0,0.0,0.0,0.0,0.0,0.0,0.0,0.0,0.0,0.0,0.0,0.0,0.0,0.0,0.0,0.0,0.0,0.0,0.0,0.0,0.0,0.0,0.0,0.0,0.0,0.0,0.0,0.0,0.0,0.0,0.0,0.0,0.0,0.0,0.0,0.0,0.0,0.0,0.0,0.0,0.0,0.0,0.0,0.0,0.0,0.0,0.0,0.0,0.0,0.0,0.0,0.0,0.0,0.0,0.0,0.0,0.0,0.0,0.0,0.0,0.0,0.0,0.0,0.0,0.0,0.0,0.0,0.0,0.0,0.0,0.0,0.0,0.0,0.0,0.0,0.0,0.0,0.0,0.0,0.0,0.0,0.0,0.0,0.0,0.0,0.0,0.0,0.0,0.0,0.0,0.0,0.0,0.0,0.0,0.0,0.0,0.0,0.0,0.0,0.0,0.0,0.0,0.0,0.0,0.0,0.0,0.0,0.0,0.0,0.0,0.0,0.0,0.0,0.0,0.0,0.0,0.0,0.0,0.0,0.0,0.0,0.0,0.0,0.0,0.0,0.0,0.0,0.0,0.0,0.0,0.0,0.0,0.0,0.0,0.0,0.0,0.0,0.0,0.0,0.0,0.0,0.0,0.0,0.0,0.0,0.0,0.0,0.0,0.0,0.0,0.0,0.0,0.0,0.0,0.0,0.0,0.0,0.0,0.0,0.0,0.0,0.0,0.0,0.0,0.0,0.0,0.0,0.0,0.0,0.0,0.0,0.0,0.0,0.0,0.0,0.0,0.0,0.0,0.0,0.0,0.0,0.0,0.0,0.0,0.0,0.0,0.0,0.0,0.0,0.0,0.0,0.0,0.0,0.0,0.0,0.0,0.0,0.0,0.0,0.0,0.0,0.0,0.0,0.0,0.0,0.0,0.0,0.0,0.0,0.0,0.0,0.0,0.0,0.0,0.0,0.0,0.0,0.0,0.0,0.0,0.0,0.0,0.0,0.0,0.0,0.0,0.0,0.0,0.0,0.0,0.0,0.0,0.0,0.0,0.0,0.0,0.0,0.0,0.0,0.0,0.0,0.0,0.0,0.0,0.0,0.0,0.0,0.0,0.0,0.0,0.0,0.0,0.0,0.0,0.0,0.0,0.0,0.0,0.0,0.0,0.0,0.0,0.0,0.0,0.0,0.0,0.0,0.0,0.0,0.0,0.0,0.0,0.0,0.0,0.0,0.0,0.0,0.0,0.0,0.0,0.0,0.0,0.0,0.0,0.0,0.0,0.0,0.0,0.0,0.0,0.0,0.0,0.0,0.0,0.0,0.0,0.0,0.0,0.0,0.0,0.0,0.0,0.0,0.0,0.0,0.0,0.0,0.0,0.0,0.0,0.0,0.0,0.0,0.0,0.0,0.0,0.0,0.0,0.0,0.0,0.0,0.0,0.0,0.0,0.0,0.0,0.0,0.0,0.0,0.0,0.0,0.0,0.0,0.0,0.0,0.0,0.0,0.0,0.0,0.0,0.0,0.0,0.0,0.0,0.0,0.0,0.0,0.0,0.0,0.0,0.0,0.0,0.0,0.0,0.0,0.0,0.0,0.0,0.0,0.0,0.0,0.0,0.0,0.0,0.0,0.0,0.0,0.0,0.0,0.0,0.0,0.0,0.0,0.0,0.0,0.0,0.0,0.0,0.0,0.0,0.0,0.0,0.0,0.0,0.0,0.0,0.0,0.0,0.0,0.0,0.0,0.0,0.0,0.0,0.0,0.0,0.0,0.0,0.0,0.0,0.0,0.0,0.0,0.0,0.0,0.0,0.0,0.0,0.0,0.0,0.0,0.0,0.0,0.0,0.0,0.0,0.0,0.0,0.0,0.0,0.0,0.0,0.0,0.0,0.0,0.0,0.0,0.0,0.0,0.0,0.0,0.0,0.0,0.0,0.0,0.0,0.0,0.0,0.0,0.0,0.0,0.0,0.0,0.0,0.0,0.0,0.0,0.0,0.0,0.0,0.0,0.0,0.0,0.0,0.0,0.0,0.0,0.0,0.0,0.0,0.0,0.0,0.0,0.0,0.0,0.0,0.0,0.0,0.0,0.0,0.0,0.0,0.0,0.0,0.0,0.0,0.0,0.0,0.0,0.0,0.0,0.0,0.0,0.0,0.0,0.0,0.0,0.0,0.0,0.0,0.0,0.0,0.0,0.0,0.0,0.0,0.0,0.0,0.0,0.0,0.0,0.0,0.0,0.0,0.0,0.0,0.0,0.0,0.0,0.0,0.0,0.0,0.0,0.0,0.0,0.0,0.0,0.0,0.0,0.0,0.0,0.0,0.0,0.0,0.0,0.0,0.0,0.0,0.0,0.0,0.0,0.0,0.0,0.0,0.0,0.0,0.0,0.0,0.0,0.0,0.0,0.0,0.0,0.0,0.0,0.0,0.0,0.0,0.0,0.0,0.0,0.0,0.0,0.0,0.0,0.0,0.0,0.0,0.0,0.0,0.0,0.0,0.0,0.0,0.0,0.0,0.0,0.0,0.0,0.0,0.0,0.0,0.0,0.0,0.0,0.0,0.0,0.0,0.0,0.0,0.0,0.0,0.0,0.0,0.0,0.0,0.0,0.0,0.0,0.0,0.0,0.0,0.0,0.0,0.0,0.0,0.0,0.0,0.0,0.0,0.0,0.0,0.0,0.0,0.0,0.0,0.0,0.0,0.0,0.0,0.0,0.0,0.0,0.0,0.0,0.0,0.0,0.0,0.0,0.0,0.0,0.0,0.0,0.0,0.0,0.0,0.0,0.0,0.0,0.0,0.0,0.0,0.0,0.0,0.0,0.0,0.0,0.0,0.0,0.0,0.0,0.0,0.0,0.0,0.0,0.0,0.0,0.0,0.0,0.0,0.0,0.0,0.0,0.0,0.0,0.0,0.0,0.0,0.0,0.0,0.0,0.0,0.0,0.0,0.0,0.0,0.0,0.0,0.0,0.0,0.0,0.0,0.0,0.0,0.0,0.0,0.0,0.0,0.0,0.0,0.0,0.0,0.0,0.0,0.0,0.0,0.0,0.0,0.0,0.0,0.0,0.0,0.0,0.0,0.0,0.0,0.0,0.0,0.0,0.0,0.0,0.0,0.0,0.0,0.0,0.0,0.0,0.0,0.0,0.0,0.0,0.0,0.0,0.0,0.0,0.0,0.0,0.0,0.0,0.0,0.0,0.0,0.0,-0.4153,0.0,0.0,0.0,0.0,0.0,0.0,0.0,0.0,0.0,0.0,0.0,0.0,0.0,0.0,0.0,0.0,0.0,0.0,0.0,0.0,0.0,0.0,0.0,0.0,0.0,0.0,0.0,0.0,0.0,0.0,0.0,0.0,0.0,0.0,0.0,0.0,0.0,0.0,-1.0828,-1.0915,-1.0883,-1.0765,-1.0765,-1.0207,-0.922,0.0,0.0,0.0,0.0,0.0,0.0,0.0,0.0,0.0,0.0,0.0,0.0,0.0,0.0,0.0,0.0,0.0,0.0,0.0,0.0,0.0,0.0,0.0,0.0,0.0,0.0,0.0,0.0,0.0,0.0,0.0,0.0,0.0,0.0,0.0,0.0,0.0,0.0,0.0,0.0,0.0,0.0,0.0,0.0,0.0,0.0,0.0,0.0,0.0,0.0,0.0,0.0,0.0,0.0,0.0,0.0,0.0,0.0,0.0,0.0,0.0,0.0,0.0,0.0,0.0,0.0,0.0,0.0,0.0,0.0,0.0,-0.4572,0.0,0.0,0.0,0.0,0.0,0.0,0.0,0.0,0.0,0.0,0.0,0.0,0.0,0.0,0.0,0.0,0.0,0.0,0.0,0.0,0.0,0.0,0.0,-0.8911,-0.8925,-0.8978,-0.9032,-0.9112,0.0,0.0,0.0,0.0,0.0,0.0,-1.0422,-1.0668,-1.0989,-1.141,-1.1062,-1.1143,-1.1659,-1.1625,-1.1049,-0.998,-0.9309,0.0,0.0,0.0,0.0,0.0,0.0,0.0,0.0,0.0,0.0,0.0,0.0,0.0,0.0,0.0,0.0,0.0,0.0,0.0,0.0,0.0,0.0,0.0,0.0,0.0,0.0,0.0,0.0,0.0,0.0,0.0,0.0,0.0,0.0,0.0,0.0,0.0,0.0,0.0,0.0,0.0,0.0,0.0,0.0,0.0,0.0,0.0,0.0,0.0,0.0,0.0,0.0,0.0,0.0,0.0,0.0,0.0,0.0,0.0,0.0,0.0,0.0,0.0,-1.1972,-1.2192,-1.2277,-1.2443,-1.2136,-1.1259,-0.7802,-0.656,-0.6895,-0.6275,0.0,0.0,0.0,0.0,0.0,0.0,0.0,0.0,0.0,0.0,0.0,0.0,0.0,0.0,0.0,0.0,0.0,0.0,0.0,-0.8898,-0.9124,-0.9288,-0.9508,-0.9739,-1.0009,-1.0151,-1.0052,0.0,0.0,0.0,0.0,0.0,-1.0566,-1.1166,-1.1249,-1.0714,-1.1065,-1.1605,-1.229,-1.2095,-1.2038,-1.2091,-1.157,-1.133,-1.1229,0.0,0.0,0.0,0.0,0.0,0.0,0.0,0.0,0.0,0.0,0.0,0.0,0.0,0.0,0.0,0.0,0.0,0.0,0.0,0.0,0.0,0.0,0.0,0.0,0.0,0.0,0.0,0.0,0.0,0.0,0.0,0.0,0.0,0.0,0.0,0.0,0.0,0.0,0.0,0.0,0.0,-0.8728,-0.9416,0.0,0.0,0.0,0.0,0.0,0.0,0.0,0.0,0.0,0.0,0.0,0.0,0.0,-1.2051,-1.3534,-1.3648,-1.3824,-1.4155,-1.4988,-1.4845,-1.383,-1.4073,-1.3813,-1.3121,-1.2338,0.0,-0.8668,-0.8825,0.0,0.0,0.0,0.0,0.0,0.0,0.0,0.0,0.0,0.0,0.0,0.0,0.0,0.0,0.0,0.0,0.0,0.0,0.0,0.0,0.0,-0.9573,-0.9887,-0.9991,-1.0639,-1.0876,-1.0443,-1.1001,0.0,0.0,-1.118,-1.1313,-1.1166,-1.1589,-1.1617,-1.1202,-1.2414,-1.3167,-1.3546,-1.3599,-1.3752,-1.3922,-1.2938,-1.2335,-1.2033,-1.1837,0.0,0.0,0.0,0.0,0.0,0.0,0.0,0.0,0.0,0.0,0.0,0.0,0.0,0.0,0.0,0.0,0.0,0.0,0.0,0.0,0.0,0.0,0.0,0.0,0.0,0.0,0.0,0.0,0.0,0.0,0.0,0.0,0.0,0.0,0.0,0.0,0.0,0.0,0.0,-0.999,-1.0317,-1.0306,-1.0429,-1.0106,0.0,0.0,0.0,0.0,0.0,0.0,0.0,0.0,0.0,-1.4561,-1.4759,-1.5622,-1.726,-1.8238,-1.8898,-1.9199,-1.9195,-1.9006,-1.8627,-1.8633,-1.7957,-1.6847,-1.7669,-1.6442,-1.3839,-1.1654,-1.0535,-1.0184,0.0,0.0,0.0,0.0,-1.0503,-1.1222,0.0,0.0,0.0,0.0,0.0,0.0,0.0,0.0,0.0,0.0,0.0,0.0,-0.9615,-0.9903,-1.0207,-1.0523,-1.1299,-1.1575,-1.1081,-1.1605,-1.1746,-1.1355,-1.1591,-1.1679,-1.1591,-1.1815,-1.1999,-1.2059,-1.3629,-1.4485,-1.4727,-1.5035,-1.5234,-1.5347,-1.4559,-1.3696,-1.2941,-1.2847,-1.2423,-1.1707,0.0,0.0,0.0,0.0,0.0,0.0,0.0,0.0,0.0,0.0,0.0,0.0,0.0,0.0,0.0,0.0,0.0,0.0,0.0,0.0,0.0,0.0,0.0,0.0,0.0,0.0,0.0,0.0,0.0,0.0,0.0,0.0,0.0,0.0,0.0,0.0,0.0,-1.1728,-1.1705,-1.1396,-1.1701,-1.1401,0.0,0.0,0.0,0.0,0.0,0.0,-1.426,-1.3634,-1.4501,-1.7213,-1.7819,-1.899,-2.0954,-2.2141,-2.2917,-2.3262,-2.2722,-2.2571,-2.2767,-2.2682,-2.1713,-2.0149,-2.1356,-2.0481,-1.7937,-1.4396,-1.2912,-1.2774,-1.2181,-1.2018,-1.2194,-1.2639,-1.3186,-1.3807,0.0,0.0,0.0,0.0,0.0,0.0,0.0,0.0,0.0,0.0,0.0,-0.9219,-1.0648,-1.0388,-1.0567,-1.1727,-1.2068,-1.2251,-1.2234,-1.2065,-1.1963,-1.1952,-1.1967,-1.1867,-1.1606,-1.1669,-1.2175,-1.3127,-1.4093,-1.4943,-1.565,-1.5984,-1.6135,-1.6195,-1.6793,-1.6097,-1.4295,-1.2924,-1.2607,-1.2913,-1.1736,0.0,0.0,0.0,0.0,0.0,0.0,0.0,0.0,0.0,0.0,0.0,0.0,0.0,0.0,0.0,0.0,0.0,0.0,0.0,0.0,0.0,0.0,0.0,0.0,0.0,0.0,0.0,0.0,0.0,0.0,0.0,0.0,0.0,0.0,0.0,0.0,0.0,0.0,-1.3376,-1.4007,0.0,0.0,0.0,0.0,-1.3843,-1.501,-1.568,-1.5411,-1.5348,-1.6885,-2.0166,-2.0382,-2.1879,-2.4889,-2.4128,-2.404,-2.4583,-2.4459,-2.4383,-2.4422,-2.4773,-2.384,-2.1982,-2.2065,-2.0916,-1.8865,-1.6876,-1.5684,-1.4964,-1.3304,-1.2812,-1.3037,-1.3285,-1.3999,-1.488,0.0,0.0,0.0,0.0,0.0,0.0,0.0,0.0,-0.9384,-0.9498,-0.9825,-1.0228,-1.0652,-1.1369,-1.1922,-1.2201,-1.3049,-1.326,-1.2418,-1.2578,-1.2389,-1.1708,-1.1883,-1.2178,-1.2478,-1.2111,-1.2476,-1.3698,-1.5301,-1.6404,-1.7004,-1.797,-1.7926,-1.6889,-1.6913,-1.6164,-1.4897,-1.5035,-1.4079,-1.2522,-1.2228,-1.1694,0.0,0.0,0.0,0.0,0.0,0.0,0.0,0.0,0.0,0.0,0.0,0.0,0.0,0.0,0.0,0.0,0.0,0.0,0.0,0.0,0.0,0.0,0.0,0.0,0.0,0.0,0.0,0.0,0.0,0.0,0.0,0.0,0.0,0.0,0.0,0.0,0.0,-1.5624,-1.5701,0.0,-1.5238,-1.6228,-1.7125,-1.7611,-1.7479,-1.7869,-1.8972,-1.8753,-1.9862,-2.2587,-2.3836,-2.5396,-2.7415,-2.7134,-2.6927,-2.6831,-2.6119,-2.5785,-2.5825,-2.634,-2.5618,-2.4012,-2.5045,-2.4529,-2.2824,-2.0891,-1.9271,-1.7918,-1.7113,-1.6967,-1.7277,-1.7683,-1.8067,-1.8458,0.0,0.0,0.0,0.0,0.0,0.0,0.0,-0.942,-0.9516,-0.9431,-1.0265,-1.0992,-1.1303,-1.2167,-1.2912,-1.3386,-1.3816,-1.3845,-1.3342,-1.2975,-1.2658,-1.2303,-1.2278,-1.2508,-1.3086,-1.2814,-1.3187,-1.4244,-1.5953,-1.6961,-1.7357,-1.8446,-1.852,-1.7728,-1.7629,-1.7023,-1.6157,-1.7324,-1.5887,-1.2778,-1.2769,-1.243,-1.1785,0.0,0.0,0.0,0.0,0.0,0.0,0.0,0.0,0.0,0.0,0.0,0.0,0.0,0.0,0.0,0.0,0.0,0.0,0.0,0.0,0.0,0.0,0.0,0.0,0.0,0.0,0.0,0.0,0.0,0.0,0.0,0.0,0.0,0.0,-1.5342,-1.6206,-1.7445,-1.7704,-1.7718,-1.7666,-1.8935,-1.9972,-2.0461,-2.044,-2.0687,-2.1348,-2.1346,-2.2396,-2.4774,-2.6113,-2.7566,-2.9126,-2.8958,-2.8642,-2.8178,-2.7695,-2.7435,-2.7455,-2.7864,-2.7221,-2.5836,-2.6682,-2.6248,-2.4805,-2.3595,-2.2329,-2.1096,-2.0022,-1.9877,-2.0394,-2.1044,-2.0995,-2.0686,0.0,0.0,0.0,0.0,0.0,0.0,-0.9406,-0.9629,-0.9734,-0.9522,-1.0305,-1.136,-1.265,-1.2668,-1.3367,-1.5244,-1.4415,-1.4121,-1.5034,-1.3285,-1.2678,-1.3797,-1.3086,-1.2866,-1.3307,-1.3762,-1.4232,-1.4739,-1.5956,-1.6587,-1.6613,-1.7211,-1.7893,-1.8651,-1.923,-1.8919,-1.8156,-1.9652,-1.7867,-1.4017,-1.3413,-1.2952,-1.2538,0.0,0.0,0.0,0.0,0.0,0.0,0.0,0.0,0.0,0.0,0.0,0.0,0.0,0.0,0.0,0.0,0.0,0.0,0.0,0.0,0.0,0.0,0.0,0.0,0.0,0.0,0.0,0.0,0.0,0.0,0.0,0.0,0.0,-1.5393,-1.6946,-1.8288,-1.8876,-2.0092,-2.0867,-2.0772,-2.2954,-2.3767,-2.2363,-2.3755,-2.3962,-2.2269,-2.3037,-2.4504,-2.6624,-2.7174,-2.8223,-2.9973,-2.9539,-2.9083,-2.8587,-2.9042,-2.927,-2.927,-2.927,-2.8594,-2.737,-2.6724,-2.5767,-2.4665,-2.4807,-2.4733,-2.4325,-2.1694,-2.123,-2.2146,-2.296,-2.2376,-2.1277,0.0,0.0,0.0,0.0,0.0,0.0,-0.9406,-0.9629,-0.9777,-0.9734,-1.1408,-1.2635,-1.2668,-1.4352,-1.5631,-1.594,-1.5107,-1.4719,-1.5103,-1.3106,-1.2077,-1.2516,-1.2172,-1.2621,-1.4008,-1.3597,-1.3999,-1.5282,-1.5956,-1.6494,-1.6905,-1.8665,-1.922,-1.8793,-2.0297,-2.021,-1.9051,-1.946,-1.8684,-1.705,-1.5564,-1.4545,-1.3812,0.0,0.0,0.0,0.0,0.0,0.0,0.0,0.0,0.0,0.0,0.0,0.0,0.0,0.0,0.0,0.0,0.0,0.0,0.0,0.0,0.0,0.0,0.0,0.0,0.0,0.0,0.0,0.0,0.0,0.0,0.0,-1.8197,-1.9239,-1.8859,-1.895,-1.99,-2.2185,-2.2558,-2.3086,-2.4402,-2.5225,-2.5686,-2.5791,-2.5659,-2.5308,-2.4539,-2.5595,-2.6335,-2.6482,-2.8628,-2.977,-2.9785,-2.9808,-2.9228,-2.811,-2.8235,-2.8297,-2.8297,-2.8297,-2.8272,-2.8236,-2.8084,-2.7792,-2.7372,-2.6435,-2.6342,-2.6576,-2.464,-2.3741,-2.3538,-2.3754,-2.3131,-2.208,0.0,0.0,0.0,0.0,0.0,0.0,-0.9484,-0.9655,-0.9747,-0.9565,-1.1467,-1.3007,-1.352,-1.5162,-1.6518,-1.7176,-1.6329,-1.5647,-1.5467,-1.3836,-1.2576,-1.187,-1.2516,-1.3319,-1.4272,-1.4168,-1.463,-1.5656,-1.6303,-1.6608,-1.6586,-1.8978,-1.9722,-1.9066,-2.0913,-2.1354,-2.0851,-2.0798,-2.0456,-1.9749,-1.8243,-1.6767,-1.5407,-1.4432,-1.3885,-1.3614,-1.3066,-1.3045,-1.311,-1.1943,0.0,0.0,0.0,0.0,0.0,0.0,0.0,0.0,0.0,0.0,0.0,0.0,0.0,0.0,0.0,0.0,0.0,0.0,0.0,0.0,0.0,0.0,0.0,0.0,-2.0878,-2.245,-2.3076,-2.2474,-2.2649,-2.4614,-2.4963,-2.5428,-2.6481,-2.7165,-2.7578,-2.7744,-2.7453,-2.7037,-2.6419,-2.7447,-2.7906,-2.7647,-2.9635,-3.0618,-3.0423,-3.0348,-2.9891,-2.9083,-2.8876,-2.8794,-2.8773,-2.8587,-2.8699,0.0,-2.8454,-2.8342,-2.8507,-2.7302,-2.7033,0.0,0.0,0.0,0.0,0.0,-2.3566,-2.2858,0.0,0.0,0.0,0.0,0.0,0.0,-0.957,-0.9662,-0.9611,-0.9299,-1.1058,-1.2962,-1.4478,-1.5456,-1.6682,-1.8445,-1.7488,-1.6462,-1.5796,-1.4851,-1.3568,-1.1897,-1.3509,-1.4508,-1.4619,-1.5377,-1.5919,-1.6258,-1.712,-1.7094,-1.6414,-1.8851,-1.9929,-1.976,-2.1455,-2.2527,-2.2971,-2.2864,-2.2507,-2.1933,-2.0953,-1.9336,-1.7327,-1.6031,-1.529,-1.4786,-1.4114,-1.344,-1.2849,-1.261,0.0,0.0,0.0,0.0,0.0,0.0,0.0,0.0,0.0,0.0,0.0,0.0,0.0,0.0,0.0,0.0,0.0,0.0,0.0,0.0,0.0,0.0,0.0,0.0,-2.3335,-2.5012,-2.7361,-2.6625,-2.6003,-2.6506,-2.7109,-2.7558,-2.777,-2.8799,-2.9229,-2.8724,-2.9076,-2.8874,-2.7999,0.0,0.0,0.0,0.0,-3.1021,-3.127,-3.098,-3.0677,-3.0532,-3.0118,-2.9911,-2.9891,-2.9384,-2.9321,-2.9525,-2.8181,-2.7918,-2.8354,-2.747,-2.7061,-2.6943,-2.5871,-2.5887,-2.6196,-2.4602,-2.3873,-2.3558,0.0,0.0,0.0,0.0,0.0,0.0,-0.9288,-0.9288,-0.9363,-0.9497,-1.1737,-1.3292,-1.3131,-1.5602,-1.7458,-1.7943,-1.7041,-1.5817,-1.4315,-1.3791,-1.3449,-1.3309,-1.38,-1.4849,-1.6523,-1.7029,-1.7711,-1.8551,-1.917,-1.9338,-1.9078,-2.0788,-2.1704,-2.1986,-2.3211,-2.384,-2.3911,-2.3478,-2.3046,-2.2593,-2.2433,-2.1275,-1.9435,-1.783,-1.7277,-1.7141,-1.5864,-1.5852,-1.6192,-1.4385,-1.4628,-1.5376,-1.3081,-1.2998,0.0,0.0,0.0,0.0,0.0,0.0,0.0,0.0,0.0,0.0,0.0,0.0,0.0,0.0,0.0,0.0,0.0,0.0,0.0,-2.451,-2.6484,-2.8061,-2.9301,-2.9279,-2.8926,-2.8358,-2.8147,-2.8569,-2.9925,-3.0261,-3.021,-2.9734,-3.0125,-2.9998,-2.9115,-2.9944,-3.0199,-2.9755,-3.1052,-3.1387,-3.0632,-3.1013,-3.0677,-2.9559,0.0,0.0,-2.9415,-2.8727,-2.8676,-2.8983,-2.7905,-2.7422,-2.736,-2.6784,-2.6566,-2.6497,-2.6124,-2.5927,-2.5684,-2.4534,-2.4153,-2.4202,0.0,0.0,0.0,0.0,0.0,0.0,-0.92,-0.9068,-0.8998,-0.9143,-1.0511,-1.1859,-1.281,-1.4112,-1.5401,-1.6647,-1.5722,-1.4768,-1.4108,-1.3543,-1.348,-1.4037,-1.4225,-1.5244,-1.7107,-1.7622,-1.8406,-1.9514,-2.0362,-2.0545,-2.0175,-2.2375,-2.3015,-2.2427,-2.4072,-2.4582,-2.4247,-2.4027,-2.3706,-2.336,-2.325,-2.2673,-2.1657,-2.0018,-1.9007,-1.8352,-1.7738,-1.7227,-1.6766,-1.6029,-1.5852,-1.5662,-1.4129,-1.4006,-1.4214,0.0,0.0,0.0,0.0,0.0,0.0,0.0,0.0,0.0,0.0,0.0,0.0,0.0,0.0,-1.7298,-1.9621,0.0,-2.4645,-2.654,-2.8351,-2.9693,-3.0295,-3.0139,-2.9837,-2.9448,-2.9217,-2.9424,-3.0252,-3.0553,-3.0491,-3.0036,-3.0429,-3.0516,-3.0066,-3.0237,-3.0446,-3.0608,-3.1072,-3.1291,-3.1171,-3.1083,-3.0727,-3.0113,-2.9887,-2.9556,-2.9227,-2.9071,-2.8967,-2.8946,-2.8121,-2.7958,-2.8229,-2.7656,-2.7195,-2.6788,-2.6505,-2.6256,-2.5917,-2.485,-2.4578,-2.4616,0.0,0.0,0.0,0.0,0.0,0.0,0.0,-0.8789,-0.8613,-0.8682,-0.9169,-1.0309,-1.2479,-1.2491,-1.3161,-1.5139,-1.4505,-1.402,-1.4089,-1.3953,-1.4065,-1.4554,-1.5259,-1.6298,-1.771,-1.8614,-1.9539,-2.0529,-2.1693,-2.183,-2.117,-2.3646,-2.4033,-2.2704,-2.448,-2.4991,-2.4479,-2.444,-2.4256,-2.3977,-2.3753,-2.3585,-2.3335,-2.1908,-2.058,-1.9521,-1.9468,-1.8217,-1.6621,-1.7265,-1.6405,-1.5048,-1.4763,-1.4656,-1.4482,-1.3896,-1.3667,0.0,0.0,0.0,0.0,0.0,0.0,0.0,0.0,-1.5119,-1.5373,-1.8398,-1.9161,-2.0167,-2.2899,-2.5214,-2.7084,-2.8188,-2.9497,-3.0402,-3.0669,-3.0284,-2.9994,-2.9994,-3.016,-3.0305,-3.0387,-3.0739,-3.076,-3.0305,-3.0615,-3.0864,-3.0946,-3.0594,-3.0698,-3.136,-3.1091,-3.1174,-3.1574,-3.1008,-3.0714,-3.0744,-3.037,-2.9903,-2.9326,-2.9527,-2.9433,-2.902,-2.8265,-2.8337,-2.8873,-2.8462,-2.8022,-2.7544,-2.7185,-2.7104,-2.6993,-2.5591,-2.4949,-2.4899,0.0,0.0,0.0,0.0,0.0,0.0,0.0,0.0,-0.8342,-0.8571,-0.9317,-1.0223,-1.1225,-1.2325,-1.3235,-1.3867,-1.4603,-1.4548,-1.3485,-1.5194,-1.5925,-1.5317,-1.7595,-1.9158,-1.975,-2.1521,-2.2718,-2.3263,-2.4064,-2.4196,-2.3783,-2.4497,-2.4684,-2.4539,-2.4735,-2.4808,-2.4757,-2.4496,-2.4384,-2.4312,-2.4329,-2.3977,-2.3424,-2.2632,-2.2064,-2.1518,-2.0688,-1.9051,-1.7361,-1.7414,-1.648,-1.5337,-1.5311,-1.5124,-1.4801,-1.416,-1.3777,-1.363,-1.3672,-1.4428,-1.5581,-1.7105,-1.6839,-1.7062,0.0,-1.936,-1.834,-2.1257,-2.1904,-2.2743,-2.5188,-2.6705,-2.805,-2.9538,-2.9932,-3.0212,-3.0615,-3.0284,-2.9994,-2.9994,-3.0719,-3.1381,-3.1719,-3.1802,-3.1712,-3.1257,-3.1278,-3.1464,-3.1822,-3.1781,-3.1671,-3.1381,-3.1712,-3.136,-3.0243,-3.0532,-3.0512,-3.0086,-3.0191,-3.0173,-3.0059,-2.9342,-2.8941,-2.8883,-2.7914,-2.7321,-2.7093,-2.74,-2.8087,-2.8853,-2.8381,-2.8983,-2.9656,-2.6543,-2.5194,-2.4949,0.0,0.0,0.0,0.0,0.0,0.0,0.0,0.0,-0.7959,-0.8066,-0.8565,-0.9202,-0.9979,-1.1105,-1.1745,-1.1566,-1.274,-1.3691,-1.4194,-1.5584,-1.669,-1.7344,-1.8365,-1.9585,-2.0917,-2.1744,-2.2759,-2.399,-2.4556,-2.4847,-2.4898,-2.5069,-2.5138,-2.5138,-2.5138,-2.5018,-2.4757,-2.4663,-2.4552,-2.4384,-2.4384,-2.4139,-2.3668,-2.334,-2.2628,-2.1661,-2.0454,-1.8966,0.0,-1.7648,-1.6946,-1.6051,-1.588,-1.5603,-1.52,-1.4545,-1.4132,-1.4027,-1.4653,-1.469,-1.5013,-1.6737,-1.7147,-1.7733,-1.9986,-1.9974,-2.0358,-2.3488,-2.4278,-2.5157,-2.7843,-2.8829,-2.9516,-3.0272,-3.0318,-3.0349,-3.0669,-3.0284,-2.9891,-2.9622,-2.9828,-3.0137,-3.0376,-3.1174,-3.1236,-3.0243,-3.0926,-3.1464,-3.165,-3.1153,-3.1133,-3.1754,-3.1174,-3.0843,-3.0801,-3.045,-3.0199,-3.0101,-3.0038,-2.9729,-2.9327,-2.8883,-2.8407,-2.8033,-2.8119,-2.8047,-2.7952,-2.8446,-2.897,-2.953,-2.9115,-2.9408,-2.9783,-2.7868,-2.6992,-2.6814,0.0,0.0,0.0,0.0,0.0,0.0,0.0,0.0,0.0,0.0,-0.8048,-0.8513,-0.9307,-1.0138,-1.0407,-0.9855,-1.1054,-1.2455,-1.3838,-1.5651,-1.7189,-1.838,-1.9369,-2.0444,-2.1597,-2.2107,-2.2961,-2.4176,-2.4789,-2.5228,-2.56,-2.5712,-2.5769,-2.5825,-2.5769,-2.5461,-2.5034,-2.4684,-2.4629,-2.4701,-2.4028,-2.3871,-2.399,-2.3097,-2.2156,-2.1217,-2.0142,-1.8641,-1.7143,-1.7209,-1.6621,-1.5837,-1.5683,-1.545,-1.5224,-1.4751,-1.4494,-1.4478,-1.4928,-1.5088,-1.5403,-1.6954,-1.8072,-1.9079,-2.0169,-2.1046,-2.2424,-2.5229,-2.6143,-2.7149,-2.9372,-3.0047,-3.036,-3.0503,-3.0463,-3.0548,-3.0689,-3.0284,-2.9766,-2.9085,-2.8849,-2.8633,-2.8387,-2.9807,-3.0396,-2.9559,-3.0553,-3.1236,-3.136,-3.0864,-3.0967,-3.1836,-3.0884,-3.0574,-3.0988,-3.0325,-3.0054,-3.015,-2.9897,-2.9527,-2.8979,-2.8591,-2.8057,-2.7425,-2.8145,-2.8427,-2.8465,-2.9004,-2.9355,-2.9557,-2.9355,-2.9501,-2.974,-2.8872,-2.838,-2.8036,0.0,0.0,0.0,0.0,0.0,0.0,0.0,0.0,0.0,0.0,0.0,-0.8557,-0.9487,-0.9855,-0.984,-0.9358,-1.0372,-1.1185,-1.1483,-1.553,-1.7781,-1.7478,-2.1202,-2.2847,-2.1993,-2.3523,-2.4276,-2.4176,-2.5211,-2.5789,-2.61,-2.6391,-2.6682,-2.6954,-2.6682,-2.6227,-2.5569,-2.4339,-2.4522,-2.5423,-2.3012,-2.3145,-2.4453,-2.1511,-2.0411,-2.0407,-2.011,-1.8296,-1.6,-1.5745,-1.4967,-1.4106,-1.4306,-1.4479,-1.4636,-1.4688,-1.4844,-1.4829,-1.4232,-1.5843,-1.7908,-1.8964,-2.0509,-2.2011,-2.3062,-2.3924,-2.4842,-2.619,-2.7362,-2.8404,-2.9188,-2.9684,-2.9994,-3.0015,-3.0387,-3.0677,-3.0677,-3.0284,-2.9611,-2.845,-2.8087,-2.7441,-2.6108,-2.7871,-2.9332,-2.9953,-3.0429,-3.0905,-3.136,-3.1754,-3.1795,-3.1402,-3.136,-3.0926,-3.0036,-3.0015,-2.9994,-3.0015,-2.9863,-2.9796,-2.9721,-2.8597,-2.782,-2.7425,-2.7697,-2.777,-2.766,-2.8192,-2.8596,-2.8852,-2.8797,-2.942,-3.0192,-2.9455,-2.8635,-2.7692,0.0,0.0,0.0,0.0,0.0,0.0,0.0,0.0,0.0,0.0,0.0,0.0,0.0,0.0,0.0,0.0,-1.0717,-1.1754,-1.3087,-1.6344,-1.8127,-1.8002,-2.1176,-2.2681,-2.2063,-2.2977,-2.3841,-2.4651,-2.4573,-2.4923,-2.5518,-2.5368,-2.5438,-2.58,-2.6023,-2.6025,-2.5757,-2.5199,-2.4969,-2.4839,-2.3566,-2.3022,-2.2799,-2.0985,-1.9733,-1.8781,0.0,-1.6502,-1.5682,-1.5281,-1.4861,-1.4542,-1.4614,-1.4406,-1.4109,-1.4053,-1.4278,-1.4744,-1.5691,-1.6805,-1.8131,-2.0021,-2.1591,-2.2974,-2.4323,-2.53,-2.6172,-2.7131,-2.6858,-2.6654,-2.7476,-2.7201,-2.7138,-2.8077,-2.8367,-2.8938,-3.047,-2.9766,-2.8909,-2.8549,-2.7749,-2.7229,-2.7229,-2.8704,-2.9302,-2.8489,-3.0632,-3.1981,-3.1816,-3.1905,-3.205,-3.2271,-3.1402,-3.076,-3.045,-3.0003,-2.986,-2.9994,-2.977,-2.9621,-2.9505,-2.847,-2.7771,-2.7406,-2.7419,-2.7362,-2.7382,-2.7822,-2.8314,-2.8777,-2.8777,-2.9313,-2.9891,-2.891,-2.8456,-2.8336,0.0,0.0,0.0,0.0,0.0,0.0,0.0,0.0,0.0,0.0,0.0,0.0,0.0,0.0,0.0,0.0,0.0,-1.1443,-1.3006,-1.5484,-1.7008,-1.7159,-1.9722,-2.0923,-2.0509,-2.1415,-2.2268,-2.3037,-2.3335,-2.3846,-2.4461,-2.4449,-2.4672,-2.5102,-2.5464,-2.5428,-2.5139,-2.4639,-2.4137,-2.3675,-2.2345,-2.1598,-2.1126,-1.9392,-1.8156,0.0,-1.5461,-1.4955,-1.4983,-1.4515,-1.4374,-1.4381,-1.4394,-1.4392,-1.4296,-1.3882,-1.448,-1.561,-1.6984,-1.7945,-1.9124,-2.1354,-2.279,-2.3996,-2.5433,-2.6445,-2.7125,-2.7218,-2.678,-2.6264,-2.6017,-2.5307,-2.5192,-2.6537,-2.6812,-2.7662,-3.0098,-2.9539,-2.8805,-2.8755,-2.814,-2.766,-2.7454,-2.9126,-2.9673,-2.8304,-3.0384,-3.1692,-3.1567,-3.1547,-3.1836,-3.2401,-3.1629,-3.0983,-3.0581,-3.0201,-2.9876,-2.9668,-2.9347,-2.9192,-2.9179,-2.8099,-2.7691,-2.7818,-2.7381,-2.7197,-2.7326,-2.7492,-2.7753,-2.8038,-2.8038,-2.828,-2.8615,-2.7868,-2.7887,-2.8169,0.0,0.0,0.0,0.0,0.0,0.0,0.0,0.0,0.0,0.0,0.0,0.0,0.0,0.0,0.0,0.0,0.0,0.0,-1.1224,-1.3235,-1.459,-1.5118,-1.7081,-1.8005,-1.7596,-1.9041,-1.9793,-1.9678,-2.1511,-2.2576,-2.2948,-2.3595,-2.4153,-2.4695,-2.4854,-2.4506,-2.368,-2.2727,-2.2279,-2.1961,-1.9514,-1.9044,-1.9459,-1.6883,-1.5902,-1.5753,-1.4094,-1.375,-1.4003,-1.3592,-1.3559,-1.367,-1.3705,-1.4374,-1.5031,-1.4247,-1.5531,-1.7345,-1.8083,-1.9302,-2.0865,-2.2877,-2.412,-2.5148,-2.6209,-2.7362,-2.7806,-2.6465,-2.6899,-2.6884,-2.4652,-2.395,-2.4115,-2.5568,-2.5858,-2.6848,-2.9601,-2.9622,-2.925,-2.9116,-2.925,-2.8684,-2.6992,-2.9198,-3.0367,-2.9435,0.0,-3.0325,-3.076,-3.0843,-3.1257,-3.207,-3.207,-3.1564,-3.0505,-3.0444,-2.9944,-2.9124,-2.8757,-2.8691,-2.8891,-2.7649,-2.7657,-2.8548,-2.7602,-2.7289,-2.7389,-2.7234,-2.6976,-2.6646,-2.6628,-2.6628,-2.6628,-2.6628,-2.6972,-2.7368,0.0,0.0,0.0,0.0,0.0,0.0,0.0,0.0,0.0,0.0,0.0,0.0,0.0,0.0,0.0,0.0,0.0,0.0,-1.136,-1.3057,-1.4097,-1.423,-1.6733,-1.7857,-1.7254,-1.835,-1.9095,-1.9412,-1.979,-2.0193,-2.0565,-2.1096,-2.1412,-2.157,-2.2246,-2.2416,-2.2062,-2.1381,-2.0709,-2.0082,-1.8693,-1.8031,-1.7665,-1.6328,-1.5537,-1.4984,-1.4116,-1.3671,-1.3561,-1.3946,-1.4166,-1.4237,-1.4098,-1.446,-1.5014,-1.5583,-1.6969,-1.8414,-1.9074,-2.0405,-2.1821,-2.2601,-2.4435,-2.6118,-2.6318,-2.722,-2.7557,-2.598,-2.4431,-2.2793,-2.0982,-2.074,-2.1524,-2.3536,-2.5006,-2.6848,-2.9601,-2.9891,-2.9953,-3.0231,-2.9983,-2.99,-3.0125,-3.1099,-3.1319,-3.0408,-3.1381,-3.2085,-3.2209,-3.2851,-3.3306,-3.3534,-3.3223,-3.2687,-3.187,-3.0772,-3.0043,-2.9716,-2.9371,-2.9283,-2.9394,-2.8231,-2.7706,-2.7711,-2.7326,-2.7234,-2.7253,-2.7197,-2.7344,-2.7435,-2.7141,-2.7031,-2.7031,-2.7031,-2.7049,-2.7098,0.0,0.0,0.0,0.0,0.0,0.0,0.0,0.0,0.0,0.0,0.0,0.0,0.0,0.0,0.0,0.0,0.0,0.0,0.0,-1.2193,-1.2971,-1.3225,-1.4932,-1.5689,-1.542,-1.6387,-1.7016,-1.7291,-1.7606,-1.7869,-1.8113,-1.8815,-1.9127,-1.9203,-2.0152,-2.0357,-1.9972,-1.9752,-1.897,0.0,0.0,-1.6377,-1.5587,-1.4988,-1.4539,-1.4206,-1.3676,-1.3685,-1.4033,-1.4411,-1.4679,-1.4854,-1.4948,-1.5541,-1.6451,-1.7479,-1.8851,-2.0216,-2.0651,-2.1739,-2.2959,-2.4039,-2.5081,-2.5943,-2.6092,-2.6284,-2.5743,-2.3412,-2.1868,-2.0359,-1.856,-1.8405,-1.9437,-2.2149,-2.3764,-2.5792,-2.8959,-2.9559,-3.0015,-3.0884,-3.076,-3.0884,-3.1609,-3.2085,-3.1988,-3.134,-3.2002,-3.2354,-3.2147,-3.2602,-3.3161,-3.3741,-3.3513,-3.296,-3.2018,-3.0412,-2.9578,-2.9509,-2.9371,-2.9241,-2.9159,-2.8314,-2.788,-2.7783,0.0,-2.7345,-2.7567,-2.7474,-2.762,-2.786,-2.8127,-2.7921,-2.7566,-2.8239,-2.8202,-2.7828,0.0,0.0,0.0,0.0,0.0,0.0,0.0,0.0,0.0,0.0,0.0,0.0,0.0,0.0,0.0,0.0,0.0,0.0,0.0,0.0,-1.1877,-1.249,-1.2871,-1.3138,-1.3258,-1.4129,-1.46,-1.4657,-1.5458,-1.59,-1.5998,-1.6868,-1.734,-1.7484,-1.8342,-1.8375,-1.7757,-1.7895,-1.705,-1.5615,-1.531,-1.4584,-1.3736,0.0,-1.3409,-1.3474,-1.3056,-1.3616,-1.4558,-1.4747,-1.5116,-1.5537,-1.5976,-1.7074,-1.8382,-1.9379,-2.0769,-2.202,-2.2294,-2.3014,-2.4106,-2.5771,-2.5751,-2.5395,-2.5643,-2.4854,-2.3288,-2.018,-1.9383,-1.8733,-1.696,-1.6896,-1.8122,-2.13,-2.2625,-2.4488,-2.7945,-2.898,-2.987,-3.1133,-3.134,-3.1588,-3.2112,-3.2421,-3.2442,-3.2112,-3.2132,-3.2023,-3.1588,-3.1609,-3.223,-3.3455,-3.3434,-3.2747,-3.1562,-2.9968,-2.9209,-2.9213,-2.9213,-2.9137,-2.9011,-2.8445,-2.8313,-2.8423,-2.7771,0.0,-2.8069,-2.7992,-2.8044,-2.8312,-2.937,-2.9162,-2.8559,-3.0021,-2.9872,-2.9046,0.0,0.0,0.0,0.0,0.0,0.0,0.0,0.0,0.0,0.0,-0.896,-0.8796,0.0,0.0,0.0,0.0,0.0,0.0,0.0,0.0,0.0,-1.3026,-1.3321,-1.3501,-1.3525,-1.381,-1.4076,-1.4374,-1.4517,-1.5014,-1.5751,-1.5915,-1.623,-1.6609,-1.6773,-1.65,-1.5859,-1.5662,-1.5124,-1.4382,-1.4051,-1.3796,-1.3604,-1.3354,0.0,0.0,-1.2707,-1.2798,-1.3231,-1.4178,-1.5366,-1.6568,-1.7189,-1.7955,-1.8958,-2.0263,-2.1474,-2.2451,-2.2596,-2.3756,-2.493,-2.4579,-2.5532,-2.6203,-2.4805,-2.3338,-2.1694,-1.9624,-1.7698,-1.6291,-1.5952,-1.682,-1.8494,-2.1342,-2.2894,-2.4676,-2.7185,-2.8876,-3.0098,-3.0739,-3.0969,-3.1614,-3.3037,-3.2313,-3.1989,-3.2525,-3.2934,-3.2954,-3.252,-3.283,-3.3375,-3.4124,-3.3476,-3.2675,-3.1648,-3.0702,-3.0303,-3.047,-3.047,-3.0835,-3.1391,-3.0659,-2.9966,-2.9355,-2.8913,0.0,-2.8321,-2.8667,-2.9402,-3.0316,-3.049,-3.0886,-3.1396,-3.2051,-3.1308,-3.0043,0.0,0.0,0.0,0.0,0.0,0.0,0.0,-0.8474,-0.8703,-0.9787,-0.9482,-0.915,-0.9076,-0.8676,-0.8405,0.0,0.0,0.0,0.0,0.0,0.0,-1.2861,-1.2783,-1.288,-1.329,-1.329,-1.3511,-1.4025,0.0,-1.4354,-1.4966,-1.5294,-1.5614,-1.5938,-1.5994,-1.5725,-1.517,-1.4795,-1.4316,-1.3789,-1.3347,-1.3338,-1.3573,-1.3146,0.0,0.0,-1.2588,-1.2738,-1.3159,-1.3835,-1.537,-1.7181,-1.8009,-1.8945,-2.008,-2.1718,-2.3058,-2.4067,-2.4255,-2.5406,-2.6433,-2.6044,-2.6064,-2.5547,-2.3143,-2.1639,-1.981,-1.6395,-1.532,-1.4795,-1.4194,-1.5299,-1.7202,-1.9934,-2.1267,-2.3145,-2.6578,-2.7654,-2.8931,-3.1244,-3.1361,-3.1731,-3.309,-3.2424,-3.2035,-3.2128,-3.2333,-3.2514,-3.2669,-3.3141,-3.3517,-3.3852,-3.3172,-3.2396,-3.1616,-3.0653,-3.0407,-3.082,-3.0976,-3.1419,-3.1961,-3.1182,-3.0351,-2.957,-2.8969,0.0,-2.8872,-2.8928,-2.9903,-3.1323,-3.1612,-3.1987,-3.2467,-3.3551,-3.308,-3.175,0.0,0.0,0.0,0.0,0.0,0.0,0.0,-0.9185,-0.9376,-1.0652,-1.0256,-0.986,-0.9821,-0.9105,-0.8641,0.0,0.0,0.0,0.0,0.0,0.0,0.0,0.0,0.0,-1.305,0.0,0.0,-1.3981,-1.3981,0.0,0.0,0.0,0.0,0.0,-1.5732,-1.5469,-1.4966,-1.4536,-1.4059,0.0,0.0,-1.3146,-1.3597,0.0,0.0,0.0,0.0,-1.269,-1.3268,-1.3403,-1.4912,-1.6951,-1.7772,-1.9323,-2.1163,-2.2723,-2.4049,-2.5172,-2.5649,-2.6665,-2.7586,-2.7574,-2.6663,-2.498,-2.2039,-2.0327,-1.8163,-1.3951,-1.3474,-1.3669,-1.3175,-1.4113,-1.587,-1.8662,-1.9548,-2.139,-2.5696,-2.6294,-2.7693,-3.1482,-3.1567,-3.1787,-3.2974,-3.2465,-3.1999,-3.1973,-3.1973,-3.221,-3.2649,-3.3058,-3.3285,-3.331,-3.284,-3.2233,-3.1603,-3.0584,-3.0548,-3.1401,-3.1563,-3.2099,-3.2886,-3.2068,-3.1331,-3.061,-2.9911,0.0,0.0,-2.9721,-3.0662,-3.2092,-3.2761,-3.3221,-3.3742,-3.5146,-3.4798,-3.3564,0.0,0.0,0.0,0.0,0.0,0.0,0.0,-0.9511,-1.0117,-1.1372,-1.1034,-1.0635,-1.0535,-0.958,-0.8839,0.0,0.0,0.0,0.0,0.0,0.0,0.0,0.0,0.0,0.0,0.0,0.0,-1.4609,-1.4613,0.0,0.0,0.0,0.0,0.0,0.0,-1.555,-1.4966,-1.4637,0.0,0.0,0.0,0.0,0.0,0.0,0.0,0.0,0.0,-1.2065,-1.2725,-1.2567,-1.3689,-1.5177,-1.552,-1.8464,-2.1837,-2.2188,-2.3149,-2.4299,-2.5451,-2.6409,-2.716,-2.7497,-2.7041,-2.5785,-2.3018,-2.0058,-1.7265,-1.5049,-1.3372,-1.2759,-1.4307,-1.4721,-1.5738,-1.863,-1.9014,-2.0298,-2.4176,-2.5632,-2.7441,-3.0479,-3.0936,-3.1655,-3.3186,-3.2004,-3.1702,-3.3103,-3.3244,-3.3099,-3.269,-3.2711,-3.2802,-3.296,-3.2765,-3.2476,-3.1979,-3.1113,-3.1574,-3.3346,-3.2778,-3.3663,-3.5881,-3.5053,-3.448,-3.4047,-3.3663,0.0,0.0,-3.1914,-3.2714,-3.3167,-3.4049,-3.5322,-3.6678,-3.7291,-3.6419,-3.497,0.0,0.0,0.0,0.0,0.0,0.0,-0.9544,-0.9713,-1.0197,-1.1648,-1.152,-1.1166,-1.0931,-1.0332,-0.9721,-0.9089,0.0,0.0,0.0,0.0,0.0,0.0,0.0,0.0,0.0,0.0,-1.332,-1.4395,-1.4395,0.0,0.0,0.0,0.0,0.0,0.0,-1.5392,-1.5365,-1.4449,0.0,0.0,0.0,0.0,0.0,0.0,0.0,0.0,0.0,0.0,-1.2254,-1.2059,-1.3066,-1.4374,-1.4127,-1.6421,-1.9483,-2.0992,-2.2899,-2.4907,-2.6629,-2.8344,-2.9401,-2.8459,-2.7631,-2.6024,-2.2128,-2.0058,-1.7854,-1.392,-1.3022,-1.2983,-1.3077,-1.3614,-1.4671,-1.6726,-1.6827,-1.7983,-2.1905,-2.2595,-2.452,-2.9288,-3.0302,-3.1312,-3.2991,-3.2567,-3.224,-3.2333,-3.2087,-3.2107,-3.242,-3.2612,-3.2761,-3.2901,-3.2782,-3.2465,-3.1874,-3.1578,-3.217,-3.3572,-3.3346,-3.4302,-3.6277,-3.5246,-3.4644,-3.4457,-3.3907,0.0,0.0,-3.2989,-3.3755,-3.4151,-3.5098,-3.6068,-3.7002,-3.7265,-3.6655,-3.5747,0.0,0.0,0.0,0.0,0.0,-0.8352,-0.958,-0.9751,-1.023,-1.1543,-1.156,-1.1357,-1.1136,-1.0609,-1.0153,-0.9775,-0.9794,0.0,0.0,0.0,0.0,0.0,0.0,0.0,0.0,0.0,-1.3375,-1.4473,-1.4322,-1.4536,0.0,0.0,-1.5542,-1.5678,0.0,0.0,0.0,0.0,0.0,0.0,0.0,0.0,0.0,0.0,0.0,0.0,0.0,0.0,0.0,0.0,0.0,-1.3665,-1.3121,-1.448,-1.6789,-1.9341,-2.1834,-2.4232,-2.6458,-2.8439,-2.9615,-2.8581,-2.7173,-2.4983,-2.0966,-1.9116,-1.7061,-1.2804,-1.2402,-1.2627,-1.2054,-1.2647,-1.3699,-1.5149,-1.5482,-1.6778,-2.0263,-2.0687,-2.2593,-2.7812,-2.8911,-3.0134,-3.2297,-3.2871,-3.2789,-3.201,-3.1784,-3.2061,-3.2793,-3.2996,-3.2908,-3.258,-3.2605,-3.2383,-3.196,-3.2133,-3.2742,-3.3853,-3.3966,-3.456,-3.5625,-3.5189,-3.4759,-3.4373,-3.4445,0.0,0.0,-3.4281,-3.4758,-3.4731,-3.5896,-3.6564,-3.694,-3.7142,-3.6943,-3.6374,0.0,0.0,0.0,0.0,0.0,0.0,-0.8886,-0.9635,-1.0331,-1.1034,-1.1107,-1.1107,-1.1107,-1.0199,-0.9851,-1.0435,-1.0614,0.0,0.0,0.0,0.0,0.0,0.0,0.0,0.0,0.0,-1.4068,-1.5094,-1.4637,-1.4803,-1.5584,-1.5584,-1.5455,-1.52,0.0,0.0,0.0,0.0,0.0,0.0,0.0,0.0,-1.1672,0.0,0.0,0.0,0.0,0.0,0.0,0.0,0.0,0.0,0.0,-1.2917,-1.4233,-1.7328,-1.9416,-2.1419,-2.439,-2.5718,-2.6477,-2.7386,-2.5296,-2.2367,-1.9859,-1.6911,-1.4109,-1.2203,-1.1442,-1.1262,-1.1722,-1.2228,-1.3064,-1.4397,-1.5672,-1.7291,-1.9591,-2.0696,-2.2554,-2.5906,-2.6527,-2.7931,-3.1091,-3.2602,-3.3203,-3.269,-3.312,0.0,-3.4137,-3.4054,-3.3289,-3.1845,-3.2133,-3.2305,-3.2305,-3.2799,-3.3572,-3.4469,-3.4747,-3.4591,-3.4072,-3.5603,-3.5458,-3.414,0.0,0.0,0.0,-3.6136,-3.5795,-3.4766,-3.6556,-3.7003,-3.6721,-3.7496,-3.7448,-3.6911,0.0,0.0,0.0,0.0,0.0,0.0,0.0,-0.8781,-0.9292,-0.9743,-0.995,-1.0082,-1.0082,-0.9614,-0.9401,-0.9595,-0.9977,0.0,0.0,0.0,0.0,0.0,0.0,0.0,0.0,-1.371,-1.4249,-1.5445,-1.5067,-1.4907,-1.4989,-1.5331,-1.5156,-1.4587,-1.4734,-1.4864,0.0,0.0,0.0,0.0,0.0,-1.2732,-1.2448,0.0,0.0,0.0,0.0,0.0,0.0,0.0,0.0,0.0,0.0,0.0,0.0,-1.479,-1.6921,-1.9339,-2.0933,-2.2452,-2.3442,-2.3002,-2.1775,-2.0032,-1.7601,-1.6041,-1.4371,-1.1842,-1.1462,-1.1543,-1.1467,-1.2335,-1.3609,-1.5292,-1.6748,-1.8213,-1.9819,-2.1411,-2.3413,-2.6162,-2.9312,-3.1754,-3.3136,-3.269,-3.2534,-3.3161,-3.2326,-3.2534,-3.4231,-3.3941,-3.3664,-3.3466,-3.3458,-3.3197,-3.2555,-3.331,-3.3966,-3.4525,-3.519,-3.4971,-3.4072,-3.5603,-3.5458,0.0,0.0,0.0,0.0,-3.7582,-3.7045,-3.512,-3.7673,-3.7822,-3.6684,-3.7496,-3.7471,-3.6911,0.0,0.0,0.0,0.0,0.0,0.0,0.0,-0.8215,-0.8575,-0.8804,-0.897,-0.9175,-0.9424,-0.9058,-0.8936,-0.9185,-0.9557,0.0,0.0,0.0,0.0,0.0,0.0,0.0,-1.401,-1.3778,-1.4395,-1.5864,-1.4974,-1.4867,-1.5431,-1.5353,-1.495,-1.4348,-1.4361,-1.4407,0.0,0.0,0.0,0.0,-1.2655,-1.2339,-1.2359,0.0,0.0,0.0,0.0,0.0,0.0,0.0,0.0,0.0,0.0,0.0,0.0,0.0,-1.4961,-1.6869,-1.8253,-1.976,-2.0798,-2.0265,-1.9144,-1.7662,-1.5716,-1.4587,-1.3361,-1.1418,-1.1473,-1.179,-1.1483,-1.248,-1.3676,-1.4667,-1.6497,-1.8119,-1.8966,-2.0757,-2.295,-2.5589,-2.9331,-3.2141,-3.3218,-3.2898,-3.3074,-3.4225,-3.3409,-3.3604,-3.5312,-3.5013,-3.4823,-3.5019,-3.4229,-3.3593,-3.3048,-3.3706,-3.419,-3.4525,-3.5356,-3.4949,-3.3338,-3.493,-3.4546,0.0,0.0,0.0,0.0,-3.7919,-3.7618,-3.6065,-3.8385,-3.8312,-3.6925,-3.7564,-3.7586,-3.7219,0.0,0.0,0.0,0.0,0.0,0.0,0.0,-0.7903,-0.8209,-0.8217,-0.8217,-0.8474,-0.9087,-0.8577,-0.8459,-0.9087,0.0,0.0,0.0,0.0,0.0,0.0,0.0,0.0,-1.3573,-1.3597,-1.4478,-1.6213,-1.4541,-1.4671,-1.6516,-1.5547,-1.4803,-1.4274,-1.4205,-1.3876,-1.3274,0.0,0.0,0.0,-1.1591,-1.1321,0.0,0.0,0.0,0.0,0.0,0.0,0.0,0.0,0.0,0.0,0.0,0.0,0.0,0.0,0.0,0.0,0.0,-1.7502,-1.838,-1.873,-1.7119,-1.5203,-1.4226,-1.2754,0.0,-1.1092,-1.1566,-1.1964,-1.1758,-1.2734,-1.3541,-1.3317,-1.561,-1.7508,-1.7678,-1.9601,-2.1989,-2.4747,-2.7513,-2.9901,-3.1794,-3.3157,-3.4401,-3.5511,-3.5643,-3.595,-3.682,-3.6688,-3.644,-3.6137,-3.4491,-3.3593,-3.3579,-3.3741,-3.4,-3.4314,-3.5168,-3.436,-3.205,-3.3658,-3.2929,0.0,0.0,0.0,0.0,-3.736,-3.7614,-3.7429,-3.8789,-3.8492,-3.7358,-3.7678,-3.7793,-3.7655,0.0,0.0,0.0,0.0,0.0,0.0,0.0,0.0,0.0,0.0,-0.8422,-0.848,-0.8582,-0.8448,-0.8417,0.0,0.0,0.0,0.0,0.0,0.0,0.0,0.0,0.0,-1.3454,-1.3549,-1.4233,-1.5533,-1.5013,-1.4846,-1.503,-1.5016,-1.4277,-1.2984,-1.3714,-1.3969,-1.3784,-1.3233,0.0,0.0,-1.2487,-1.2298,0.0,0.0,0.0,0.0,-1.1157,-1.1219,0.0,0.0,0.0,0.0,0.0,0.0,0.0,0.0,-1.3131,-1.3479,-1.3973,0.0,-1.4473,-1.4775,-1.3516,-1.2371,0.0,-1.2367,-1.1719,-1.2122,-1.2344,-1.258,-1.2915,-1.3802,-1.5079,-1.6818,-1.843,-1.987,-2.0838,-2.3705,-2.6262,-2.7712,-3.0194,-3.1802,-3.1712,-3.2602,-3.3376,-3.3953,-3.3723,-3.3874,-3.4596,-3.5113,-3.518,-3.478,-3.4194,-3.3742,-3.3356,-3.2887,-3.2478,-3.2203,-3.3268,-3.2513,-3.0272,-3.2177,-3.207,0.0,0.0,0.0,-3.6129,-3.7768,-3.7952,-3.7429,-3.8789,-3.8492,-3.7358,-3.7678,-3.7793,-3.7655,0.0,0.0,0.0,0.0,0.0,0.0,0.0,0.0,0.0,0.0,0.0,0.0,0.0,0.0,0.0,0.0,0.0,0.0,0.0,0.0,0.0,0.0,0.0,-1.3057,-1.3519,-1.3588,-1.4361,-1.5952,-1.5163,-1.5024,-1.5495,-1.5002,-1.41,-1.2915,-1.3068,-1.3249,-1.3407,-1.2872,-1.3019,-1.348,-1.2467,0.0,0.0,0.0,0.0,0.0,-1.1302,-1.1364,0.0,-1.1861,-1.2523,-1.3225,0.0,0.0,0.0,0.0,-1.369,-1.4132,-1.4195,-1.3767,-1.3455,-1.4153,-1.3111,-1.2178,-1.3103,-1.2565,-1.2051,-1.2691,-1.2885,-1.3105,-1.3737,-1.4309,-1.533,-1.7195,-1.8522,-2.0232,-2.2838,-2.5088,-2.7102,-2.8773,-3.0214,-3.1388,0.0,-3.2907,-3.3726,-3.4466,-3.4047,-3.3912,-3.431,-3.4298,-3.4086,-3.3777,-3.2996,-3.2596,-3.2786,-3.1963,-3.1583,-3.1554,-3.2133,-3.1911,-3.0946,-3.186,-3.1805,0.0,0.0,0.0,-3.5768,-3.7049,-3.7892,-3.8551,-3.9403,-3.8712,-3.731,-3.7839,-3.7406,-3.6556,0.0,0.0,0.0,0.0,0.0,0.0,0.0,0.0,0.0,0.0,0.0,0.0,0.0,0.0,0.0,0.0,0.0,0.0,0.0,0.0,0.0,0.0,-1.2872,-1.316,-1.3672,-1.3645,-1.4524,-1.6406,-1.524,-1.5322,-1.6459,-1.5383,-1.4375,-1.3459,-1.2591,-1.244,-1.2765,-1.2276,-1.2574,-1.3228,-1.2069,0.0,0.0,0.0,0.0,0.0,0.0,0.0,0.0,-1.2151,-1.2584,-1.2954,-1.2808,0.0,0.0,0.0,0.0,0.0,-1.5253,-1.4629,-1.4114,-1.5061,-1.4145,-1.3173,-1.3873,-1.3182,-1.2621,-1.3372,-1.3607,-1.3891,-1.4582,-1.5089,-1.5732,-1.6747,-1.8255,-2.0702,-2.4609,-2.5718,-2.6912,-2.9064,-2.954,-3.0478,-3.2403,-3.3309,-3.4246,-3.5245,-3.4703,-3.4292,-3.4159,-3.3564,-3.3,-3.2509,-3.1441,-3.117,-3.1727,-3.0937,-3.0741,-3.118,-3.1239,-3.1466,-3.1864,-3.183,-3.1742,-3.1663,0.0,0.0,-3.5413,-3.5927,-3.7622,-3.9837,-3.9978,-3.9058,-3.7736,-3.8056,-3.7156,-3.5722,0.0,0.0,0.0,0.0,0.0,0.0,0.0,0.0,0.0,0.0,0.0,0.0,0.0,0.0,0.0,0.0,0.0,0.0,0.0,0.0,0.0,-1.274,-1.287,-1.3126,-1.3611,-1.3603,-1.4089,-1.5088,-1.5725,-1.586,-1.5613,-1.6254,-1.5557,-1.3794,-1.3077,-1.2782,-1.2811,-1.2894,-1.3156,-1.344,-1.2194,0.0,0.0,0.0,0.0,0.0,0.0,0.0,0.0,-1.2148,-1.2656,-1.3185,-1.2385,0.0,0.0,0.0,0.0,0.0,-1.4849,-1.5302,-1.5615,-1.5312,-1.4305,-1.3679,-1.4734,-1.4104,-1.3698,-1.51,-1.5388,-1.5581,-1.6065,-1.7687,-1.9017,-1.9315,-2.189,-2.4883,-2.7848,-2.8717,-2.9225,-2.9702,-3.1201,-3.1917,-3.134,-3.2265,-3.3012,-3.3161,-3.2628,-3.1977,-3.1439,-3.1765,-3.1265,-2.9667,-3.0699,-3.0719,-2.9509,-2.9331,-2.9245,-2.92,-2.9362,-2.9214,-2.8899,-3.0546,-3.0976,-3.0468,0.0,-3.3933,-3.561,-3.5446,-3.7234,-4.0083,-3.9464,-3.9372,-3.9581,-3.8366,-3.786,-3.7709,0.0,0.0,0.0,0.0,0.0,0.0,0.0,0.0,0.0,0.0,0.0,0.0,0.0,0.0,0.0,0.0,0.0,0.0,0.0,0.0,-1.0624,-1.2358,-1.251,-1.3129,-1.4288,-1.4221,-1.4818,-1.609,-1.6228,-1.6103,-1.5699,-1.4662,-1.3614,-1.2634,-1.1954,-1.2055,-1.2677,-1.2666,-1.3071,-1.3611,0.0,0.0,0.0,0.0,0.0,0.0,0.0,0.0,0.0,0.0,-1.2861,-1.3569,-1.2339,0.0,0.0,0.0,0.0,0.0,-1.4838,-1.5234,-1.584,-1.6286,-1.6005,-1.582,-1.6672,-1.6016,-1.5498,-1.6562,-1.6325,-1.6146,-1.6805,-1.793,-1.9338,-2.1115,-2.4233,-2.6845,-2.8021,-2.885,-2.9472,-2.9789,-3.0837,-3.137,-3.0997,-3.1717,-3.219,-3.219,-3.1325,-3.0626,-3.0314,-3.0025,-2.9617,-2.9035,-2.953,-2.953,-2.8993,-2.8975,-2.895,-2.8795,-2.8969,-2.9523,-3.0542,-3.1263,-3.178,-3.2037,0.0,-3.3176,-3.4348,-3.3722,-3.57,-3.9075,-3.8105,-3.8001,-3.8033,-3.5975,-3.5365,-3.5685,0.0,0.0,0.0,0.0,0.0,0.0,0.0,0.0,0.0,0.0,0.0,0.0,0.0,0.0,0.0,0.0,0.0,0.0,0.0,-0.9177,-1.0195,-1.1839,-1.2354,-1.3403,-1.5086,-1.4914,-1.5487,-1.6886,-1.6677,-1.6434,-1.6102,-1.3545,-1.2123,-1.1689,-1.0981,-1.1311,-1.2361,-1.2343,-1.2873,-1.3677,0.0,0.0,0.0,0.0,0.0,0.0,0.0,0.0,0.0,0.0,0.0,0.0,0.0,0.0,0.0,-1.3566,-1.4041,-1.4901,-1.4692,-1.5019,-1.5762,-1.699,-1.7272,-1.7546,-1.8676,-1.8006,-1.7383,-1.8276,-1.7801,-1.7342,-1.7803,-1.8527,-2.0041,-2.3088,-2.6064,-2.8078,-2.8335,-2.8951,-2.9553,-3.0077,-3.0209,-3.0404,-3.0791,-3.1083,-3.1294,-3.1294,-3.0258,-2.9638,-2.9638,-2.8756,-2.8388,-2.8682,-2.8498,-2.8498,-2.87,-2.8792,-2.8799,-2.8719,-2.891,-2.9928,-3.1518,-3.1694,-3.2173,-3.2781,-3.1986,-3.2254,-3.3173,-3.2527,-3.4424,-3.7688,-3.745,-3.7199,-3.6802,-3.4777,-3.3854,-3.379,0.0,0.0,0.0,0.0,0.0,0.0,0.0,0.0,0.0,0.0,0.0,0.0,0.0,0.0,0.0,0.0,0.0,0.0,0.0,-0.9102,-1.0035,-1.1199,-1.2758,-1.4267,-1.5701,-1.5312,-1.5341,-1.5892,-1.6925,-1.7158,-1.6594,-1.48,-1.3275,-1.2012,-1.1235,-1.1172,-1.1715,-1.219,-1.2865,-1.3579,-1.306,0.0,0.0,0.0,0.0,0.0,0.0,0.0,0.0,0.0,0.0,0.0,0.0,0.0,-1.3561,-1.2161,-1.2835,-1.4012,-1.4116,-1.4841,-1.5802,-1.6792,-1.6904,-1.7435,-2.018,-1.9597,-1.8929,-2.0586,-2.074,-2.0368,-1.9712,-2.1005,-2.3027,-2.5723,-2.753,-2.9095,-3.0448,-3.035,-3.0362,-3.1043,-3.0254,-2.9905,-3.048,-3.0076,-2.978,-2.978,-2.9162,-2.8823,-2.8823,-2.8162,-2.7877,-2.7914,-2.8205,-2.8223,-2.7914,-2.8242,-2.8425,-2.8447,-2.8792,-2.8891,-2.8756,-3.0451,-3.0937,-3.0408,-3.0976,-3.1976,-3.3095,-3.3258,-3.4295,-3.6113,-3.8412,-3.8758,-3.7924,-3.7367,-3.5966,-3.4484,0.0,0.0,0.0,0.0,0.0,0.0,0.0,0.0,0.0,0.0,0.0,0.0,0.0,0.0,0.0,0.0,0.0,0.0,0.0,-0.8776,-0.9632,-1.0721,-1.1895,-1.3074,-1.4275,-1.5179,-1.6344,-1.7803,-1.7769,-1.7642,-1.7386,-1.4678,-1.3043,-1.2273,-1.077,-1.0739,-1.1864,-1.208,-1.2711,-1.3555,-1.308,-1.3349,0.0,0.0,0.0,0.0,0.0,0.0,0.0,0.0,-1.301,-1.3367,-1.263,-1.3362,-1.4288,-1.3116,-1.3649,-1.446,-1.3874,-1.4793,-1.6215,-1.7538,-1.7704,-1.81,-2.0325,-2.0877,-2.1174,-2.2135,-2.2469,-2.2405,-2.1955,-2.2231,-2.3377,-2.5805,-2.7199,-2.8257,-2.9089,-2.9449,-2.9595,-2.9545,-2.9436,-2.9397,-2.953,-2.9247,-2.9066,-2.9066,-2.8502,-2.8163,-2.8163,-2.7696,-2.7508,-2.7822,-2.7673,-2.7673,-2.7822,-2.793,-2.7875,-2.7636,-2.804,-2.8723,-2.9546,-3.0255,-3.0587,-3.0544,-3.082,-3.0956,-3.0959,-3.0986,-3.2614,-3.5189,-3.7846,-3.7551,-3.5678,-3.6036,-3.4759,-3.2995,0.0,0.0,0.0,0.0,0.0,0.0,0.0,0.0,0.0,0.0,0.0,0.0,0.0,0.0,0.0,0.0,0.0,0.0,-0.814,-0.8578,-0.9275,-1.028,-1.1507,-1.2642,-1.3622,-1.5182,-1.6706,-1.8209,-1.804,-1.7697,-1.7225,-1.4914,-1.3486,-1.2761,-1.1392,-1.1366,-1.2364,-1.2357,-1.2827,-1.3576,-1.3245,-1.3493,0.0,0.0,0.0,0.0,0.0,0.0,0.0,0.0,-1.3182,-1.3615,-1.3057,-1.3651,-1.4326,-1.3385,-1.369,-1.4248,-1.3527,-1.4508,-1.6097,-1.7513,-1.8012,-1.8773,-2.0895,-2.1816,-2.2539,-2.366,-2.3844,-2.3603,-2.3063,-2.3062,-2.3698,-2.5314,-2.677,-2.7751,-2.7865,-2.8408,-2.8631,-2.8189,-2.827,-2.8382,-2.8497,-2.8233,-2.807,-2.807,-2.7679,-2.7398,-2.7398,-2.7141,-2.7123,-2.738,-2.7141,-2.7123,-2.7454,-2.7398,-2.7251,-2.6995,-2.727,-2.8108,-2.9469,-2.9604,-2.9834,-3.0255,-3.0255,-3.0011,-2.9641,-3.0176,-3.2355,-3.5462,-3.7336,-3.7001,-3.5558,-3.5937,-3.4923,-3.3591,0.0,0.0,0.0,0.0,0.0,0.0,0.0,0.0,0.0,0.0,0.0,0.0,0.0,0.0,0.0,0.0,0.0,0.0,-0.8376,-0.8598,-0.9067,-0.9863,-1.1896,-1.3355,-1.4147,-1.5309,-1.6077,-1.6508,-1.7593,-1.735,-1.5929,-1.5761,-1.4921,-1.352,-1.3374,-1.3222,-1.3099,-1.3099,-1.3298,-1.3597,-1.3597,-1.3597,-1.3638,0.0,0.0,0.0,0.0,0.0,0.0,0.0,-1.3421,-1.3615,-1.3057,-1.3184,-1.3359,-1.2457,-1.263,-1.3105,-1.2939,-1.3932,-1.5288,-1.6426,-1.7681,-1.9366,-2.2265,-2.2511,-2.2846,-2.538,-2.4977,-2.3883,-2.2825,-2.368,-2.4498,-2.4418,-2.6563,-2.7957,-2.7289,-2.7564,-2.7678,-2.7427,-2.6899,-2.6791,-2.7333,-2.6899,-2.6591,-2.6591,-2.6591,-2.6591,-2.6591,-2.6591,-2.6591,-2.6591,-2.6591,-2.6591,-2.6591,-2.6591,-2.6591,-2.6591,-2.6591,-2.6995,-2.784,-2.8187,-2.8608,-2.8975,-2.8975,-2.9214,-2.972,-3.1491,-3.4058,-3.6942,-3.6979,-3.7565,-3.8366,-3.7704,-3.7169,-3.6803,0.0,0.0,0.0,0.0,0.0,0.0,0.0,0.0,0.0,0.0,0.0,0.0,0.0,0.0,0.0,0.0,0.0,0.0,-0.8896,-0.9469,-0.9799,-0.9693,-1.1484,-1.2429,-1.2212,-1.44,-1.5892,-1.6565,-1.8061,-1.8295,-1.7291,-1.6015,-1.4915,-1.3986,-1.3761,-1.3127,-1.2254,-1.3241,-1.3388,-1.2947,-1.3613,-1.3734,-1.3601,0.0,0.0,0.0,0.0,0.0,0.0,0.0,0.0,0.0,-1.2978,-1.3619,-1.418,-1.3027,-1.39,-1.5006,-1.4004,-1.4941,-1.6496,-1.772,-1.9043,-2.0625,-2.2984,-2.3415,-2.388,-2.5948,-2.561,-2.4958,-2.5033,-2.5112,-2.5242,-2.5674,-2.6495,-2.7013,-2.6829,-2.6866,-2.6903,-2.6828,-2.67,-2.6646,-2.6791,-2.67,-2.6591,-2.6591,-2.6591,-2.6591,-2.6591,-2.6591,-2.6591,-2.6591,-2.6591,-2.6591,-2.6591,-2.6591,-2.6591,-2.6591,-2.6591,-2.6848,-2.7361,-2.7765,-2.8168,-2.859,-2.9159,-2.9305,-2.9356,-3.1998,-3.3537,-3.4583,-3.6981,-3.6777,-3.5207,-3.5935,-3.5118,-3.3693,0.0,0.0,0.0,0.0,0.0,0.0,0.0,0.0,0.0,0.0,-0.8615,-0.8483,0.0,0.0,0.0,0.0,0.0,0.0,-0.9764,-0.9834,-0.9987,-1.0253,-1.156,-1.2653,-1.3378,-1.5118,-1.6198,-1.6527,-1.7881,-1.8306,-1.7816,-1.7137,-1.636,-1.5586,-1.5352,-1.4484,-1.3277,-1.3921,-1.3802,-1.3227,-1.4057,-1.4154,-1.3877,0.0,0.0,0.0,0.0,0.0,0.0,0.0,0.0,0.0,-1.2835,-1.3613,-1.4429,-1.3077,-1.3887,-1.5079,-1.4383,-1.541,-1.7135,-1.8965,-2.0371,-2.1853,-2.3789,-2.4611,-2.5254,-2.6399,-2.6031,-2.5674,-2.6188,-2.6069,-2.5984,-2.6384,-2.694,-2.7141,-2.6664,-2.6719,-2.6756,-2.6609,-2.6591,-2.6646,-2.6811,-2.6683,-2.6591,-2.6591,-2.6426,-2.6279,-2.6114,-2.6408,-2.6518,-2.6334,-2.6646,-2.6756,-2.6591,-2.6591,-2.6591,-2.6591,-2.6756,-2.6866,-2.6958,-2.7508,-2.8003,-2.8425,-2.9067,-2.9287,-2.943,-3.188,-3.283,-3.2969,-3.5743,-3.5714,-3.4127,-3.485,-3.4588,-3.3923,0.0,0.0,0.0,0.0,0.0,0.0,0.0,0.0,0.0,0.0,-0.8487,-0.8458,0.0,0.0,0.0,0.0,0.0,0.0,0.0,-0.9813,-0.988,-1.1167,-1.1897,-1.3522,-1.6218,-1.6579,-1.665,-1.6436,-1.7275,-1.7688,-1.7647,-1.8482,-1.8388,-1.7482,-1.7348,-1.6465,-1.509,-1.4765,-1.4326,-1.3907,-1.4593,-1.4604,-1.4229,-1.4645,0.0,0.0,0.0,0.0,0.0,0.0,0.0,0.0,-1.2649,-1.3334,-1.4223,-1.289,-1.3217,-1.4127,-1.4496,-1.5645,-1.7369,-1.998,-2.1758,-2.3285,-2.4906,-2.6102,-2.6849,-2.6626,-2.6388,-2.6315,-2.6683,-2.6683,-2.6646,-2.6646,-2.7508,-2.7783,-2.6628,-2.6811,-2.694,-2.6628,-2.6591,-2.6738,-2.7141,-2.6793,-2.6554,-2.6591,-2.6223,-2.5819,-2.5488,-2.6149,-2.6352,-2.6019,-2.6774,-2.6995,-2.6645,-2.6682,-2.6773,-2.681,-2.7161,-2.7105,-2.6774,-2.7473,-2.8003,-2.8407,-2.8737,-2.9104,-2.961,-3.1375,-3.2033,-3.2072,-3.3982,-3.45,-3.4244,-3.4505,-3.5134,-3.5832,0.0,0.0,0.0,0.0,0.0,0.0,0.0,0.0,0.0,0.0,0.0,0.0,0.0,0.0,0.0,0.0,0.0,0.0,0.0,-1.0045,-1.0213,-1.0481,-1.1409,-1.2998,-1.541,-1.4907,-1.537,-1.6862,-1.742,-1.7523,-1.7142,-1.7148,-1.6699,-1.5915,-1.6275,-1.5109,-1.2882,-1.3774,-1.359,-1.2747,-1.3633,-1.3642,-1.3268,-1.4496,-1.4327,0.0,0.0,0.0,0.0,0.0,0.0,0.0,-1.2476,-1.3214,-1.4194,-1.3488,-1.4114,-1.5313,-1.6437,-1.6985,-1.7871,-2.0449,-2.334,-2.6014,-2.778,-2.8231,-2.7938,-2.6811,-2.7179,-2.779,-2.7987,-2.749,-2.705,-2.705,-2.6793,-2.6333,-2.5711,-2.6021,-2.637,-2.6554,-2.6591,-2.6738,-2.7141,-2.6572,-2.6278,-2.6554,-2.5913,-2.5706,-2.6138,-2.6027,-2.6001,-2.6064,-2.6605,-2.6937,-2.7088,-2.7412,-2.7918,0.0,-2.8284,-2.8045,-2.7787,-2.777,-2.8003,-2.8388,-2.8132,-2.826,-2.8799,-3.0527,-3.1152,-3.1348,-3.4492,-3.4219,-3.2316,-3.4518,-3.4383,-3.3135,0.0,0.0,0.0,0.0,0.0,0.0,0.0,0.0,0.0,0.0,0.0,0.0,0.0,0.0,0.0,0.0,0.0,0.0,0.0,0.0,-1.0576,-1.0931,-1.17,-1.3024,-1.503,-1.4392,-1.5071,-1.7155,-1.6769,-1.6829,-1.7358,-1.7671,-1.7456,-1.6817,-1.6636,-1.5436,-1.3675,-1.4446,-1.4136,-1.3252,-1.4695,-1.4818,-1.423,-1.4727,-1.4374,-1.3658,-1.3847,0.0,0.0,0.0,0.0,0.0,0.0,0.0,-1.4182,-1.35,-1.4148,-1.5323,-1.6538,-1.7429,-1.875,-2.1912,-2.4902,-2.7195,-2.7771,-2.8055,-2.8007,-2.6992,-2.7123,-2.7493,-2.7785,-2.7141,-2.6646,-2.6646,-2.6296,-2.5874,-2.547,-2.5598,-2.5819,-2.5986,-2.6004,-2.6243,-2.683,-2.6151,-2.5892,-2.6261,-2.5546,-2.519,-2.5363,-2.5633,-2.5788,-2.5837,-2.6546,-2.7079,-2.7375,-2.7641,-2.8194,-2.9,-2.903,-2.8891,-2.8634,-2.7845,-2.771,-2.8077,-2.7655,-2.771,-2.8189,-2.9332,-2.9849,-3.0233,-3.3313,-3.2855,-3.0844,-3.37,-3.3639,-3.2409,0.0,0.0,0.0,0.0,0.0,0.0,0.0,0.0,0.0,0.0,0.0,0.0,0.0,0.0,0.0,0.0,0.0,0.0,0.0,0.0,0.0,-1.1595,-1.1994,-1.302,-1.4791,-1.4268,-1.4974,-1.707,-1.6063,-1.6384,-1.7908,-1.8582,-1.8697,-1.8312,-1.7317,-1.6193,-1.4996,-1.5195,-1.4689,-1.3874,-1.575,-1.6061,-1.5308,-1.5028,-1.4588,-1.4028,-1.3895,-1.3626,-1.3343,-1.3595,0.0,0.0,0.0,0.0,-1.4064,-1.3356,-1.3821,-1.4846,-1.6068,-1.7664,-1.9884,-2.3437,-2.5781,-2.7156,-2.6872,-2.7256,-2.7561,-2.7206,-2.6899,-2.6756,-2.7105,-2.6517,-2.5929,-2.6002,-2.5837,-2.5561,-2.5106,-2.5106,-2.5231,-2.5304,-2.5323,-2.5582,-2.6408,-2.5748,-2.5488,-2.5874,-2.5051,-2.4551,-2.4472,-2.5043,-2.5445,-2.5648,-2.6461,-2.7176,-2.7675,-2.7806,-2.8351,-2.9273,-2.9518,-2.95,-2.9203,-2.8164,-2.7716,-2.7803,-2.7399,-2.7417,-2.7748,-2.8113,-2.8517,-2.9172,-3.1626,-3.1359,-2.9976,-3.2728,-3.2991,-3.2191,0.0,0.0,0.0,0.0,0.0,0.0,0.0,0.0,0.0,0.0,-0.9206,-0.934,0.0,0.0,0.0,0.0,0.0,0.0,0.0,0.0,0.0,-1.1341,-1.1344,-1.2352,-1.4517,-1.3745,-1.4249,-1.6175,-1.6229,-1.7071,-1.8634,-1.8247,-1.8081,-1.8107,-1.722,-1.567,-1.3743,-1.3959,-1.3437,-1.2655,-1.4027,-1.4253,-1.3903,-1.5117,-1.519,-1.4669,-1.4518,-1.4366,-1.4156,-1.3665,-1.3814,0.0,0.0,0.0,-1.373,-1.3438,-1.3735,-1.4543,-1.6211,-1.8711,-2.1327,-2.3379,-2.4648,-2.5849,-2.7246,-2.7414,-2.7377,-2.7634,-2.7314,-2.7011,-2.716,-2.6278,-2.5617,-2.5966,-2.512,-2.4312,-2.3791,-2.4097,-2.4496,-2.4812,-2.4867,-2.5231,-2.6021,-2.5326,-2.5084,-2.547,-2.4372,-2.4251,-2.5521,-2.4361,-2.4438,-2.6129,-2.6212,-2.6873,-2.8117,-2.8727,-2.9558,-3.0463,-2.9985,-2.9569,-2.9143,-2.9415,-2.892,-2.7803,-2.7642,-2.7438,-2.7288,-2.7691,-2.8095,-2.8729,-3.0934,-3.0844,-2.9976,-3.2728,-3.255,-3.106,0.0,0.0,0.0,0.0,0.0,0.0,0.0,0.0,0.0,0.0,0.0,-0.9179,0.0,0.0,0.0,0.0,0.0,0.0,0.0,0.0,0.0,-1.1241,-1.1311,-1.1919,-1.3129,-1.2633,-1.3266,-1.5088,-1.5267,-1.681,-1.9696,-1.9468,-1.9271,-1.9078,-1.8734,-1.7053,-1.4536,-1.479,-1.4356,-1.3602,-1.487,-1.5283,-1.5199,-1.5841,-1.5744,-1.5227,-1.5059,-1.4651,-1.4181,-1.4247,-1.4184,-1.4007,-1.3549,0.0,0.0,0.0,-1.4162,-1.4998,-1.6767,-1.8679,-2.0566,-2.2431,-2.3252,-2.4082,-2.5869,-2.5917,-2.5789,-2.6314,-2.6091,-2.5919,-2.6308,-2.5552,-2.4942,-2.4973,-2.4317,-2.3749,-2.3517,-2.3694,-2.3877,-2.406,-2.4299,-2.4716,-2.5286,-2.4826,-2.4643,-2.5014,-2.4317,-2.4165,-2.4868,-2.43,-2.4571,-2.5927,-2.6044,-2.6729,-2.8017,-2.8371,-2.9125,-3.0305,-3.0553,-3.0388,-2.9829,-2.9928,-2.9172,-2.7803,-2.8464,-2.8276,-2.7601,-2.7948,-2.8223,-2.8674,-3.103,-3.0959,-2.9976,-3.2728,-3.2546,-3.115,0.0,0.0,0.0,0.0,0.0,0.0,0.0,0.0,0.0,0.0,0.0,0.0,0.0,0.0,0.0,0.0,0.0,0.0,0.0,0.0,0.0,-1.0942,-1.1197,-1.1481,-1.1791,-1.1752,-1.2336,-1.3624,-1.403,-1.5992,-1.9331,-2.0017,-2.0275,-2.0118,-2.0259,-1.8668,-1.5922,-1.6118,-1.5551,-1.4546,-1.5601,-1.5784,-1.5493,-1.5754,-1.5664,-1.541,-1.5212,-1.4734,-1.4242,-1.4619,-1.4402,-1.3917,-1.3451,-1.3657,0.0,0.0,0.0,-1.531,-1.6896,-1.8076,-1.9163,-2.0624,-2.1401,-2.2187,-2.3477,-2.3926,-2.4185,-2.4611,-2.4755,-2.4922,-2.512,-2.4759,-2.4418,-2.4349,-2.3969,-2.3657,-2.3517,-2.3499,-2.3499,-2.3499,-2.3822,-2.422,-2.4643,-2.4385,-2.433,-2.4592,-2.4244,-2.4146,-2.4349,-2.4202,-2.4605,-2.581,-2.5886,-2.6577,-2.7875,-2.8048,-2.8669,-2.9829,-3.0512,-3.0622,-3.0224,-3.0475,-2.9685,-2.8197,-2.9031,-2.8861,-2.8005,-2.826,-2.8462,-2.8763,-3.0746,-3.0732,-2.9897,-3.206,-3.196,-3.0831,0.0,0.0,0.0,0.0,0.0,0.0,0.0,0.0,0.0,0.0,0.0,0.0,-0.9822,-0.9891,-0.9912,-1.0047,-1.0372,0.0,0.0,0.0,0.0,-1.0161,-1.0585,0.0,-1.0972,-1.1522,-1.1685,-1.145,-1.2882,-1.4525,-1.6463,-1.8825,-2.0232,-2.0736,-2.1034,-1.9809,-1.7571,-1.7385,-1.6253,-1.463,-1.4988,-1.4297,-1.3096,-1.3963,-1.4626,-1.5017,-1.4732,-1.4651,-1.4626,-1.4411,-1.4327,-1.4129,-1.3285,-1.2995,-1.2965,0.0,0.0,0.0,-1.6098,-1.6912,-1.75,-1.7617,-1.8867,-2.0078,-2.0156,-2.1758,-2.3198,-2.2973,-2.389,-2.4459,-2.3579,-2.3851,-2.433,-2.4735,-2.444,-2.3987,-2.3553,-2.3499,-2.3499,-2.3499,-2.3517,-2.373,-2.4202,-2.422,-2.422,-2.4238,-2.3804,-2.3914,-2.4702,-2.3639,-2.3962,-2.619,-2.5796,-2.6302,-2.7855,-2.8359,-2.8835,-2.9352,-2.9394,-2.9536,-2.9762,-3.135,-3.0994,-2.9144,-2.8913,-2.8681,-2.837,-2.8388,-2.8608,-2.8993,-2.9554,-2.9702,-2.9678,-3.018,-2.9849,-2.9227,0.0,0.0,0.0,0.0,0.0,0.0,0.0,0.0,0.0,0.0,0.0,0.0,0.0,-0.9846,-1.005,-1.0385,-1.0948,0.0,0.0,0.0,0.0,-1.1312,-1.1489,-1.1585,-1.1597,-1.1489,-1.1447,-1.1498,-1.2424,-1.3792,-1.5578,-1.7142,-1.8325,-1.9297,-2.165,-2.0813,-1.7666,-1.7881,-1.6782,-1.4948,-1.5931,-1.5711,-1.4907,-1.5831,-1.6285,-1.6295,-1.5371,-1.534,-1.5619,-1.5018,0.0,0.0,0.0,-1.3525,-1.3943,-1.4008,-1.479,-1.5723,-1.6216,-1.6655,-1.7135,-1.7872,-1.8352,-1.8906,-1.9727,-2.1052,-2.2055,-2.1806,-2.3057,-2.3947,-2.325,-2.3402,-2.3684,-2.3914,-2.3639,-2.3419,-2.348,-2.3499,-2.3499,-2.3499,-2.3785,-2.4036,-2.4183,-2.4202,-2.4202,-2.4202,-2.3692,-2.3673,-2.4385,-2.3618,-2.386,-2.5377,-2.5207,-2.5722,-2.7008,-2.7749,-2.8255,-2.8421,-2.9021,-2.9374,-2.9495,-3.0232,-3.0148,-2.941,-2.9164,-2.8925,-2.8773,-2.8773,-2.9012,-2.9379,-2.9525,-2.9745,-2.9965,-2.9837,-2.9617,-2.9384,0.0,0.0,0.0,0.0,0.0,0.0,0.0,0.0,-0.9643,-0.9877,0.0,0.0,0.0,0.0,-1.02,-1.0577,-1.1178,-1.152,-1.1467,-1.1809,-1.1887,-1.1531,-1.1732,-1.17,-1.1467,-1.1409,-1.1367,-1.1247,-1.1873,-1.2947,-1.4452,-1.5485,-1.6601,-1.7774,-2.0734,-2.08,-1.8691,-1.9275,-1.8546,-1.7001,-1.6916,-1.6818,-1.6722,-1.6797,-1.6912,-1.6971,-1.6779,-1.6462,-1.6163,0.0,0.0,0.0,0.0,-1.3774,-1.4025,-1.4282,-1.5096,-1.5937,-1.6274,-1.6325,-1.6461,-1.7406,-1.7595,-1.7773,-1.8457,-1.9791,-2.0793,-2.039,-2.1679,-2.274,-2.2251,-2.2404,-2.276,-2.34,-2.3279,-2.3151,-2.3279,-2.3407,-2.3499,-2.3499,-2.3895,-2.4202,-2.4202,-2.4202,-2.4202,-2.4202,-2.3802,0.0,-2.4165,-2.3802,-2.3988,-2.4873,-2.5069,-2.5606,-2.6496,-2.7117,-2.7585,-2.7924,-2.8711,-2.9145,-2.9332,-2.9819,-2.9773,-2.93,-2.9296,-2.9143,-2.8792,-2.892,-2.914,-2.9397,-2.9586,-2.9745,-2.9965,-2.9837,-2.969,-2.9525,0.0,0.0,0.0,0.0,0.0,0.0,0.0,0.0,-0.9918,-0.9918,0.0,0.0,0.0,0.0,0.0,-1.0618,-1.0997,-1.0994,-1.0482,-1.0871,-1.0992,-1.0667,0.0,0.0,-1.0455,-1.1323,-1.1413,-1.0613,-1.1219,-1.1963,-1.2893,-1.3992,-1.5156,-1.6386,-1.8272,-1.9658,-2.0636,-2.1506,-2.1451,-2.0564,-1.7823,-1.7318,-1.8034,-1.656,-1.6258,-1.6855,-1.8798,-1.7967,0.0,-1.7634,0.0,0.0,0.0,-1.3562,-1.3079,-1.3568,-1.4524,-1.5547,0.0,0.0,0.0,-1.6026,-1.6426,-1.6609,-1.6242,-1.7983,-1.9467,-1.873,-1.9801,-2.0796,-2.0508,-2.0814,-2.1621,-2.3151,-2.3444,-2.3352,-2.2968,-2.3261,-2.3499,-2.3499,-2.3877,-2.4165,-2.4183,-2.4183,-2.4183,-2.4202,-2.4165,-2.4165,-2.4202,-2.4202,-2.4399,-2.4892,-2.5411,-2.5945,-2.6448,-2.6448,-2.6939,-2.7855,-2.833,-2.8805,-2.926,-3.0243,-3.0012,-2.8891,-2.943,-2.9126,-2.8465,-2.8792,-2.8957,-2.9012,-2.9457,-2.9623,-2.9696,-3.0082,-2.999,-2.9641,0.0,0.0,0.0,0.0,0.0,-1.029,-1.0166,-1.0208,-1.0292,0.0,0.0,0.0,-1.0416,-1.0752,-1.1089,-1.1356,-1.1499,-1.1567,-1.1608,-1.1566,-1.1586,-1.1676,-1.1736,-1.1736,-1.1621,-1.1702,-1.1599,-1.1383,-1.1431,-1.1681,-1.2177,-1.2497,-1.3093,-1.3988,-1.6259,-1.7557,-1.8209,-2.0127,-1.9172,-1.6524,-1.8386,-1.7823,-1.6081,-1.7748,-1.7846,-1.7311,-1.8758,-1.8815,-1.8241,0.0,-1.7512,-1.5754,0.0,-1.306,-1.2967,0.0,0.0,-1.5995,-1.6628,0.0,0.0,0.0,0.0,0.0,-1.7083,-1.8108,-1.8893,-1.811,-1.924,-2.0183,-1.9548,-2.0329,-2.1163,-2.1284,-2.2309,-2.3133,-2.3316,-2.3425,-2.3499,-2.3499,-2.3352,-2.3352,-2.3675,-2.3712,-2.384,0.0,-2.3518,-2.3407,-2.4165,-2.4202,-2.4251,-2.4399,-2.4873,-2.5167,-2.5333,-2.5703,-2.6053,-2.6318,-2.7092,-2.7529,-2.7668,-2.8963,-2.9064,-2.8342,-2.9597,-2.9573,-2.8577,-2.8288,-2.8443,-2.9016,-2.9285,-2.9949,-3.0682,-3.0152,-3.0464,-3.0948,0.0,0.0,0.0,0.0,0.0,-1.0752,-1.0605,-1.0657,-1.0852,0.0,0.0,0.0,-1.1072,-1.1341,-1.1587,-1.1619,-1.184,-1.2061,-1.2205,-1.2164,-1.2219,-1.2398,-1.2268,-1.2219,-1.229,-1.2232,-1.217,-1.215,-1.1941,-1.2069,-1.2425,-1.2171,-1.2335,-1.2946,-1.4658,-1.5667,-1.6204,-1.8374,-1.8778,-1.8041,-1.9364,-1.9461,-1.8936,-2.0101,-1.9944,-1.9338,0.0,0.0,-2.037,-2.0365,-1.8864,0.0,0.0,0.0,0.0,0.0,0.0,0.0,0.0,-1.6999,-1.7285,-1.7592,0.0,0.0,-1.6946,-1.7629,-1.8075,-1.7202,-1.8132,-1.8953,-1.8546,-1.9434,-2.0204,-2.0149,-2.1323,-2.2382,-2.2693,-2.2876,-2.3041,-2.3224,-2.3041,-2.3004,-2.3224,-2.3389,-2.3517,-2.3639,-2.3286,-2.3286,-2.3859,-2.3895,-2.3969,-2.4202,-2.4449,-2.4695,-2.4892,-2.5216,-2.546,-2.5703,-2.6582,-2.7012,-2.7051,-2.8206,-2.8525,-2.8183,-2.9321,-2.9463,-2.8816,-2.8652,-2.8936,-2.9521,-2.9604,-3.0352,-3.1255,-3.0715,-3.112,-3.1773,0.0,0.0,-1.0846,-1.0175,-1.0534,-1.0903,-1.0935,-1.1135,-1.1458,0.0,-1.2353,-1.2403,-1.2075,-1.2067,-1.1957,-1.1628,-1.2123,-1.2431,-1.2396,-1.268,-1.2861,-1.2824,-1.2728,-1.2654,-1.2617,-1.2829,-1.2893,-1.2784,-1.2668,-1.2783,-1.3146,-1.2599,-1.2478,-1.2768,-1.3511,-1.4081,-1.4633,-1.6562,-1.924,-2.2049,-2.0388,-2.1285,-2.3476,-2.2542,-2.1881,-2.1734,-2.3712,-2.3404,-2.2147,-2.2268,-2.014,0.0,0.0,0.0,0.0,0.0,-1.5712,0.0,0.0,0.0,0.0,-1.7905,-1.7773,0.0,-1.6555,-1.694,-1.7263,-1.6462,-1.6924,-1.7509,-1.7636,-1.8341,-1.9031,-1.9366,-2.0387,-2.125,-2.1574,-2.1988,-2.2309,-2.2593,-2.2657,-2.273,-2.2767,-2.3133,-2.3242,-2.2931,-2.3224,-2.3407,-2.337,-2.3407,-2.3639,-2.4055,-2.411,-2.4325,-2.4767,-2.4805,-2.5069,-2.5557,-2.6381,-2.6807,-2.6846,-2.7857,-2.8247,-2.8267,-2.8972,-2.9242,-2.9227,-2.9734,-3.0072,-3.0195,-3.0194,-3.0819,-3.1662,-3.1584,-3.1971,-3.2564,0.0,-1.1073,-1.1458,-1.1099,-1.1286,-1.1599,-1.1734,-1.1674,-1.1689,-1.1902,-1.2087,-1.2344,-1.2726,-1.226,-1.2006,-1.22,-1.2466,-1.2572,-1.2396,-1.2912,-1.3144,-1.2955,-1.2931,-1.2869,-1.2779,-1.3022,-1.3024,-1.2784,-1.2995,-1.2983,-1.2878,-1.2757,-1.2596,-1.2422,-1.322,-1.363,-1.384,-1.5786,-1.7766,-1.9677,-2.0325,-2.0159,-1.9783,-2.1533,-2.1341,-2.0417,-2.2834,-2.3066,-2.2147,-2.1389,-2.0428,-1.903,0.0,0.0,0.0,-1.4898,0.0,0.0,0.0,0.0,0.0,0.0,0.0,0.0,-1.8071,-1.7745,-1.7426,-1.7394,-1.7288,-1.7244,-1.7483,-1.7956,-1.8315,-1.839,-1.9146,-2.0008,-2.0885,-2.1445,-2.1555,-2.0824,-2.1158,-2.1559,-2.1906,-2.2291,-2.262,-2.2895,-2.2968,-2.2876,-2.2529,-2.284,-2.3059,-2.3133,-2.3444,-2.3657,-2.3754,-2.4135,-2.4399,-2.4498,-2.5335,-2.5726,-2.5763,-2.754,-2.8033,-2.7695,-2.9942,-3.0689,-3.0309,-3.1543,-3.1365,-3.0213,-3.0386,-3.1394,-3.2715,-3.1994,-3.2874,-3.4182,-1.0645,-1.1013,-1.1336,-1.1253,-1.1382,-1.1628,-1.222,-1.206,-1.2112,-1.2675,-1.2804,-1.2936,-1.3141,-1.27,-1.2466,-1.2692,-1.2891,-1.3073,-1.3229,-1.3488,-1.362,-1.366,-1.3793,-1.3824,-1.368,-1.4044,-1.4104,-1.3817,-1.3502,-1.3238,-1.3012,-1.2851,-1.273,-1.2611,-1.3145,-1.3844,-1.4721,-1.5823,-1.759,-1.9658,-2.0387,-2.0664,-2.0784,-2.2178,-2.2176,-2.1579,-2.3004,-2.3248,-2.2795,-2.193,-2.1192,0.0,-1.8468,-1.6981,-1.5869,0.0,-1.5309,-1.5084,0.0,0.0,0.0,-1.8203,0.0,0.0,0.0,-1.7575,-1.745,-1.7119,-1.7187,-1.7307,-1.7307,-1.7617,-1.7961,-1.819,-1.8726,-1.9203,-1.9523,-2.0536,-2.1275,-2.1256,-2.1335,-2.142,-2.142,-2.197,-2.2364,-2.2584,-2.2217,-2.2071,-2.2272,-2.2474,-2.2693,-2.2895,-2.3297,-2.3499,-2.3499,-2.395,-2.4301,-2.4548,-2.5163,-2.5727,-2.621,-2.7414,-2.8086,-2.834,-3.0132,-3.0921,-3.1058,-3.2241,-3.2183,-3.1405,-3.132,-3.2064,-3.3187,-3.2738,-3.3432,-3.4493,-1.076,-1.0948,-1.1189,-1.1409,-1.1382,-1.1601,-1.2466,-1.2221,-1.233,-1.336,-1.352,-1.3601,-1.3747,-1.3247,-1.3065,-1.3455,-1.3612,-1.3815,-1.4084,-1.4275,-1.4321,-1.4154,-1.4468,-1.4638,-1.4584,-1.5048,-1.5146,-1.4805,-1.4106,-1.3636,-1.3397,-1.3149,-1.3112,-1.3341,-1.3346,-1.4373,-1.6107,-1.6159,-1.7789,-2.0327,-2.0486,-2.1405,-2.2678,-2.2904,-2.2929,-2.294,-2.3299,-2.3448,-2.3366,-2.2512,-2.1689,-2.0974,-2.0331,-1.8404,0.0,0.0,0.0,0.0,0.0,0.0,0.0,0.0,0.0,-1.8272,0.0,0.0,0.0,-1.6946,-1.7168,-1.7441,-1.7307,-1.7552,-1.7865,-1.8177,-1.8524,0.0,0.0,-1.9523,0.0,-2.1311,-2.1286,-2.1102,-2.0771,-2.15,-2.2006,-2.208,-2.1475,-2.1438,-2.2171,-2.2089,-2.2236,-2.2657,-2.3059,-2.3345,-2.3515,-2.3968,-2.4559,-2.5203,-2.5622,-2.6244,-2.7148,-2.7682,-2.8318,-2.9172,-3.0106,-3.084,-3.1443,-3.225,-3.2587,-3.2685,-3.2126,-3.2561,-3.3492,-3.3327,-3.377,-3.4493,-1.1329,-1.1492,-1.1772,-1.2256,-1.1971,-1.1847,-1.2409,-1.1908,-1.1881,-1.2999,-1.3211,-1.3777,-1.5177,-1.3919,-1.359,-1.5091,-1.5108,-1.482,-1.4249,-1.5349,-1.5301,-1.365,-1.3967,-1.4254,-1.4521,-1.5069,-1.5245,-1.4911,-1.4787,-1.4547,-1.4165,-1.3901,-1.4201,-1.4904,-1.4221,-1.5152,-1.7156,-1.6492,-1.783,-2.0379,-2.0398,-2.1116,-2.218,-2.2236,-2.224,-2.2274,-2.2921,-2.3299,-2.3279,0.0,-2.093,-2.0394,0.0,-1.7517,-1.6003,-1.6224,0.0,0.0,0.0,0.0,0.0,0.0,-1.9141,0.0,0.0,0.0,-1.8052,-1.829,0.0,-1.7525,-1.7837,0.0,0.0,-1.8032,-1.8056,-1.8259,-1.8739,-1.8703,-1.8495,-1.8249,-1.9014,-1.956,-1.9504,-2.0391,-2.1059,-2.1218,-2.1163,-2.131,-2.1742,-2.1456,-2.1438,-2.1815,-2.2217,-2.2815,-2.3655,-2.4051,-2.4927,-2.622,-2.6618,-2.7097,-2.7663,-2.8535,-2.8986,-2.9152,-3.0212,-3.0934,-3.1422,-3.1919,-3.2297,-3.2644,-3.1795,-3.2499,-3.3886,-3.3099,-3.3827,-3.5232,-1.1601,-1.156,-1.1654,-1.2071,-1.1797,-1.1722,-1.2303,-1.2526,-1.2849,-1.3424,-1.3584,-1.4667,-1.7249,-1.6396,-1.6443,-1.8579,-1.8472,-1.8148,-1.773,-1.6892,-1.6308,-1.6067,-1.5731,-1.5538,-1.5528,-1.6429,-1.6726,-1.6332,-1.5896,-1.5636,-1.5442,-1.5142,-1.5316,-1.5863,-1.5267,-1.5901,-1.7458,-1.7206,-1.8138,-1.9758,-2.0395,-2.1001,0.0,-2.1816,-2.2011,-2.2095,-2.2116,-2.2629,-2.2914,0.0,-2.096,0.0,0.0,0.0,0.0,-1.8044,0.0,0.0,0.0,0.0,0.0,0.0,0.0,0.0,-2.0165,0.0,-1.9002,0.0,0.0,0.0,0.0,0.0,0.0,0.0,-1.8008,-1.8013,0.0,0.0,-1.7788,-1.8859,0.0,0.0,-1.9762,-1.9689,-1.976,-2.019,-2.0245,-2.0412,-2.0819,-2.1004,-2.1291,-2.1668,-2.2343,-2.3026,-2.3672,-2.4373,-2.544,-2.6864,-2.7063,-2.7652,-2.8623,-2.9033,-2.9361,-2.9647,-3.0384,-3.0946,-3.1422,-3.1857,-3.2256,-3.2607,-3.2023,-3.2395,-3.3306,-3.3451,-3.3989,-3.4693,-1.2026,-1.1648,-1.1518,-1.2082,-1.1747,-1.1562,-1.2104,-1.3209,-1.4112,-1.4569,-1.4528,-1.5688,-1.8783,-1.7688,-1.7841,-2.0807,-2.0793,-2.0527,-2.0386,-1.8549,-1.758,-1.7772,-1.6587,-1.6214,-1.6809,-1.7496,-1.7721,-1.7564,-1.709,-1.6746,-1.6569,-1.6288,-1.651,-1.7156,-1.6602,-1.7192,-1.859,-1.8175,-1.8768,-2.0027,-2.0515,-2.0916,-2.1216,-2.1655,-2.1907,-2.2057,-2.1717,-2.2169,-2.2505,-2.0015,-2.0837,0.0,-1.9942,0.0,0.0,0.0,0.0,0.0,-1.8857,0.0,0.0,0.0,0.0,0.0,0.0,0.0,0.0,0.0,0.0,0.0,0.0,0.0,0.0,0.0,0.0,-1.7988,0.0,-1.7305,-1.7678,-1.8896,0.0,0.0,0.0,-1.9108,-1.8939,-1.9461,-1.965,-1.9989,-2.0514,-2.1053,-2.1528,-2.2069,-2.2839,-2.353,-2.4137,-2.4871,-2.5968,-2.7406,-2.7528,-2.8196,-2.9311,-2.9435,-2.9684,-3.0015,-3.0346,-3.0822,-3.1402,-3.1733,-3.2209,-3.2649,-3.2297,-3.238,-3.283,-3.3596,-3.4031,-3.4221,-1.2809,-1.1964,-1.1546,-1.2652,-1.2058,-1.153,-1.1873,-1.3755,-1.5529,-1.6548,-1.6148,-1.6771,-1.9499,-1.6668,-1.6347,-2.0644,-2.0923,-2.0874,-2.0805,-2.0206,-1.9196,-1.7603,-1.5379,-1.5424,-1.8092,-1.7622,-1.7556,-1.798,-1.8101,-1.7871,-1.7371,-1.7111,-1.774,-1.918,-1.8391,-1.9279,-2.1219,-1.9309,-1.983,-2.1898,-2.0754,-2.0844,-2.1702,0.0,-2.1907,-2.2087,-2.2069,0.0,0.0,-2.0741,-2.0063,0.0,0.0,0.0,0.0,0.0,0.0,0.0,0.0,0.0,0.0,-1.8684,0.0,0.0,0.0,0.0,-1.9902,0.0,0.0,0.0,0.0,0.0,0.0,0.0,0.0,0.0,0.0,-1.8066,-1.811,-1.6928,-1.7044,0.0,0.0,-1.8575,-1.8863,-1.9279,-1.9869,-2.0541,-2.1384,-2.1731,-2.2266,-2.3018,-2.351,-2.4211,-2.5128,-2.5637,-2.654,-2.7875,-2.833,-2.8835,-2.9311,-2.9766,-2.9973,-2.9994,-3.0015,-3.0532,-3.1381,-3.1402,-3.1919,-3.2669,-3.2649,-3.2669,-3.2789,-3.3223,-3.379,-3.437,-1.3107,-1.2599,-1.2262,-1.2743,-1.2537,-1.2368,-1.2601,-1.399,-1.5778,-1.8025,-1.8662,-2.0713,-2.5465,-2.4499,-2.3967,-2.5055,-2.625,-2.6037,-2.393,-2.2876,-2.2373,-2.2486,-1.9435,-1.8028,-1.8711,-1.8728,-1.8514,-1.7997,-1.8351,-1.8572,-1.8658,-1.8554,-1.8801,-1.9274,-1.8742,-1.8937,-1.9642,-1.9682,-1.9895,-2.0227,-2.0588,-2.1462,-2.2505,0.0,-2.1799,-2.182,-2.182,-2.1998,0.0,-2.0264,-2.0602,-2.1496,-2.0433,-2.0009,-2.0137,-2.1666,-2.1269,0.0,0.0,0.0,-2.2,-2.0776,0.0,0.0,0.0,0.0,0.0,0.0,0.0,0.0,0.0,0.0,0.0,0.0,0.0,0.0,0.0,-1.7637,-1.7754,-1.7564,-1.7628,-1.7837,0.0,0.0,-1.7196,-1.7751,-1.8244,-1.868,-1.8987,-2.0647,-2.185,-2.2481,-2.3602,-2.469,-2.5664,-2.6104,-2.6872,-2.7924,-2.809,-2.8566,-2.9311,-2.9456,-2.9704,-2.9994,-2.9994,-3.0512,-3.1381,-3.1381,-3.1919,-3.2649,-3.2339,-3.2344,-3.2523,-3.3261,-3.3793,-3.4262,-1.3209,-1.2924,-1.2747,-1.3006,-1.2966,-1.3226,-1.4245,-1.537,-1.7483,-2.1303,-2.1725,-2.3547,-2.8478,-2.7806,-2.7217,-2.7834,-2.8192,-2.7843,-2.6563,-2.389,-2.3044,-2.4542,-2.0911,-1.9329,0.0,0.0,0.0,-1.9629,-1.9283,-1.9427,-2.0015,-1.9519,-1.9384,-1.9512,-1.9256,-1.9134,-1.9178,-2.0128,-2.0307,-1.9946,-2.1076,-2.1906,0.0,0.0,-2.1968,-2.2272,0.0,-2.1913,-2.1976,-2.0684,-2.1148,-2.216,-2.1157,-2.1024,-2.1486,-2.2815,-2.2401,-2.1681,-2.2324,-2.2449,0.0,-2.1292,-2.1039,0.0,-2.0619,0.0,0.0,0.0,0.0,0.0,0.0,0.0,0.0,0.0,0.0,0.0,0.0,-1.8027,-1.7988,-1.8418,-1.8115,-1.7852,-1.7731,-1.6728,-1.6227,-1.6664,-1.7243,-1.7726,0.0,0.0,-2.202,-2.2692,-2.4133,-2.5324,-2.6139,-2.6584,-2.7117,-2.7696,-2.7841,-2.8317,-2.9063,-2.9228,-2.9559,-2.9994,-3.018,-3.0677,-3.1381,-3.1547,-3.1961,-3.2401,-3.1917,-3.171,-3.1799,-3.2898,-3.3729,-3.4424,-1.3137,-1.2939,-1.2995,-1.3435,-1.3336,-1.4077,-1.6541,-1.7859,-2.054,-2.6034,-2.524,-2.5451,-2.8839,-2.6994,-2.6409,-2.8595,-2.6855,-2.6425,-2.8369,-2.3548,-2.1662,-2.4087,-2.0217,-1.9445,-2.253,0.0,0.0,0.0,-2.0776,-2.0424,-2.1275,-1.9956,-1.9549,-1.9893,-1.9893,-1.9893,-1.9966,-2.072,-2.1095,-2.1243,-2.2058,-2.2113,-2.1776,-2.177,-2.2497,-2.3334,-2.2126,-2.1925,-2.2199,-2.1815,-2.1687,-2.1833,-2.2602,-2.2346,-2.198,-2.3096,-2.2913,-2.228,-2.2203,-2.1884,-2.1293,-2.0201,0.0,0.0,0.0,0.0,-2.1361,0.0,0.0,0.0,0.0,0.0,0.0,0.0,0.0,0.0,0.0,0.0,-1.8754,-1.9199,-1.8356,-1.7475,-1.6811,-1.6256,-1.5984,-1.6052,-1.6792,-1.7729,0.0,0.0,-2.2533,-2.3493,-2.4977,-2.6016,-2.6558,-2.6993,-2.7268,-2.7309,-2.7717,-2.8173,-2.8628,-2.9083,-2.9559,-3.0015,-3.0491,-3.0946,-3.1422,-3.1857,-3.1988,-3.1993,-3.1451,-3.093,-3.069,-3.2125,-3.3579,-3.4777,-1.3547,-1.3414,-1.344,-1.3548,-1.5057,-1.6474,-1.7173,-2.0009,-2.3437,-2.7253,-2.8511,-3.0095,-3.2969,-3.269,-3.1015,-2.7884,-2.8385,-2.8341,-2.7104,-2.5409,-2.5487,-2.7748,-2.5284,-2.3592,-2.3055,-2.3059,-2.2808,-2.2145,-2.1033,-2.0775,-2.1275,-2.0212,-1.9783,-1.9893,-1.9893,-1.9893,-1.9966,-2.1044,-2.1886,-2.2464,-2.2112,-2.2255,-2.2614,0.0,-2.2497,-2.3334,-2.2126,-2.176,-2.1833,-2.1723,-2.1687,-2.1723,-2.1943,-2.2272,-2.2602,-2.2584,-2.2575,-2.244,-2.1931,-2.1555,-2.1247,-2.0755,-2.0652,-2.0694,0.0,0.0,0.0,0.0,0.0,0.0,0.0,0.0,0.0,0.0,0.0,0.0,0.0,0.0,0.0,-1.8754,-1.8251,-1.7775,-1.7341,-1.6065,-1.54,-1.5782,-1.623,-1.6821,0.0,0.0,0.0,-2.2075,-2.3209,-2.4571,-2.6072,-2.6074,-2.6439,-2.7309,-2.7717,-2.8173,-2.8628,-2.9083,-2.9559,-3.0015,-3.0491,-3.0946,-3.1422,-3.1857,-3.2194,-3.2406,-3.1231,-3.0273,-2.9834,-3.1919,-3.3639,-3.4841,-1.5139,-1.478,-1.4393,-1.3896,-1.7212,-1.986,-1.9586,-2.1486,-2.463,-2.9192,-3.0274,-3.1478,-3.3951,-3.4567,-3.3538,-3.0493,-2.9257,-2.8806,-2.9177,-2.5863,-2.5367,-2.8645,-2.6686,-2.4633,-2.2743,-2.37,0.0,-2.256,-2.129,-2.117,-2.2148,-2.0428,-1.9659,-1.9659,-1.9659,-1.9659,-1.9751,-2.1101,-2.206,-2.2711,-2.2631,-2.277,0.0,-2.229,-2.2423,-2.284,-2.1998,-2.1797,-2.1925,-2.1742,-2.1687,-2.176,-2.2108,-2.2262,-2.2377,-2.272,-2.2357,-2.177,-2.138,-2.1041,-2.0769,-2.0799,-2.1053,-2.1437,-2.1833,-2.1972,-2.2122,0.0,0.0,0.0,0.0,0.0,0.0,0.0,0.0,0.0,0.0,0.0,0.0,0.0,-1.8971,-1.8614,-1.7602,-1.5864,-1.4986,-1.5368,-1.5811,0.0,0.0,0.0,0.0,-2.1603,-2.3276,-2.4703,-2.5859,-2.6094,-2.6656,-2.7407,-2.7654,-2.8177,-2.8918,-2.9187,-2.9663,-3.0325,-3.0781,-3.1257,-3.1692,-3.1884,-3.2085,-3.1993,-3.0339,-2.9834,-3.0168,-3.1051,-3.2483,-3.4024,-1.7122,-1.6354,-1.5532,-1.4683,-1.9047,-2.2719,-2.2985,-2.3541,-2.594,-3.161,-3.1643,-3.1836,-3.3646,-3.4486,-3.4674,-3.3959,-2.9874,-2.8821,-3.2275,-2.6151,-2.4261,-2.8351,-2.668,-2.4697,-2.2687,-2.3918,-2.4289,0.0,-2.1801,-2.1717,-2.3236,-2.0667,-1.9439,-1.9384,-1.9384,-1.9476,-1.9696,-2.1059,-2.1923,-2.2447,-2.3233,-2.3252,-2.2815,-2.2569,-2.2415,-2.2309,-2.198,-2.1998,-2.2144,-2.1815,-2.1642,-2.1725,-2.2529,-2.2157,-2.1753,-2.2917,-2.2179,-2.0955,-2.0928,-2.056,-2.0287,-2.076,-2.1479,-2.2286,-2.3084,-2.3137,-2.3236,-2.3964,-2.345,-2.2886,0.0,0.0,0.0,0.0,0.0,0.0,0.0,0.0,0.0,0.0,0.0,0.0,-1.765,-1.5886,-1.4897,-1.5096,0.0,0.0,0.0,0.0,0.0,-2.1431,-2.3707,-2.5185,-2.5866,0.0,-2.7138,-2.7815,-2.7705,-2.8263,-2.9311,-2.9373,-2.9776,-3.0508,-3.1153,-3.1512,-3.1711,-3.1926,-3.1746,-3.1195,-2.937,-2.9596,-3.0752,-2.9989,-3.0808,-3.2532,-1.794,-1.6623,-1.5908,-1.6832,-1.8566,-2.1378,-2.6039,-2.9763,-3.2601,-3.4095,-3.5087,-3.5804,-3.6141,-3.5997,-3.5021,-3.2937,-3.1413,-3.0816,-3.1436,0.0,0.0,-3.0288,-2.9917,-2.8431,-2.571,-2.633,-2.6335,-2.569,-2.3546,-2.278,-2.3256,-2.1208,-2.0136,-1.9783,-1.9783,-2.0332,-2.1291,-2.131,0.0,-2.2903,-2.3024,-2.2836,-2.2501,-2.2723,-2.2823,-2.2785,-2.2712,-2.2309,-2.1778,-2.1705,-2.1463,-2.1212,-2.1717,-2.1771,-2.1657,-2.1917,-2.1949,-2.1731,-2.1126,-2.0746,-2.0679,-2.1462,-2.1485,-2.17,-2.3279,-2.3198,-2.3022,-2.3513,-2.3493,-2.3466,-2.3795,0.0,0.0,0.0,0.0,0.0,0.0,0.0,0.0,0.0,0.0,-1.8764,0.0,0.0,0.0,0.0,0.0,0.0,0.0,0.0,0.0,0.0,-2.1332,0.0,0.0,0.0,-2.6272,-2.9012,-2.8368,-2.8521,-2.9311,-2.9704,-2.9691,-2.9452,-3.0792,-3.0922,-3.0261,-3.1511,-3.1738,-3.1239,-3.0064,-2.958,-2.9526,-2.965,-2.9945,-3.0458,-1.9385,-1.7493,-1.6314,-1.7508,-2.062,-2.4081,-2.7332,-3.2631,-3.5852,-3.494,-3.5335,-3.5749,-3.5749,-3.6183,-3.5783,-3.4153,-3.2611,-3.2118,-3.3013,-3.0994,-3.0276,-3.1191,-3.0739,-2.8942,-2.5555,-2.6431,-2.628,-2.4972,-2.3357,-2.2853,-2.3349,-2.0978,-1.9897,-1.9893,-1.9893,-2.0332,-2.1126,0.0,0.0,-2.2667,-2.3364,-2.3364,-2.3001,-2.3154,-2.3206,-2.3187,-2.3109,-2.2788,-2.2314,-2.1953,-2.1446,-2.1077,-2.1399,-2.1366,-2.1241,-2.1552,-2.1536,-2.1369,-2.1066,-2.087,-2.0891,-2.1682,-2.224,-2.2701,-2.335,-2.3789,-2.3915,-2.3593,-2.3493,-2.3363,-2.2843,-2.1997,0.0,0.0,0.0,0.0,0.0,0.0,0.0,0.0,0.0,0.0,0.0,0.0,0.0,0.0,0.0,0.0,0.0,0.0,0.0,0.0,0.0,0.0,0.0,0.0,0.0,-2.8736,-2.833,-2.8436,-2.9026,-2.8761,-2.855,-2.8432,-2.9306,-2.9679,-2.9829,-3.1119,-3.1804,-3.1862,-3.0161,-2.9908,-3.0353,-2.9297,-2.9484,-3.0483,-2.1593,-1.9833,-1.8863,-2.0065,-2.4008,-2.7524,-2.9106,-3.3906,-3.6926,-3.5707,-3.5542,-3.5542,-3.5542,-3.637,-3.6472,-3.5314,-3.3811,-3.3186,-3.3777,-3.2033,-3.1115,-3.1399,-3.0976,-2.9048,-2.538,-2.6199,-2.5827,-2.4103,-2.296,-2.2802,-2.3486,-2.0969,-1.9897,-2.0021,0.0,0.0,0.0,0.0,-2.2547,-2.262,-2.3779,-2.3859,-2.337,-2.3462,-2.3499,-2.351,-2.3558,-2.3392,-2.3083,-2.2593,-2.1843,-2.1113,-2.1338,-2.12,-2.0979,-2.1494,-2.1391,-2.1159,-2.1255,-2.107,-2.1096,-2.218,-2.3084,-2.3749,-2.368,-2.4451,-2.4826,-2.3783,-2.3652,-2.335,-2.2198,-2.18,0.0,0.0,0.0,0.0,0.0,0.0,0.0,0.0,0.0,0.0,-1.8799,0.0,0.0,0.0,0.0,0.0,-1.6795,0.0,0.0,0.0,0.0,-2.375,-2.5451,0.0,-2.7743,-2.8533,-2.8209,-2.8212,-2.8478,-2.759,-2.7233,-2.7266,-2.7771,-2.8644,-2.9774,-3.0939,-3.1958,-3.2601,-3.0451,-3.0449,-3.1471,-2.9168,-2.9195,-3.057,-2.4889,-2.5289,-2.6274,-2.8022,-2.8239,-2.9501,-3.3564,-3.4413,-3.5457,-3.762,-3.786,-3.786,-3.786,-3.7612,-3.6694,-3.4857,-3.5331,-3.4289,-3.0932,-3.3336,-3.3538,-3.0526,-3.162,-3.0792,-2.7672,-2.6968,-2.6121,0.0,-2.3834,-2.3373,0.0,-2.2158,0.0,0.0,0.0,0.0,0.0,-2.3023,-2.337,-2.3425,-2.3999,-2.3694,-2.3004,-2.3352,-2.3499,-2.3584,-2.4159,-2.4156,-2.3821,-2.3802,-2.2695,-2.132,-2.1733,-2.1554,-2.1316,-2.1581,-2.1907,-2.2181,-2.219,-2.1617,-2.1482,-2.3656,-2.3645,-2.3486,-2.4747,-2.4945,-2.471,-2.3941,-2.4083,-2.4179,-2.366,-2.2761,-2.1658,0.0,0.0,0.0,0.0,0.0,0.0,-1.9601,0.0,0.0,-1.9164,-1.8318,-1.7384,-1.6353,-1.6392,0.0,0.0,0.0,0.0,-2.1024,0.0,-2.2033,-2.631,-2.6079,-2.7136,-2.9668,-2.8466,-2.7795,-2.7495,-2.6898,-2.6318,-2.586,-2.7124,-2.8569,-3.0131,-3.0963,-3.2102,-3.3173,-3.1556,-3.1285,-3.1508,-2.9485,-2.8832,-2.9193,-2.7571,-2.6824,-2.6828,-2.884,-2.9971,-3.1423,-3.3908,-3.5581,-3.7038,-3.8083,-3.8191,-3.8191,-3.8191,-3.8026,-3.7401,-3.6031,-3.6305,-3.5623,-3.3497,-3.4473,-3.4289,-3.2475,-3.2256,-3.1405,-2.977,-2.8153,-2.7116,0.0,0.0,0.0,0.0,0.0,0.0,0.0,0.0,-2.2731,-2.3059,-2.3932,-2.428,-2.4317,-2.4771,-2.439,-2.3694,-2.3859,-2.3767,-2.3529,-2.3599,-2.3738,-2.3956,-2.3821,-2.3128,-2.2373,-2.2519,-2.2574,-2.2555,-2.2502,-2.3037,-2.3537,-2.3241,-2.3129,-2.3393,-2.4591,-2.4842,-2.4796,-2.472,-2.5199,-2.5326,-2.3939,-2.3647,-2.3486,-2.3022,-2.2675,-2.2188,0.0,0.0,0.0,0.0,0.0,0.0,0.0,0.0,-1.9709,0.0,-1.9093,-1.8092,-1.8101,0.0,0.0,0.0,0.0,0.0,-2.0838,0.0,-2.3518,-2.6506,-2.721,-2.8114,-2.934,-2.8431,-2.7676,-2.6991,-2.5579,-2.5009,-2.5233,-2.6593,-2.7899,-2.9203,-3.0918,-3.1663,-3.1663,-3.106,-3.0864,-3.0673,-2.9066,-2.8717,-2.9176,-3.0532,-2.9621,-2.9487,-3.1232,-3.2838,-3.4104,-3.4668,-3.6674,-3.8088,-3.7819,-3.8026,-3.8191,-3.8191,-3.8191,-3.7691,-3.6509,-3.6658,-3.6056,-3.4289,-3.4635,-3.4369,-3.3052,-3.2495,0.0,-3.0665,-2.8968,-2.7864,-2.7283,-2.5451,0.0,0.0,0.0,0.0,0.0,-2.3356,-2.3816,-2.3969,-2.4776,-2.5051,-2.4977,-2.5304,-2.501,-2.4367,-2.406,-2.3785,-2.3444,-2.3136,-2.3514,-2.4181,-2.4012,-2.3993,-2.3937,-2.3504,-2.3542,-2.373,-2.3523,-2.3954,-2.447,-2.419,-2.4253,-2.4538,-2.5285,-2.5671,-2.5732,-2.4967,-2.5518,-2.5765,-2.4198,-2.3767,-2.3511,-2.2909,-2.2858,-2.27,-2.1933,0.0,0.0,0.0,0.0,0.0,0.0,-2.0136,-1.9857,-2.1048,-1.9552,-1.87,-1.9123,0.0,0.0,0.0,0.0,0.0,0.0,0.0,0.0,0.0,-2.7597,-2.8522,-2.9066,-2.8394,-2.7381,-2.6175,-2.4748,-2.4547,-2.5317,-2.6451,-2.7511,-2.859,-3.0477,-3.106,-3.0717,-3.0588,-3.0445,-3.0185,-2.8945,-2.8785,-2.9179,-3.3862,-3.4984,-3.6265,-3.7195,-3.7819,-3.7839,-3.6864,-3.7591,-3.786,-3.6949,-3.7612,-3.8191,-3.8191,-3.8191,-3.7435,-3.5483,-3.6216,-3.5204,-3.1461,-3.3556,-3.3778,0.0,0.0,-3.1878,-3.0019,-2.9146,-2.8164,-2.7215,0.0,0.0,-2.4808,0.0,-2.4362,-2.422,-2.5284,-2.5381,-2.4812,-2.5672,-2.5764,-2.5362,-2.5414,-2.5176,-2.4684,-2.3859,-2.3499,-2.3444,-2.3136,-2.3749,-2.4726,-2.4746,-2.5543,-2.6204,-2.4746,-2.4469,-2.4677,-2.4504,-2.4586,-2.4774,-2.5011,-2.4606,-2.4442,-2.5777,-2.5992,-2.5859,-2.5812,-2.602,-2.5869,-2.4751,-2.4796,-2.4808,-2.3951,-2.3738,-2.3078,-2.1226,0.0,0.0,0.0,0.0,0.0,0.0,-1.9527,-1.9675,-2.0345,-1.9567,0.0,0.0,0.0,0.0,0.0,0.0,0.0,-1.9858,-1.9478,0.0,-2.5791,-2.6653,-2.7728,-2.9,-2.8258,-2.6839,-2.4812,-2.4647,-2.5133,-2.6109,-2.6867,-2.7704,-2.8535,-2.9372,-3.0254,-3.1049,-3.0526,-3.0311,-3.0239,-2.9535,-2.9076,-2.8837,-3.2649,-3.4629,-3.6467,-3.6107,-3.7192,-3.8088,-3.7798,-3.8005,-3.8088,-3.7777,-3.8005,-3.8191,-3.8191,-3.8191,-3.7815,0.0,-3.5883,-3.5062,0.0,-3.3595,-3.317,-3.3349,-3.2525,-3.1593,-3.0794,-2.9466,-2.8351,-2.7493,0.0,0.0,0.0,-2.4579,-2.4194,-2.4412,-2.5055,-2.5182,-2.5039,-2.6008,-2.6316,-2.6206,-2.6206,-2.5949,-2.5543,-2.4702,-2.4207,-2.3926,-2.3418,-2.3909,-2.4726,-2.4916,-2.598,-2.7163,-2.6709,-2.662,-2.6649,-2.6432,-2.6617,-2.6814,-2.6592,-2.6416,-2.6229,-2.6127,-2.6088,-2.5873,-2.5344,-2.5625,-2.5995,-2.5642,-2.5932,-2.5983,-2.5113,-2.4781,-2.4121,-2.2452,-2.2509,0.0,0.0,0.0,0.0,0.0,-2.0548,-2.0445,-2.1399,-2.0342,0.0,0.0,0.0,0.0,0.0,0.0,0.0,0.0,-2.3672,0.0,-2.7683,-2.8648,-2.9137,-2.9058,-2.8163,-2.6744,-2.4952,-2.5436,-2.6064,-2.6895,-2.7272,-2.7597,-2.8018,-2.9189,-2.9305,-2.8782,-2.9339,-2.9244,-2.8818,-2.8621,-2.8648,-2.8837,-3.401,-3.5567,-3.692,-3.6476,-3.7381,-3.8067,-3.7715,-3.7964,-3.8067,-3.7715,-3.7964,-3.8191,-3.8191,-3.8191,0.0,-3.7777,-3.6626,-3.5986,-3.6179,-3.4564,-3.3766,-3.4153,-3.2959,-3.2082,-3.175,-3.0483,0.0,-2.8918,-2.7846,-2.7142,-2.6664,-2.5287,-2.4861,-2.5218,-2.5648,-2.5684,-2.5414,-2.6409,-2.6719,-2.6591,-2.6591,-2.6426,-2.6168,-2.5307,-2.4891,-2.461,-2.3887,-2.4259,-2.5173,-2.5302,-2.6363,-2.7574,-2.7638,-2.7652,-2.7603,-2.7711,-2.7848,-2.7976,-2.7798,-2.757,-2.727,-2.6786,-2.6617,-2.638,-2.58,-2.5918,-2.6163,-2.6,-2.6355,-2.6483,-2.5859,-2.5411,-2.48,-2.3809,-2.3717,-2.34,-2.2446,0.0,0.0,0.0,0.0,0.0,0.0,-2.1448,-2.1046,0.0,0.0,0.0,0.0,0.0,0.0,-2.2408,-2.4764,0.0,-2.8697,-2.8965,-2.905,-2.8853,-2.7566,-2.6514,-2.5661,-2.6342,-2.7013,-2.7594,-2.7918,-2.7878,-2.7683,-2.8526,-2.8368,-2.7665,-2.8342,-2.8464,-2.822,-2.8357,-2.8563,-2.8837,-3.715,-3.7463,-3.7715,0.0,-3.8233,0.0,-3.7074,-3.7653,-3.7881,-3.7011,-3.7587,-3.8104,-3.8104,-3.8058,-3.8037,-3.8037,0.0,0.0,0.0,-3.5735,-3.5012,-3.3898,-3.3443,-3.3082,-3.2754,-3.1914,-3.1286,-3.0988,-2.8785,-2.7753,-2.7783,-2.6591,-2.6118,-2.6412,-2.6918,-2.6663,-2.5896,-2.6828,-2.6995,-2.6682,-2.6646,-2.6646,-2.6499,-2.5764,-2.5521,-2.5478,-2.4519,-2.5005,-2.6013,-2.5954,-2.6683,-2.7618,-2.7794,-2.7756,-2.7806,-2.834,-2.8348,-2.8248,-2.8448,-2.8119,-2.7623,-2.7574,-2.7413,-2.7201,-2.6934,-2.6762,-2.6516,-2.6094,-2.6355,-2.6592,-2.6404,-2.5776,-2.5318,-2.52,-2.4386,-2.359,-2.2973,0.0,0.0,0.0,0.0,0.0,0.0,-2.2775,-2.2644,0.0,0.0,0.0,0.0,0.0,-2.0827,-2.2428,-2.3657,-2.5748,-2.8847,-2.8052,-2.7905,-2.8416,-2.6747,-2.6177,-2.6665,-2.7373,-2.7899,-2.822,-2.858,-2.8306,-2.7604,-2.7604,-2.7604,-2.7604,-2.7569,-2.7826,-2.8237,-2.8597,-2.8751,-2.8837,0.0,0.0,-3.8274,-3.763,-3.8126,-3.8538,-3.8331,-3.8253,-3.8109,-3.7881,-3.756,-3.7348,-3.7348,-3.6876,-3.6539,-3.6539,-3.5693,-3.5156,-3.508,-3.3386,-3.2714,-3.3481,-3.2883,-3.237,-3.198,-3.1477,-3.0734,-2.9896,-2.893,-2.842,-2.8223,-2.6857,-2.6583,-2.7128,-2.6588,-2.6699,-2.7304,-2.7362,-2.7378,-2.7308,-2.7011,-2.6791,-2.6536,-2.6076,-2.6117,-2.647,-2.6333,-2.6743,-2.7361,-2.7582,-2.8076,-2.8564,-2.8389,-2.8349,-2.8344,-2.7982,-2.7946,-2.803,-2.7895,-2.8087,-2.8143,-2.7341,-2.7111,-2.7032,-2.6981,-2.7511,-2.8036,-2.8137,-2.8249,-2.831,-2.8288,-2.7301,-2.6377,-2.5932,-2.4703,-2.3326,-2.198,-2.1733,0.0,0.0,-2.1521,-2.2626,-2.2542,-2.3307,-2.4075,0.0,0.0,0.0,0.0,-2.3338,-2.3943,-2.4371,-2.7436,-2.8946,-2.8741,-2.9144,-2.8742,-2.7505,-2.6749,-2.661,-2.7029,-2.7412,-2.7849,-2.8203,-2.8289,-2.8049,-2.7604,-2.7604,-2.7604,-2.7569,-2.7313,-2.7604,-2.8203,-2.8289,-2.8528,-2.8837,-3.6248,-3.7427,-3.8341,-3.778,-3.8186,-3.8543,-3.8543,-3.8336,-3.8058,-3.777,-3.7348,-3.6944,-3.6654,-3.6248,-3.584,-3.5519,-3.5393,-3.5144,-3.4726,-3.37,-3.3213,-3.3374,-3.3184,-3.3011,-3.2962,-3.2352,-3.1306,-2.9922,-2.9519,-2.9056,-2.8645,-2.7734,-2.7323,-2.7427,-2.7173,-2.7287,-2.7596,-2.7548,-2.7509,-2.7548,-2.7048,-2.6736,-2.6554,-2.6388,-2.6489,-2.6812,-2.7176,-2.7665,-2.8146,-2.8522,-2.8938,-2.929,-2.9066,-2.8726,-2.8372,-2.7815,-2.7949,-2.8058,-2.7651,-2.8101,-2.8545,-2.8085,-2.7887,-2.7839,-2.7934,-2.8505,-2.8999,-2.9155,-2.9147,-2.9137,-2.9394,-2.8041,-2.6866,-2.6806,-2.4782,-2.3022,-2.2445,-2.1423,0.0,-2.0864,-2.2065,-2.3104,-2.3709,-2.4306,-2.4899,-2.5514,-2.4688,0.0,-2.4585,-2.5923,-2.6517,-2.5977,-2.8265,-2.9476,-2.958,-2.8968,-2.8066,-2.6883,-2.6814,-2.6953,-2.733,-2.7706,-2.8043,-2.8438,-2.8438,-2.8379,-2.8296,-2.7998,-2.7868,-2.7771,-2.7459,-2.7569,-2.7963,-2.8323,-2.8597,-2.8837,-3.8316,-3.8502,-3.8564,-3.8502,-3.8481,-3.844,-3.8316,-3.8295,-3.7986,-3.7233,-3.7011,-3.6674,-3.5908,-3.5704,-3.5451,-3.4784,-3.564,-3.5743,-3.4456,-3.4716,-3.4367,-3.3287,-3.3544,-3.3922,-3.4235,-3.3375,-3.2078,-3.0333,-3.0039,-2.9509,-2.8856,-2.8513,-2.8115,-2.7682,-2.8024,-2.8066,-2.7797,-2.7679,-2.7642,-2.7642,-2.6921,-2.6646,-2.6591,-2.6591,-2.6677,-2.6892,-2.7472,-2.814,-2.875,-2.9112,-2.9534,-2.9902,-2.9731,-2.9028,-2.8183,-2.79,-2.7977,-2.8047,-2.745,-2.8057,-2.8906,-2.9039,-2.9051,-2.9027,-2.9252,-2.9439,-2.9619,-2.9778,-2.962,-2.9591,-2.9962,-2.8419,-2.7138,-2.7313,-2.474,-2.2804,-2.3032,0.0,-2.0771,-2.247,-2.2748,-2.3481,-2.5112,-2.5315,-2.5496,-2.5886,-2.6146,-2.6224,-2.6203,-2.7765,-2.8195,-2.7134,-2.7801,-2.882,-3.0156,-2.8118,-2.69,-2.6576,-2.697,-2.7313,-2.7621,-2.8077,-2.8438,-2.8689,-2.8804,-2.8993,-2.9172,-2.8579,-2.828,-2.8052,-2.7858,-2.7751,-2.7775,-2.8511,-2.8854,-2.8991,-3.9241,-3.9951,-4.0344,-3.9951,-3.9868,-3.962,-3.8854,-3.8683,-3.8335,-3.7274,-3.6539,-3.5908,-3.5177,-3.449,-3.4094,-3.3955,-3.4149,-3.3866,-3.2977,-3.2662,-3.2534,-3.2568,-3.2848,-3.3228,-3.3544,-3.2782,-3.1558,-2.9981,-2.9922,-2.9272,-2.814,-2.8337,-2.8396,-2.8354,-2.821,-2.8668,-2.9423,-2.8408,-2.8033,-2.8052,-2.7251,-2.6791,-2.6591,-2.6591,-2.6862,-2.7381,-2.797,-2.8793,-2.9615,-2.9675,-3.016,-3.0634,-3.0107,-2.9261,-2.8344,-2.7864,-2.7397,-2.7029,-2.69,-2.7939,-2.9063,-2.9116,-2.9447,-2.9904,-3.0203,-3.0093,-3.0169,-3.0936,-3.0532,-3.0064,-3.0158,-2.8827,-2.7352,-2.626,-2.4551,-2.2872,-2.1427,0.0,-2.2099,-2.167,-2.3425,-2.4721,-2.4774,-2.5386,-2.6228,-2.7364,-2.6844,-2.6643,-2.71,-2.766,-2.7735,-2.7284,-2.8407,-2.8782,-2.8217,-2.7129,-2.6712,-2.6987,-2.7347,-2.7552,-2.7621,-2.831,-2.8672,-2.8752,-2.9337,-2.9492,-2.9226,-2.9411,-2.894,-2.8149,-2.84,-2.8334,-2.8152,-2.8614,-2.9179,-2.9727,-3.9426,-3.9661,-3.9723,-3.9495,-3.9268,-3.8978,-3.8564,-3.8502,-3.7995,-3.6694,-3.618,-3.5568,-3.4439,-3.4024,-3.3817,-3.3817,-3.3615,-3.3248,-3.2625,-3.2622,-3.2431,-3.214,-3.2613,-3.3068,-3.3336,-3.2787,-3.1836,-3.0481,-3.0094,-2.945,-2.8558,-2.8674,-2.8751,-2.876,-2.8584,-2.889,-2.9335,-2.8293,-2.7807,-2.7653,-2.7049,-2.6646,-2.6354,-2.6537,-2.6736,-2.7154,-2.8284,-2.9124,-2.9813,-3.055,-3.1025,-3.1277,-3.0844,-2.9904,-2.8879,-2.8427,-2.7076,-2.5918,-2.6858,-2.7638,-2.8306,-2.8932,-2.9616,-3.0178,-3.0399,-3.0529,-3.0598,-3.071,-3.0883,-3.0852,-3.048,-2.9318,-2.8147,-2.715,-2.4675,0.0,0.0,-2.1723,-2.1808,-2.2034,-2.3909,-2.5201,-2.5293,-2.5805,-2.6552,-2.7425,-2.7322,-2.7471,-2.8097,-2.8152,-2.8129,-2.798,-2.8513,-2.8369,-2.7456,-2.7038,-2.6987,-2.7364,-2.7535,-2.7723,-2.7929,-2.8477,-2.892,-2.932,-2.9814,-3.0049,-3.0076,-2.9834,-2.9306,-2.864,-2.8674,-2.8442,-2.8265,-2.9073,-2.947,-2.9641,-3.953,-3.9219,-3.8904,-3.8972,-3.8812,-3.8543,-3.8233,-3.814,-3.7604,-3.62,-3.5918,-3.5341,-3.3955,-3.389,-3.3908,-3.3817,-3.3541,-3.3193,-3.2771,-3.291,-3.2636,-3.1947,-3.2485,-3.2845,-3.304,-3.2664,-3.199,-3.0888,-3.0284,-2.9543,-2.8797,-2.9035,-2.9153,-2.9016,-2.9154,-2.9191,-2.9039,-2.8244,-2.7667,-2.714,-2.6688,-2.6256,-2.5916,-2.6354,-2.6555,-2.6774,-2.8432,-2.9297,-2.9797,-3.0963,-3.1455,-3.1563,-3.1381,-3.0295,-2.907,-2.8821,-2.711,-2.5574,-2.6743,-2.7329,-2.7771,-2.8766,-2.9643,-3.0339,-3.0616,-3.0886,-3.096,-3.0519,-3.0841,-3.0987,-3.0429,-2.9621,-2.8681,-2.7538,0.0,0.0,0.0,-2.1804,-2.1796,-2.31,-2.4429,-2.5475,-2.6065,-2.636,-2.6743,-2.7239,-2.7623,-2.802,-2.8509,-2.8385,-2.8271,-2.8241,-2.8241,-2.79,-2.7133,-2.7219,-2.7391,-2.7604,-2.7792,-2.8032,-2.834,-2.8789,-2.9246,-2.9821,-3.0157,-3.0438,-3.0626,-3.0065,-2.957,-2.9213,-2.9065,-2.8769,-2.8609,-2.9567,-2.9813,-2.9795,-3.9865,-3.9597,-3.9149,-3.9433,-3.9736,-3.9661,-3.8378,-3.7983,-3.7405,-3.6171,-3.5709,-3.5129,-3.3923,-3.4147,-3.4202,-3.3853,-3.378,-3.3596,-3.3211,-3.2808,-3.2438,-3.1883,-3.223,-3.2422,-3.2378,-3.2028,-3.1423,-3.0607,-3.0287,-2.942,-2.808,-2.9272,-2.949,-2.8979,-3.0139,-3.0158,-2.9335,-2.8907,-2.8056,-2.6889,-2.614,-2.5643,-2.5311,-2.6069,-2.6323,-2.6545,-2.8426,-2.9327,-2.9685,-3.0399,-3.0806,-3.1035,-3.1239,-3.0057,-2.8586,-2.8709,-2.7803,-2.6637,-2.6312,-2.7036,-2.8068,-2.8602,-2.9563,-3.0548,-3.1333,-3.1177,-3.0915,-3.1111,-3.0519,-2.9867,-2.9545,-2.9396,-2.8514,-2.592,0.0,0.0,-2.2852,-2.2533,-2.3152,-2.5005,-2.5314,-2.5812,-2.691,-2.703,-2.7185,-2.7511,-2.7624,-2.7641,-2.7702,-2.7675,-2.7643,-2.7581,-2.7581,-2.7401,-2.7073,-2.7721,-2.7895,-2.7621,-2.834,-2.8717,-2.8751,-2.9448,-2.9754,-2.9821,-3.0157,-3.0275,-3.0241,-3.0204,-2.9981,-2.9671,-2.9689,-2.9725,-2.9687,-2.9843,-3.0326,-3.0891,-4.0418,-4.0176,-3.9698,-3.9502,-3.9385,-3.9102,-3.8316,-3.7712,-3.7057,-3.6132,-3.5517,-3.4909,-3.4235,-3.4092,-3.4073,-3.4165,-3.3945,-3.3651,-3.3248,-3.2826,-3.2372,-3.1883,-3.1795,-3.1954,-3.2365,-3.1745,-3.1186,-3.0639,-3.0274,-2.993,-2.9642,-2.9799,-3.0113,-3.0501,-3.1053,-3.0445,-2.9153,-2.9227,-2.8246,-2.662,-2.6347,-2.6013,-2.5686,-2.6338,-2.6619,-2.6843,-2.8614,-2.939,-2.978,-3.0943,-3.1358,-3.1299,-3.1299,-3.0389,-2.9144,-2.8181,-2.7719,-2.7432,-2.7105,-2.7582,-2.8296,-2.87,-2.9348,-3.0065,-3.0644,-3.082,-3.072,-3.0199,-3.0878,-3.1289,-3.0509,-3.0977,-3.0934,-2.9349,0.0,-2.7012,-2.6028,-2.5361,-2.5388,-2.6561,-2.6528,-2.6689,-2.7349,-2.7583,-2.7712,-2.7586,-2.7789,-2.7789,-2.7604,-2.7398,-2.7331,-2.7521,-2.7702,-2.7764,-2.7721,-2.7983,-2.8172,-2.834,-2.8631,-2.8888,-2.9111,-2.9557,-2.9807,-2.9821,-3.0157,-3.0111,-2.9819,-2.9819,-2.9635,-2.9382,-2.9653,-2.9766,-2.9878,-3.041,-3.0772,-3.1046,-4.0625,-4.035,-3.9798,-3.9571,-3.9199,-3.8718,-3.8007,-3.7213,-3.6471,-3.5772,-3.5154,-3.4613,-3.4272,-3.4202,-3.4257,-3.4385,-3.4275,-3.4018,-3.3615,-3.2973,-3.2372,-3.1754,-3.1503,-3.1556,-3.2023,-3.1396,-3.0859,-3.0493,-3.0283,-3.0195,-3.0306,-3.0515,-3.099,-3.168,-3.2157,-3.1267,-2.9535,-2.9795,-2.8607,-2.6491,-2.6431,-2.6209,-2.6001,-2.6626,-2.6911,-2.7196,-2.8698,-2.9279,-2.9543,-3.0894,-3.1043,-3.0721,-3.1088,-3.0393,-2.9182,-2.7791,-2.7661,-2.7884,-2.7712,-2.7967,-2.8323,-2.8655,-2.8997,-2.9427,-3.0062,-3.0403,-3.0414,-2.9721,-3.0555,-3.1264,-3.0683,-3.1283,-3.16,-3.0693,-2.967,-2.8612,-2.7545,-2.6927,-2.68,-2.7405,-2.7316,-2.7347,-2.773,-2.7965,-2.8095,-2.8133,-2.8296,-2.834,-2.8151,-2.7683,-2.7599,-2.8009,-2.827,-2.8447,-2.8649,-2.8482,-2.8557,-2.8785,-2.8888,-2.9076,-2.9316,-2.9699,-2.9735,-2.9648,-3.0091,-3.0014,-2.9623,-2.9617,-2.9544,-2.9465,-2.9644,-2.9924,-3.0261,-3.0823,-3.1097,-3.1217,-4.0462,-3.991,-3.9198,-3.9474,-3.9468,-3.8952,-3.7355,-3.6451,-3.5704,-3.499,-3.4636,-3.4257,-3.3872,-3.455,-3.4862,-3.444,-3.4788,-3.4844,-3.4422,-3.3266,-3.2239,-3.1414,-3.1377,-3.1386,-3.1295,-3.0962,-3.0574,-3.0083,-3.0187,-2.9984,-2.9641,-3.1328,-3.2088,-3.2148,-3.3535,-3.2794,-3.0569,-3.0648,-2.9025,-2.6491,-2.6211,-2.6092,-2.6093,-2.6748,-2.7182,-2.7605,-2.8651,-2.8895,-2.8948,-3.0004,-2.9584,-2.8861,-3.0393,-2.991,-2.8584,-2.771,-2.77,-2.7988,-2.8071,-2.8114,-2.8105,-2.8296,-2.8387,-2.8838,-3.002,-3.0165,-2.9976,-2.9898,-2.9409,-2.9149,-2.9521,-2.9922,-2.9885,-2.8807,-2.9312,-2.8994,-2.667,-2.6676,-2.7052,-2.7494,-2.7521,-2.7713,-2.818,-2.8154,-2.8445,-2.9212,-2.9232,-2.9242,-2.9311,-2.8582,-2.8501,-2.919,-2.919,-2.9385,-2.9821,-2.9305,-2.9007,-2.8785,-2.9145,-2.9316,-2.9333,-2.9727,-2.9668,-2.9282,-2.9989,-3.0045,-2.9715,-2.9623,-2.989,-3.0239,-2.9857,-3.0259,-3.0992,-3.1012,-3.1251,-3.163,-4.017,-4.0124,-3.9798,-3.9571,-3.9468,-3.9158,-3.8048,-3.6809,-3.6025,-3.6062,-3.5102,-3.4568,-3.5027,-3.5045,-3.51,-3.5247,-3.5119,-3.4733,-3.4037,-3.3395,-3.268,-3.1854,-3.1267,-3.0964,-3.098,-3.0578,-3.0174,-2.9762,-2.977,-3.0326,-3.145,-3.1578,-3.2113,-3.2947,-3.4064,-3.3256,-3.1024,-3.2063,-3.1058,-2.8684,-2.8131,-2.7463,-2.6822,-2.6717,-2.6789,-2.6956,-2.741,-2.7635,-2.7863,-2.8514,-2.8883,-2.9221,-3.0251,-2.9836,-2.8906,-2.8661,-2.8324,-2.7988,-2.7992,-2.7912,-2.7868,-2.8456,-2.8595,-2.8664,-2.9054,-2.9697,-3.0127,-2.9849,-3.0408,-3.0936,-3.0768,-3.1227,-3.1367,-3.0742,-3.095,-3.0831,-2.9804,-2.9379,-2.9306,-2.944,-2.8516,-2.8033,-2.8421,-2.8245,-2.8385,-2.9143,-2.9446,-2.9401,-2.8926,-2.8678,-2.8752,-2.919,-2.919,-2.9368,-2.9726,-2.9636,-2.9474,-2.9145,-2.9265,-2.9453,-2.9727,-2.9847,-2.9955,-3.0007,-3.0263,-3.026,-3.0041,-3.033,-3.0388,-3.043,-3.0844,-3.0985,-3.1029,-3.1338,-3.1474,-3.163,-4.0303,-4.0489,-4.0282,-3.9571,-3.9468,-3.9151,-3.8227,-3.7132,-3.6416,-3.6468,-3.5482,-3.4944,-3.532,-3.532,-3.5357,-3.5595,-3.5394,-3.499,-3.433,-3.4038,-3.3564,-3.2962,-3.2402,-3.1694,-3.0791,-3.0406,-3.0002,-2.9562,-2.9562,-3.0116,-3.121,-3.1772,-3.2205,-3.2525,-3.4248,-3.3636,-3.1461,-3.276,-3.2131,-3.0334,-2.9883,-2.9279,-2.8511,-2.8037,-2.7679,-2.7356,-2.7272,-2.7244,-2.7331,-2.8,-2.8721,-2.9434,-2.9938,-2.9698,-2.9167,-2.8852,-2.843,-2.7983,-2.7588,-2.7515,-2.7753,-2.818,-2.8373,-2.8552,-2.8892,-2.9535,-3.0085,-2.9978,-3.0733,-3.1333,-3.0982,-3.1123,-3.1235,-3.0926,-3.1005,-3.0945,-3.0395,-3.0222,-3.0085,-2.9734,-2.8941,-2.85,-2.8447,-2.8402,-2.8639,-2.9385,-2.9775,-2.9835,-2.9415,-2.9346,-2.9491,-2.9669,-2.9683,-2.9747,-2.9968,-3.017,-3.0012,-2.9513,-2.9536,-2.9744,-3.0121,-3.0275,-3.0323,-3.0376,-3.0828,-3.0919,-3.0728,-3.1143,-3.1217,-3.1127,-3.1492,-3.1489,-3.1271,-3.1633,-3.1771,-3.1841,-4.0655,-4.082,-4.0551,-3.9682,-3.9509,-3.9137,-3.7968,-3.7448,-3.6964,-3.6463,-3.5971,-3.5543,-3.5369,-3.5594,-3.5742,-3.5742,-3.5632,-3.5449,-3.5117,-3.4995,-3.4751,-3.4431,-3.4262,-3.3277,-3.1172,-3.0604,-3.01,-2.9635,-2.9659,-2.9678,-2.9812,-3.1854,-3.2238,-3.1414,-3.418,-3.4057,-3.196,-3.2998,-3.2681,-3.1436,-3.1375,-3.0969,-3.0458,-2.9759,-2.903,-2.8272,-2.7604,-2.719,-2.7063,-2.8054,-2.8738,-2.9265,-2.9501,-2.9544,-2.9295,-2.8442,-2.8169,-2.7899,-2.6871,-2.7142,-2.7731,-2.7765,-2.8099,-2.8484,-2.9096,-2.9502,-2.9903,-3.0157,-3.0538,-3.0725,-3.0606,-3.0241,-2.9962,-2.9799,-2.9818,-2.9654,-2.8939,-2.9601,-2.9732,-2.8794,-2.8991,-2.898,-2.8363,-2.865,-2.9077,-2.9729,-3.0219,-3.0485,-3.0485,-3.0474,-3.0443,-3.0419,-3.0425,-3.0425,-3.0431,-3.0804,-3.0606,-2.9844,-2.9961,-3.0205,-3.0498,-3.0926,-3.0892,-3.0634,-3.1718,-3.1939,-3.1634,-3.1963,-3.212,-3.2178,-3.2093,-3.1918,-3.1721,-3.2053,-3.2175,-3.2175,-4.0261,-4.0365,-4.0199,-3.964,-3.9778,-3.9612,-3.83,-3.7868,-3.7734,-3.7908,-3.7347,-3.7158,-3.7769,-3.7359,-3.6976,-3.6976,-3.6164,-3.5667,-3.5886,-3.5538,-3.533,-3.517,-3.5109,-3.4537,-3.3425,-3.2087,-3.1022,-3.0057,-2.9989,-3.0461,-3.1308,-3.2283,-3.2266,-3.1505,-3.4175,-3.4218,-3.2378,-3.42,-3.4144,-3.274,-3.2474,-3.1028,-2.8994,-2.8261,-2.7238,-2.6208,-2.61,-2.5829,-2.5724,-2.6895,-2.7305,-2.7531,-2.9107,-2.9179,-2.8666,-2.831,-2.798,-2.7549,-2.6858,-2.7198,-2.7846,-2.8389,-2.8977,-2.9245,-2.8616,-2.9101,-2.9821,-2.9903,-3.0411,-3.0709,-3.0429,-3.027,-2.9668,-2.8265,-2.8587,-2.8523,-2.7228,-2.8466,-2.9202,-2.8392,-2.9131,-2.9489,-2.9055,-2.9549,-2.9872,-2.9812,-3.0743,-3.1149,-3.0898,-3.09,-3.085,-3.0898,-3.09,-3.0828,-3.0773,-3.0962,-3.0743,-3.0293,-3.0895,-3.1077,-3.0891,-3.1582,-3.1771,-3.1786,-3.2331,-3.2485,-3.2402,-3.2842,-3.2867,-3.2592,-3.2869,-3.2784,-3.2455,-3.2526,-3.2561,-3.2561,-4.0448,-4.0247,-3.982,-3.9351,-3.9473,-3.933,-3.8412,-3.8289,-3.8397,-3.8628,-3.8177,-3.8043,-3.8549,-3.8383,-3.815,-3.7779,-3.6959,-3.6455,-3.6455,-3.6746,-3.6779,-3.6539,-3.6456,-3.5916,-3.4913,-3.4118,-3.2777,-3.0959,-3.0936,-3.0752,-3.0541,-3.1537,-3.1621,-3.0956,-3.3364,-3.3965,-3.3209,-3.4735,-3.4841,-3.3943,-3.3739,-3.248,-3.0605,-2.9277,-2.8033,-2.6956,-2.6327,-2.6009,-2.5881,-2.6113,-2.6525,-2.7119,-2.8656,-2.8889,-2.8506,-2.83,-2.8052,-2.7765,-2.7099,-2.7571,-2.8345,-2.866,-2.9444,-2.9972,-2.9357,-2.9661,-2.9901,-2.9344,-3.0101,-3.0545,-2.9687,-2.991,-2.9708,-2.8027,-2.8196,-2.7927,-2.6482,-2.7471,-2.8212,-2.7982,-2.8622,-2.9196,-2.9478,-2.9892,-3.0122,-3.0079,-3.083,-3.1278,-3.1278,-3.1232,-3.125,-3.1211,-3.1113,-3.0958,-3.0979,-3.1349,-3.13,-3.0955,-3.1386,-3.1598,-3.1548,-3.2105,-3.2382,-3.24,-3.2822,-3.2943,-3.2954,-3.3378,-3.34,-3.326,-3.3469,-3.333,-3.2999,-3.2999,-3.2841,-3.2631,-4.08,-4.0361,-3.9768,-3.9172,-3.9192,-3.9071,-3.8474,-3.8753,-3.9034,-3.906,-3.8829,-3.8758,-3.8984,-3.918,-3.9028,-3.8231,-3.7832,-3.7524,-3.7211,-3.7924,-3.8275,-3.7968,-3.7714,-3.7123,-3.6087,-3.6067,-3.4695,-3.1891,-3.1922,-3.099,-2.9322,-3.0644,-3.0827,-3.0127,-3.2169,-3.335,-3.3804,-3.4733,-3.5026,-3.492,-3.4857,-3.4043,-3.2734,-3.0912,-2.9523,-2.8439,-2.7196,-2.6741,-2.6597,-2.5944,-2.6309,-2.7272,-2.8316,-2.864,-2.8668,-2.855,-2.8514,-2.8355,-2.7531,-2.8121,-2.9042,-2.8755,-2.9597,-3.0545,-3.0584,-3.0324,-2.9768,-2.8825,-2.9624,-3.0145,-2.8909,-2.9765,-3.0123,-2.8666,-2.8275,-2.7687,-2.6238,-2.6577,-2.7112,-2.7659,-2.8339,-2.9076,-2.9917,-3.0052,-3.0206,-3.0515,-3.0874,-3.1199,-3.1522,-3.1547,-3.1513,-3.154,-3.1219,-3.1098,-3.1199,-3.1771,-3.1998,-3.1721,-3.1808,-3.1966,-3.2105,-3.2561,-3.2771,-3.2841,-3.3209,-3.3418,-3.3418,-3.3678,-3.3817,-3.3817,-3.3817,-3.3645,-3.3368,-3.3299,-3.3088,-3.272,-4.0862,-4.0811,-4.0471,-3.9556,-4.0121,-4.01,-3.847,-3.9241,-3.986,-3.9453,-3.9721,-4.0112,-4.0535,-3.9991,-3.938,-3.8579,-3.8467,-3.8524,-3.8715,-3.8487,-3.8482,-3.8671,-3.829,-3.7881,-3.7274,-3.7274,-3.5626,-3.2327,-3.267,-3.1933,-3.0119,-3.0901,-3.0545,-2.9493,-3.1211,-3.244,-3.3256,-3.3838,-3.457,-3.5293,-3.4921,-3.3781,-3.2211,-3.0992,-2.9766,-2.8557,-2.7488,-2.6937,-2.6711,-2.6862,-2.7001,-2.7373,-2.8298,-2.8853,-2.9198,-2.9508,-2.9817,-2.963,-2.802,-2.8878,-2.9952,-2.8535,-2.956,-3.0972,-3.1272,-2.9867,-2.8505,-2.8591,-2.8855,-2.911,-2.9137,-3.0578,-3.1332,-2.9953,-2.8867,-2.7689,-2.624,-2.6006,-2.6491,-2.7485,-2.9425,-3.0581,-3.0361,-3.0669,-3.0891,-3.0926,-3.1304,-3.1563,-3.1546,-3.1597,-3.1597,-3.1563,-3.1527,-3.1667,-3.1966,-3.2071,-3.2263,-3.2561,-3.291,-3.2718,-3.2105,-3.2911,-3.3209,-3.3278,-3.3608,-3.3747,-3.3747,-3.3817,-3.3817,-3.3817,-3.3817,-3.3739,-3.3677,-3.3411,-3.3269,-3.3145,-4.0882,-4.0504,-4.0095,-3.9708,-3.9953,-3.9871,-3.8832,-3.9548,-4.0158,-3.9951,-4.0096,-4.0406,-4.082,-4.0146,-3.967,-3.9639,-3.9367,-3.9273,-3.9361,-3.9364,-3.9355,-3.9179,-3.8792,-3.8233,-3.7508,-3.7757,-3.6734,-3.4269,-3.4269,-3.2906,-3.0351,-3.1026,-3.1157,-3.081,-3.1366,-3.2203,-3.3312,-3.3562,-3.4177,-3.4828,-3.3978,-3.3316,-3.2583,-3.0791,-2.9583,-2.8689,-2.689,-2.6837,-2.7507,-2.6971,-2.736,-2.8204,-2.8823,-2.9131,-2.931,-2.9716,-2.9342,-2.8642,-2.8074,-2.8066,-2.8068,-2.7351,-2.856,-3.0,-3.0193,-2.8713,-2.7308,-2.7586,-2.7547,-2.7545,-2.8098,-2.9608,-3.0649,-3.0327,-2.8943,-2.7339,-2.5944,-2.4899,-2.498,-2.6959,-2.8467,-2.9762,-3.0669,-3.0909,-3.1097,-3.1302,-3.1474,-3.1804,-3.2223,-3.1821,-3.1804,-3.2223,-3.2016,-3.1965,-3.2105,-3.2544,-3.2771,-3.2719,-3.3354,-3.3444,-3.3144,-3.3655,-3.4064,-3.4283,-3.4168,-3.4275,-3.4458,-3.4,-3.3945,-3.411,-3.3699,-3.3495,-3.3518,-3.3319,-3.3177,-3.2752]},{"header":{"parameterUnit":"m.s-1","parameterCategory":1,"la1":30.6,"la2":28.766,"lo1":-90.7593,"lo2":-88.6598,"dy":0.0162,"dx":0.0183,"nx":116,"ny":114,"refTime":"2023-10-25T12:00:00:Z","depth":0,"parameterNumber":3,"parameterNumberName":"V-component_of_WINDS"},"data":[0.0,0.0,0.0,0.0,0.0,0.0,0.0,0.0,0.0,0.0,0.0,0.0,0.0,0.0,0.0,0.0,0.0,0.0,0.0,0.0,0.0,0.0,0.0,0.0,0.0,0.0,0.0,0.0,0.0,0.0,0.0,0.0,0.0,0.0,0.0,0.0,0.0,0.0,0.0,0.0,0.0,0.0,0.0,0.0,0.0,0.0,0.0,0.0,0.0,0.0,0.0,0.0,0.0,0.0,0.0,0.0,0.0,0.0,0.0,0.0,0.0,0.0,0.0,0.0,0.0,0.0,0.0,0.0,0.0,0.0,0.0,0.0,0.0,0.0,0.0,0.0,0.0,0.0,0.0,0.0,0.0,0.0,0.0,0.0,0.0,0.0,0.0,0.0,0.0,0.0,0.0,0.0,0.0,0.0,0.0,0.0,0.0,0.0,0.0,0.0,0.0,0.0,0.0,0.0,0.0,0.0,0.0,0.0,0.0,0.0,0.0,0.0,0.0,0.0,0.0,0.0,0.0,0.0,0.0,0.0,0.0,0.0,0.0,0.0,0.0,0.0,0.0,0.0,0.0,0.0,0.0,0.0,0.0,0.0,0.0,0.0,0.0,0.0,0.0,0.0,0.0,0.0,0.0,0.0,0.0,0.0,0.0,0.0,0.0,0.0,0.0,0.0,0.0,0.0,0.0,0.0,0.0,0.0,0.0,0.0,0.0,0.0,0.0,0.0,0.0,0.0,0.0,0.0,0.0,0.0,0.0,0.0,0.0,0.0,0.0,0.0,0.0,0.0,0.0,0.0,0.0,0.0,0.0,0.0,0.0,0.0,0.0,0.0,0.0,0.0,0.0,0.0,0.0,0.0,0.0,0.0,0.0,0.0,0.0,0.0,0.0,0.0,0.0,0.0,0.0,0.0,0.0,0.0,0.0,0.0,0.0,0.0,0.0,0.0,0.0,0.0,0.0,0.0,0.0,0.0,0.0,0.0,0.0,0.0,0.0,0.0,0.0,0.0,0.0,0.0,0.0,0.0,0.0,0.0,0.0,0.0,0.0,0.0,0.0,0.0,0.0,0.0,0.0,0.0,0.0,0.0,0.0,0.0,0.0,0.0,0.0,0.0,0.0,0.0,0.0,0.0,0.0,0.0,0.0,0.0,0.0,0.0,0.0,0.0,0.0,0.0,0.0,0.0,0.0,0.0,0.0,0.0,0.0,0.0,0.0,0.0,0.0,0.0,0.0,0.0,0.0,0.0,0.0,0.0,0.0,0.0,0.0,0.0,0.0,0.0,0.0,0.0,0.0,0.0,0.0,0.0,0.0,0.0,0.0,0.0,0.0,0.0,0.0,0.0,0.0,0.0,0.0,0.0,0.0,0.0,0.0,0.0,0.0,0.0,0.0,0.0,0.0,0.0,0.0,0.0,0.0,0.0,0.0,0.0,0.0,0.0,0.0,0.0,0.0,0.0,0.0,0.0,0.0,0.0,0.0,0.0,0.0,0.0,0.0,0.0,0.0,0.0,0.0,0.0,0.0,0.0,0.0,0.0,0.0,0.0,0.0,0.0,0.0,0.0,0.0,0.0,0.0,0.0,0.0,0.0,0.0,0.0,0.0,0.0,0.0,0.0,0.0,0.0,0.0,0.0,0.0,0.0,0.0,0.0,0.0,0.0,0.0,0.0,0.0,0.0,0.0,0.0,0.0,0.0,0.0,0.0,0.0,0.0,0.0,0.0,0.0,0.0,0.0,0.0,0.0,0.0,0.0,0.0,0.0,0.0,0.0,0.0,0.0,0.0,0.0,0.0,0.0,0.0,0.0,0.0,0.0,0.0,0.0,0.0,0.0,0.0,0.0,0.0,0.0,0.0,0.0,0.0,0.0,0.0,0.0,0.0,0.0,0.0,0.0,0.0,0.0,0.0,0.0,0.0,0.0,0.0,0.0,0.0,0.0,0.0,0.0,0.0,0.0,0.0,0.0,0.0,0.0,0.0,0.0,0.0,0.0,0.0,0.0,0.0,0.0,0.0,0.0,0.0,0.0,0.0,0.0,0.0,0.0,0.0,0.0,0.0,0.0,0.0,0.0,0.0,0.0,0.0,0.0,0.0,0.0,0.0,0.0,0.0,0.0,0.0,0.0,0.0,0.0,0.0,0.0,0.0,0.0,0.0,0.0,0.0,0.0,0.0,0.0,0.0,0.0,0.0,0.0,0.0,0.0,0.0,0.0,0.0,0.0,0.0,0.0,0.0,0.0,0.0,0.0,0.0,0.0,0.0,0.0,0.0,0.0,0.0,0.0,0.0,0.0,0.0,0.0,0.0,0.0,0.0,0.0,0.0,0.0,0.0,0.0,0.0,0.0,0.0,0.0,0.0,0.0,0.0,0.0,0.0,0.0,0.0,0.0,0.0,0.0,0.0,0.0,0.0,0.0,0.0,0.0,0.0,0.0,0.0,0.0,0.0,0.0,0.0,0.0,0.0,0.0,0.0,0.0,0.0,0.0,0.0,0.0,0.0,0.0,0.0,0.0,0.0,0.0,0.0,0.0,0.0,0.0,0.0,0.0,0.0,0.0,0.0,0.0,0.0,0.0,0.0,0.0,0.0,0.0,0.0,0.0,0.0,0.0,0.0,0.0,0.0,0.0,0.0,0.0,0.0,0.0,0.0,0.0,0.0,0.0,0.0,0.0,0.0,0.0,0.0,0.0,0.0,0.0,0.0,0.0,0.0,0.0,0.0,0.0,0.0,0.0,0.0,0.0,0.0,0.0,0.0,0.0,0.0,0.0,0.0,0.0,0.0,0.0,0.0,0.0,0.0,0.0,0.0,0.0,0.0,0.0,0.0,0.0,0.0,0.0,0.0,0.0,0.0,0.0,0.0,0.0,0.0,0.0,0.0,0.0,0.0,0.0,0.0,0.0,0.0,0.0,0.0,0.0,0.0,0.0,0.0,0.0,0.0,0.0,0.0,0.0,0.0,0.0,0.0,0.0,0.0,0.0,0.0,0.0,0.0,0.0,0.0,0.0,0.0,0.0,0.0,0.0,0.0,0.0,0.0,0.0,0.0,0.0,0.0,0.0,0.0,0.0,0.0,0.0,0.0,0.0,0.0,0.0,0.0,0.0,0.0,0.0,0.0,0.0,0.0,0.0,0.0,0.0,0.0,0.0,0.0,0.0,0.0,0.0,0.0,0.0,0.0,0.0,0.0,0.0,0.0,0.0,0.0,0.0,0.0,0.0,0.0,0.0,0.0,0.0,0.0,0.0,0.0,0.0,0.0,0.0,0.0,0.0,0.0,0.0,0.0,0.0,0.0,0.0,0.0,0.0,0.0,0.0,0.0,0.0,0.0,0.0,0.0,0.0,0.0,0.0,0.0,0.0,0.0,0.0,0.0,0.0,0.0,0.0,0.0,0.0,0.0,0.0,0.0,0.0,0.0,0.0,0.0,0.0,0.0,0.0,0.0,0.0,0.0,0.0,0.0,0.0,0.0,0.0,0.0,0.0,0.0,0.0,0.0,0.0,0.0,0.0,0.0,0.0,0.0,0.0,0.0,0.0,0.0,0.0,0.0,0.0,0.0,0.0,0.0,0.0,0.0,0.0,0.0,0.0,0.0,0.0,0.0,0.0,0.0,0.0,0.0,0.0,0.0,0.0,0.0,0.0,0.0,0.0,0.0,0.0,0.0,0.0,0.0,0.0,0.0,0.0,0.0,0.0,0.0,0.0,0.0,0.0,0.0,0.0,0.0,0.0,0.0,0.0,0.0,0.0,0.0,0.0,0.0,0.0,0.0,0.0,0.0,0.0,0.0,0.0,0.0,0.0,0.0,0.0,0.0,0.0,0.0,0.0,0.0,0.0,0.0,0.0,0.0,0.0,0.0,0.0,0.0,0.0,0.0,0.0,0.0,0.0,0.0,0.0,0.0,0.0,0.0,0.0,0.0,0.0,0.0,0.0,0.0,0.0,0.0,0.0,0.0,0.0,0.0,0.0,0.0,0.0,0.0,0.0,0.0,0.0,0.0,0.0,0.0,0.0,0.0,0.0,0.0,0.0,0.0,0.0,0.0,0.0,0.0,0.0,0.0,0.0,0.0,0.0,0.0,0.0,0.0,0.0,0.0,0.0,0.0,0.0,0.0,0.0,0.0,0.0,0.0,0.0,0.0,0.0,0.0,0.0,0.0,0.0,0.0,0.0,0.0,0.0,0.0,0.0,0.0,0.0,0.0,0.0,0.0,0.0,0.0,0.0,0.0,0.0,0.0,0.0,0.0,0.0,0.0,0.0,0.0,0.0,0.0,0.0,0.0,0.0,0.0,0.0,0.0,0.0,0.0,0.0,0.0,0.0,0.0,0.0,0.0,0.0,0.0,0.0,0.0,0.0,0.0,0.0,0.0,0.0,0.0,0.0,0.0,0.0,0.0,0.0,0.0,0.0,0.0,0.0,0.0,0.0,0.0,0.0,0.0,0.0,0.0,0.0,0.0,0.0,0.0,0.0,0.0,0.0,0.0,0.0,0.0,0.0,0.0,0.0,0.0,0.0,0.0,0.0,0.0,0.0,0.0,0.0,0.0,0.0,0.0,0.0,0.0,0.0,0.0,0.0,0.0,0.0,0.0,0.0,0.0,0.0,0.0,0.0,0.0,0.0,0.0,0.0,0.0,0.0,0.0,0.0,0.0,0.0,0.0,0.0,0.0,0.0,0.0,0.0,0.0,0.0,0.0,0.0,0.0,0.0,0.0,0.0,0.0,0.0,0.0,0.0,0.0,0.0,0.0,0.0,0.0,0.0,0.0,0.0,0.0,0.0,0.0,0.0,0.0,0.0,0.0,0.0,0.0,0.0,0.0,0.0,0.0,0.0,0.0,0.0,0.0,0.0,0.0,0.0,0.0,0.0,0.0,0.0,0.0,0.0,0.0,0.0,0.0,0.0,0.0,0.0,0.0,0.0,0.0,0.0,0.0,0.0,0.0,0.0,0.0,0.0,0.0,0.0,0.0,0.0,0.0,0.0,0.0,0.0,0.0,0.0,0.0,0.0,0.0,0.0,0.0,0.0,0.0,0.0,0.0,0.0,0.0,0.0,0.0,0.0,0.0,0.0,0.0,0.0,0.0,0.0,0.0,0.0,0.0,0.0,0.0,0.0,0.0,0.0,0.0,0.0,0.0,0.0,0.0,0.0,0.0,0.0,0.0,0.0,0.0,0.0,0.0,0.0,0.0,0.0,0.0,0.0,0.0,0.0,0.0,0.0,0.0,0.0,0.0,0.0,0.0,0.0,0.0,0.0,0.0,0.0,0.0,0.0,0.0,0.0,0.0,0.0,0.0,0.0,0.0,0.0,0.0,0.0,0.0,0.0,0.0,0.0,0.0,0.0,0.0,0.0,0.0,0.0,0.0,0.0,0.0,0.0,0.0,0.0,0.0,0.0,0.0,0.0,0.0,0.0,0.0,0.0,0.0,0.0,0.0,0.0,0.0,0.0,0.0,0.0,0.0,0.0,0.0,0.0,0.0,0.0,0.0,0.0,0.0,0.0,0.0,0.0,0.0,0.0,0.0,0.0,0.0,0.0,0.0,0.0,0.0,0.0,0.0,0.0,0.0,0.0,0.0,0.0,0.0,0.0,0.0,0.0,0.0,0.0,0.0,0.0,0.0,0.0,0.0,0.0,0.0,0.0,0.0,0.0,0.0,0.0,0.0,0.0,0.0,0.0,0.0,0.0,0.0,0.0,0.0,0.0,0.0,0.0,0.0,0.0,0.0,0.0,0.0,0.0,0.0,0.0,0.0,0.0,0.0,0.0,0.0,0.0,0.0,0.0,0.0,0.0,0.0,0.0,0.0,0.0,0.0,0.0,0.0,0.0,0.0,0.0,0.0,0.0,0.0,0.0,0.0,0.0,0.0,0.0,0.0,0.0,0.0,0.0,0.0,0.0,0.0,0.0,0.0,0.0,0.0,0.0,0.0,0.0,0.0,0.0,0.0,0.0,0.0,0.0,0.0,0.0,0.0,0.0,0.0,0.0,0.0,0.0,0.0,0.0,0.0,0.0,0.0,0.0,0.0,0.0,0.0,0.0,0.0,0.0,0.0,0.0,0.0,0.0,0.0,0.0,0.0,0.0,0.0,2.5326,0.0,0.0,0.0,0.0,0.0,0.0,0.0,0.0,0.0,0.0,0.0,0.0,0.0,0.0,0.0,0.0,0.0,0.0,0.0,0.0,0.0,0.0,0.0,0.0,0.0,0.0,0.0,0.0,0.0,0.0,0.0,0.0,0.0,0.0,0.0,0.0,0.0,0.0,2.6717,2.7187,2.7453,2.7415,2.7415,2.6417,2.4661,0.0,0.0,0.0,0.0,0.0,0.0,0.0,0.0,0.0,0.0,0.0,0.0,0.0,0.0,0.0,0.0,0.0,0.0,0.0,0.0,0.0,0.0,0.0,0.0,0.0,0.0,0.0,0.0,0.0,0.0,0.0,0.0,0.0,0.0,0.0,0.0,0.0,0.0,0.0,0.0,0.0,0.0,0.0,0.0,0.0,0.0,0.0,0.0,0.0,0.0,0.0,0.0,0.0,0.0,0.0,0.0,0.0,0.0,0.0,0.0,0.0,0.0,0.0,0.0,0.0,0.0,0.0,0.0,0.0,0.0,0.0,2.4817,0.0,0.0,0.0,0.0,0.0,0.0,0.0,0.0,0.0,0.0,0.0,0.0,0.0,0.0,0.0,0.0,0.0,0.0,0.0,0.0,0.0,0.0,0.0,2.44,2.4437,2.4584,2.4564,2.4534,0.0,0.0,0.0,0.0,0.0,0.0,2.6291,2.6487,2.72,2.842,2.8264,2.9028,3.0671,3.0684,2.9357,2.6962,2.5752,0.0,0.0,0.0,0.0,0.0,0.0,0.0,0.0,0.0,0.0,0.0,0.0,0.0,0.0,0.0,0.0,0.0,0.0,0.0,0.0,0.0,0.0,0.0,0.0,0.0,0.0,0.0,0.0,0.0,0.0,0.0,0.0,0.0,0.0,0.0,0.0,0.0,0.0,0.0,0.0,0.0,0.0,0.0,0.0,0.0,0.0,0.0,0.0,0.0,0.0,0.0,0.0,0.0,0.0,0.0,0.0,0.0,0.0,0.0,0.0,0.0,0.0,0.0,3.0886,3.1555,3.1982,3.4421,3.4034,3.136,2.9897,2.8272,2.6662,2.6012,0.0,0.0,0.0,0.0,0.0,0.0,0.0,0.0,0.0,0.0,0.0,0.0,0.0,0.0,0.0,0.0,0.0,0.0,0.0,2.4447,2.5154,2.5177,2.5429,2.6135,2.6075,2.602,2.61,0.0,0.0,0.0,0.0,0.0,2.6233,2.755,2.8106,2.7729,2.9893,3.1775,3.3313,3.3343,3.3529,3.3676,3.0538,2.971,3.054,0.0,0.0,0.0,0.0,0.0,0.0,0.0,0.0,0.0,0.0,0.0,0.0,0.0,0.0,0.0,0.0,0.0,0.0,0.0,0.0,0.0,0.0,0.0,0.0,0.0,0.0,0.0,0.0,0.0,0.0,0.0,0.0,0.0,0.0,0.0,0.0,0.0,0.0,0.0,0.0,0.0,2.1878,2.3159,0.0,0.0,0.0,0.0,0.0,0.0,0.0,0.0,0.0,0.0,0.0,0.0,0.0,3.3109,3.3923,3.5096,3.5321,3.4599,3.6073,3.6174,3.5109,3.6188,3.658,3.6419,3.5454,0.0,2.8802,2.8754,0.0,0.0,0.0,0.0,0.0,0.0,0.0,0.0,0.0,0.0,0.0,0.0,0.0,0.0,0.0,0.0,0.0,0.0,0.0,0.0,0.0,2.5863,2.6622,2.6458,2.8551,2.9088,2.7205,2.8288,0.0,0.0,2.7671,2.7912,2.755,2.8685,2.9682,3.0467,3.2766,3.4527,3.5637,3.5659,3.606,3.6748,3.4489,3.3213,3.2617,3.0938,0.0,0.0,0.0,0.0,0.0,0.0,0.0,0.0,0.0,0.0,0.0,0.0,0.0,0.0,0.0,0.0,0.0,0.0,0.0,0.0,0.0,0.0,0.0,0.0,0.0,0.0,0.0,0.0,0.0,0.0,0.0,0.0,0.0,0.0,0.0,0.0,0.0,0.0,0.0,2.3045,2.4604,2.4354,2.5572,2.5492,0.0,0.0,0.0,0.0,0.0,0.0,0.0,0.0,0.0,3.2898,3.4771,3.5504,3.4999,3.7086,3.8111,3.8091,3.9575,4.0185,4.0061,4.1004,4.1176,4.0799,4.1003,3.8852,3.5021,3.2796,3.1487,3.0658,0.0,0.0,0.0,0.0,2.9557,3.1581,0.0,0.0,0.0,0.0,0.0,0.0,0.0,0.0,0.0,0.0,0.0,0.0,2.5889,2.7489,2.8625,2.901,3.147,3.1911,2.9345,3.0232,3.001,2.8105,2.86,2.8817,2.86,2.9899,3.167,3.3937,3.5856,3.7369,3.8364,3.8538,3.8922,3.9465,3.8428,3.7,3.5196,3.3144,3.1338,2.9815,0.0,0.0,0.0,0.0,0.0,0.0,0.0,0.0,0.0,0.0,0.0,0.0,0.0,0.0,0.0,0.0,0.0,0.0,0.0,0.0,0.0,0.0,0.0,0.0,0.0,0.0,0.0,0.0,0.0,0.0,0.0,0.0,0.0,0.0,0.0,0.0,0.0,2.6035,2.7325,2.6054,2.8513,2.876,0.0,0.0,0.0,0.0,0.0,0.0,3.4006,3.5059,3.5892,3.6496,3.8541,3.8936,3.7513,3.9535,4.0712,4.101,4.2068,4.2901,4.3504,4.4515,4.4518,4.3833,4.4648,4.3549,4.0887,3.69,3.4999,3.4509,3.3353,3.3703,3.4676,3.3141,3.4018,3.5621,0.0,0.0,0.0,0.0,0.0,0.0,0.0,0.0,0.0,0.0,0.0,2.6033,3.0706,3.0713,3.1929,3.5825,3.4679,3.366,3.35,3.1227,2.9797,2.9676,2.9712,2.9373,2.8636,3.121,3.4144,3.7329,3.8851,4.037,4.1857,4.2608,4.3011,4.303,4.2632,4.1394,3.9276,3.4452,3.2734,3.2993,2.9888,0.0,0.0,0.0,0.0,0.0,0.0,0.0,0.0,0.0,0.0,0.0,0.0,0.0,0.0,0.0,0.0,0.0,0.0,0.0,0.0,0.0,0.0,0.0,0.0,0.0,0.0,0.0,0.0,0.0,0.0,0.0,0.0,0.0,0.0,0.0,0.0,0.0,0.0,2.8932,3.4238,0.0,0.0,0.0,0.0,3.291,3.4833,3.7392,4.0277,4.051,4.1923,4.4898,4.5914,4.6129,4.5603,4.5259,4.4508,4.345,4.3564,4.3651,4.372,4.4463,4.4837,4.4822,4.4868,4.4855,4.4443,4.0491,3.7983,3.6463,3.4433,3.5202,3.7071,3.4273,3.5882,3.9017,0.0,0.0,0.0,0.0,0.0,0.0,0.0,0.0,2.4054,2.4346,2.6019,2.7912,2.9669,3.3019,3.576,3.7273,3.8719,3.8648,3.6582,3.4913,3.3026,3.0903,3.0166,3.0427,3.1779,3.3503,3.6232,4.0067,4.0653,4.1778,4.3305,4.3251,4.3143,4.3014,4.3633,4.3667,4.2959,3.8538,3.5514,3.3602,3.175,3.0072,0.0,0.0,0.0,0.0,0.0,0.0,0.0,0.0,0.0,0.0,0.0,0.0,0.0,0.0,0.0,0.0,0.0,0.0,0.0,0.0,0.0,0.0,0.0,0.0,0.0,0.0,0.0,0.0,0.0,0.0,0.0,0.0,0.0,0.0,0.0,0.0,0.0,3.3315,3.5683,0.0,3.315,3.4801,3.5803,3.513,3.8353,4.1343,4.3632,4.4448,4.5545,4.709,4.6908,4.6172,4.4957,4.4716,4.4156,4.3252,4.3685,4.3884,4.3951,4.5279,4.5512,4.4923,4.5651,4.5532,4.4794,4.4047,4.303,4.1832,4.0561,4.0961,4.21,4.0912,4.1427,4.245,0.0,0.0,0.0,0.0,0.0,0.0,0.0,2.3915,2.4003,2.433,2.7273,2.9795,3.0846,3.5843,3.93,3.9719,4.1593,4.1378,3.8206,3.614,3.3968,3.1637,3.127,3.2479,3.5351,3.6694,3.9127,4.2727,4.2953,4.3615,4.4634,4.4534,4.4165,4.3604,4.4612,4.493,4.4543,4.1954,3.8955,3.5837,3.3927,3.2593,3.1417,0.0,0.0,0.0,0.0,0.0,0.0,0.0,0.0,0.0,0.0,0.0,0.0,0.0,0.0,0.0,0.0,0.0,0.0,0.0,0.0,0.0,0.0,0.0,0.0,0.0,0.0,0.0,0.0,0.0,0.0,0.0,0.0,0.0,0.0,3.1632,3.4854,3.6472,3.8293,3.8544,3.6322,3.7874,3.8881,3.8582,4.214,4.5133,4.6979,4.7665,4.8303,4.9017,4.8095,4.6915,4.5499,4.5236,4.4743,4.4019,4.4646,4.499,4.5023,4.6146,4.6211,4.5433,4.5983,4.5693,4.4981,4.5935,4.5782,4.4857,4.4448,4.4514,4.4752,4.4493,4.4516,4.4488,0.0,0.0,0.0,0.0,0.0,0.0,2.3878,2.3831,2.4168,2.5132,2.8216,3.1532,3.4637,3.9133,4.2396,4.35,4.3082,4.145,3.8413,3.4608,3.2288,3.1826,3.3009,3.5349,3.8921,4.054,4.269,4.5361,4.5692,4.5883,4.5956,4.6653,4.6312,4.5168,4.5858,4.5395,4.4104,4.44,4.2871,3.9998,3.6479,3.5109,3.4802,0.0,0.0,0.0,0.0,0.0,0.0,0.0,0.0,0.0,0.0,0.0,0.0,0.0,0.0,0.0,0.0,0.0,0.0,0.0,0.0,0.0,0.0,0.0,0.0,0.0,0.0,0.0,0.0,0.0,0.0,0.0,0.0,0.0,2.9728,3.5628,3.9443,3.8383,4.248,4.3626,3.9169,4.2609,4.4699,4.3538,4.6248,4.8723,5.0461,5.0115,5.0241,5.1009,4.9919,4.8883,4.7968,4.7272,4.6543,4.5748,4.6477,4.6841,4.6841,4.6841,4.6662,4.635,4.5824,4.5427,4.5192,4.6048,4.591,4.5153,4.5482,4.5269,4.4784,4.446,4.4757,4.4987,0.0,0.0,0.0,0.0,0.0,0.0,2.3878,2.3831,2.3898,2.4168,2.8505,3.2179,3.3881,3.9297,4.2947,4.3208,4.2222,4.0577,3.8218,3.4593,3.2517,3.2393,3.2773,3.5395,4.0539,4.0637,4.2767,4.7033,4.5692,4.5626,4.6765,4.6343,4.6116,4.6081,4.7102,4.7182,4.6566,4.6693,4.5956,4.4418,4.0679,3.8141,3.6456,0.0,0.0,0.0,0.0,0.0,0.0,0.0,0.0,0.0,0.0,0.0,0.0,0.0,0.0,0.0,0.0,0.0,0.0,0.0,0.0,0.0,0.0,0.0,0.0,0.0,0.0,0.0,0.0,0.0,0.0,0.0,3.1125,3.4354,3.5098,3.8216,4.1143,4.319,4.4753,4.5186,4.3909,4.5507,4.6101,4.4784,4.7629,4.9403,4.9353,4.943,4.966,5.0068,4.9461,4.8461,4.6979,4.7472,4.6775,4.4986,4.5185,4.5284,4.5284,4.5284,4.5576,4.5965,4.5829,4.5687,4.5667,4.6486,4.6089,4.5005,4.5738,4.5728,4.5217,4.5148,4.5032,4.4773,0.0,0.0,0.0,0.0,0.0,0.0,2.3847,2.3821,2.3825,2.3899,2.9112,3.2914,3.3255,3.9243,4.2614,4.1085,4.0799,3.922,3.5785,3.4139,3.3415,3.3755,3.6094,3.8958,4.2347,4.3123,4.5026,4.8184,4.6523,4.6415,4.7831,4.727,4.7176,4.7487,4.824,4.8388,4.8097,4.8119,4.7756,4.6953,4.4871,4.2978,4.1072,3.8601,3.7638,3.7404,3.5899,3.5241,3.4717,3.2483,0.0,0.0,0.0,0.0,0.0,0.0,0.0,0.0,0.0,0.0,0.0,0.0,0.0,0.0,0.0,0.0,0.0,0.0,0.0,0.0,0.0,0.0,0.0,0.0,3.5621,3.918,4.0891,4.2157,4.3742,4.5929,4.6096,4.611,4.6099,4.6697,4.6817,4.6173,4.8154,4.9282,4.9039,4.901,4.9199,4.9748,4.932,4.8762,4.8101,4.8332,4.7835,4.6543,4.6212,4.6079,4.6046,4.5748,4.5816,0.0,4.5647,4.5578,4.5844,4.6118,4.5778,0.0,0.0,0.0,0.0,0.0,4.4673,4.4381,0.0,0.0,0.0,0.0,0.0,0.0,2.3687,2.3691,2.3712,2.3836,2.9478,3.3225,3.2422,3.8497,4.1289,3.8028,3.8821,3.7524,3.2931,3.3453,3.4666,3.6345,4.1119,4.3998,4.4496,4.6632,4.8098,4.8767,4.7684,4.7776,4.888,4.879,4.8866,4.9061,4.9197,4.9146,4.8983,4.9033,4.8682,4.8128,4.8478,4.801,4.6652,4.2173,4.1033,4.1466,3.9176,3.6927,3.5064,3.4527,0.0,0.0,0.0,0.0,0.0,0.0,0.0,0.0,0.0,0.0,0.0,0.0,0.0,0.0,0.0,0.0,0.0,0.0,0.0,0.0,0.0,0.0,0.0,0.0,3.9615,4.2888,4.6219,4.6467,4.655,4.7208,4.6955,4.6784,4.6794,4.6995,4.7234,4.7452,4.8152,4.8774,4.9236,0.0,0.0,0.0,0.0,4.9524,4.9921,4.9458,4.9094,4.8862,4.8199,4.7868,4.7835,4.7138,4.6809,4.6681,4.554,4.5336,4.5709,4.538,4.5261,4.5287,4.5728,4.5179,4.414,4.4156,4.4199,4.4191,0.0,0.0,0.0,0.0,0.0,0.0,2.2916,2.2916,2.2885,2.2788,2.7736,3.0937,3.0198,3.5043,3.7761,3.6186,3.5929,3.5631,3.5209,3.3397,3.5382,4.2209,4.2791,4.4378,4.7481,4.7923,4.8009,4.7858,4.8203,4.8472,4.8743,4.8974,4.9472,5.0116,4.9776,4.9564,4.9573,4.978,4.9422,4.8728,4.8802,4.8209,4.7211,4.6754,4.5753,4.4509,4.3735,4.3407,4.2739,3.8993,3.8611,3.9034,3.5103,3.3211,0.0,0.0,0.0,0.0,0.0,0.0,0.0,0.0,0.0,0.0,0.0,0.0,0.0,0.0,0.0,0.0,0.0,0.0,0.0,4.0094,4.3007,4.5568,4.7466,4.7663,4.7786,4.8262,4.8385,4.85,4.8595,4.8663,4.8464,4.7933,4.8563,4.9192,4.9675,4.9225,4.916,4.9521,5.0425,4.9986,4.8199,4.9391,4.9094,4.7305,0.0,0.0,4.7073,4.6535,4.6566,4.7065,4.6441,4.5865,4.531,4.5471,4.5554,4.5549,4.4907,4.457,4.4485,4.4952,4.5069,4.5042,0.0,0.0,0.0,0.0,0.0,0.0,2.2699,2.2373,2.2064,2.2004,2.5454,2.7939,2.7946,3.0787,3.247,3.1893,3.1881,3.2977,3.5587,3.5513,3.8199,4.4519,4.5115,4.6059,4.7647,4.8416,4.8583,4.8149,4.8263,4.8695,4.9314,4.9815,5.0211,5.0519,5.0752,5.0681,5.0409,5.0514,5.0407,5.0095,5.0145,4.9895,4.9365,4.9083,4.8561,4.7809,4.6664,4.5772,4.4693,4.1756,4.1028,4.0934,3.8297,3.6967,3.5628,0.0,0.0,0.0,0.0,0.0,0.0,0.0,0.0,0.0,0.0,0.0,0.0,0.0,0.0,3.314,3.4857,0.0,4.1017,4.3523,4.5481,4.7175,4.8365,4.8233,4.8099,4.8292,4.8386,4.8489,4.8531,4.8895,4.8796,4.8067,4.8696,4.9194,4.9425,4.8862,4.8962,4.9826,5.009,4.9954,4.9522,4.9623,4.9293,4.8663,4.8297,4.7996,4.7694,4.779,4.7853,4.782,4.7267,4.7228,4.7567,4.7902,4.7581,4.6869,4.6491,4.5823,4.5117,4.5179,4.515,4.5218,0.0,0.0,0.0,0.0,0.0,0.0,0.0,2.1685,2.1251,2.1222,2.3426,2.5199,2.5727,2.7018,2.7826,2.7739,2.8778,3.1215,3.5426,3.7696,4.1139,4.6158,4.7491,4.8012,4.7843,4.9131,4.9443,4.8659,4.858,4.9032,4.9873,5.0565,5.0814,5.0695,5.1467,5.1525,5.1034,5.1096,5.1141,5.1272,5.1376,5.1454,5.1353,5.0235,4.9992,5.0038,4.8336,4.6395,4.4455,4.3412,4.2322,4.1205,4.0561,4.0267,3.9124,3.4072,3.3617,0.0,0.0,0.0,0.0,0.0,0.0,0.0,0.0,3.2516,3.3346,3.5342,3.6132,3.7144,3.9462,4.186,4.4197,4.6224,4.7206,4.8068,4.8961,4.8465,4.8001,4.8001,4.8266,4.8498,4.863,4.9193,4.9226,4.8498,4.8995,4.9392,4.9525,4.8961,4.9127,5.0187,4.9756,4.9889,5.0652,4.9624,4.9393,4.9926,4.956,4.9158,4.8686,4.9385,4.935,4.8778,4.8225,4.8591,4.9634,5.0051,4.9403,4.8192,4.8171,4.7183,4.5711,4.5348,4.5125,4.5152,0.0,0.0,0.0,0.0,0.0,0.0,0.0,0.0,2.0391,2.0253,2.2355,2.3795,2.3599,2.5411,2.6618,2.6426,2.9209,3.239,3.5828,3.7845,4.2171,4.9521,4.9173,4.9425,5.0787,5.1166,5.0432,4.8498,4.989,5.0304,4.9722,5.0505,5.0892,5.0875,5.0997,5.1005,5.09,5.107,5.1123,5.1114,5.1149,5.1272,5.1398,5.0684,4.9996,4.934,4.8592,4.6566,4.4214,4.4067,4.3214,4.2139,4.2066,4.1552,4.0256,3.6531,3.5087,3.3843,2.9828,2.794,2.7539,2.9185,3.0772,3.3218,0.0,4.0363,4.1435,4.2172,4.4294,4.5491,4.3959,4.5563,4.7264,4.7733,4.7901,4.8233,4.8995,4.8465,4.8001,4.8001,4.916,5.022,5.0884,5.1017,5.075,5.0021,5.0055,5.0353,5.105,5.0984,5.0684,5.022,5.075,5.0187,4.8398,4.8862,4.8829,4.8265,4.9028,4.9359,4.9292,4.9813,5.0002,4.99,4.9464,4.9035,4.8626,4.9304,4.9141,4.8377,4.7704,4.6836,4.5995,4.5974,4.5569,4.5125,0.0,0.0,0.0,0.0,0.0,0.0,0.0,0.0,1.9577,1.9533,2.0806,2.181,2.2024,2.3613,2.4693,2.4734,2.7634,3.1488,3.6266,3.8572,4.2505,4.8641,4.8473,4.8626,4.9428,5.0008,4.9941,4.9188,5.0346,5.0943,5.1049,5.14,5.154,5.154,5.154,5.1294,5.09,5.0989,5.1043,5.1123,5.1123,5.0894,5.0468,4.9629,4.7978,4.6059,4.5539,4.4145,0.0,4.0587,4.0165,4.0489,4.1101,3.9994,3.8221,3.6926,3.5199,3.3553,3.2814,3.2327,3.2565,3.4602,3.7517,4.0422,4.2617,4.4213,4.5325,4.5727,4.6637,4.7189,4.6569,4.716,4.793,4.8564,4.8167,4.8101,4.8961,4.8465,4.7835,4.7404,4.7967,4.8464,4.873,4.9889,4.9988,4.8398,4.9491,5.0353,5.0651,4.9856,4.9823,5.0817,4.9889,4.9359,4.9293,4.873,4.8564,4.8762,4.9259,4.9355,4.905,4.99,5.0082,4.9801,5.0468,5.0598,5.0427,5.1716,5.1335,4.9883,4.9675,4.8225,4.6192,4.5366,4.5257,4.5635,0.0,0.0,0.0,0.0,0.0,0.0,0.0,0.0,0.0,0.0,1.992,2.0616,2.1468,2.2638,2.3374,2.3358,2.6201,2.9976,3.4685,3.7785,4.1756,4.6961,4.7491,4.8016,4.8793,4.9507,4.9806,4.9706,5.0406,5.1017,5.1487,5.1431,5.1403,5.1374,5.1403,5.1207,5.0764,5.0892,5.0919,5.0927,5.0946,5.0329,4.9188,4.7885,4.5302,4.2323,4.211,4.0786,3.8846,3.68,3.6684,3.7538,3.8574,3.753,3.5974,3.617,3.4459,3.2807,3.423,3.5012,3.6067,3.8759,4.2446,4.5498,4.5837,4.6858,4.7815,4.808,4.79,4.7742,4.7697,4.7737,4.8001,4.8696,4.8398,4.8299,4.8994,4.8465,4.7636,4.6772,4.6505,4.6271,4.5872,4.7933,4.8763,4.7305,4.8895,4.9988,5.0187,4.9392,4.9558,5.0949,4.9425,4.8928,4.9591,4.8531,4.8331,4.8961,4.939,4.9385,4.9074,5.0023,5.01,4.9603,5.1169,5.1682,5.1617,5.3281,5.2686,5.0683,5.0845,4.9219,4.6683,4.543,4.5417,4.6088,0.0,0.0,0.0,0.0,0.0,0.0,0.0,0.0,0.0,0.0,0.0,2.0851,2.2283,2.3146,2.3322,2.2592,2.5511,2.8215,3.0111,3.4476,3.9588,4.5384,4.6659,4.8307,5.0581,5.088,5.0612,4.9706,5.0153,5.0341,5.0137,5.0028,4.9918,4.9772,4.9918,5.0114,5.0453,5.0885,5.084,5.0439,5.0642,4.9634,4.7734,4.5482,4.2198,3.8787,3.8942,3.6796,3.3829,3.3862,3.3616,3.3435,3.4326,3.4423,3.4271,3.4291,3.2857,3.1531,3.2829,3.3687,3.5242,3.9426,4.2758,4.5633,4.7945,4.8916,4.942,4.9648,4.9236,4.8461,4.7168,4.7504,4.8001,4.8034,4.863,4.9094,4.9094,4.8465,4.7503,4.62,4.5277,4.4344,4.3237,4.5593,4.74,4.7934,4.8696,4.9458,5.0187,5.0817,5.0883,5.0253,5.0187,4.9491,4.8067,4.8034,4.8001,4.8034,4.9091,4.9588,4.9587,5.0289,5.0188,4.9603,5.1412,5.1683,5.1077,5.2743,5.2124,5.0098,5.013,4.9085,4.7507,4.691,4.65,4.6431,0.0,0.0,0.0,0.0,0.0,0.0,0.0,0.0,0.0,0.0,0.0,0.0,0.0,0.0,0.0,0.0,2.4944,2.6793,2.9919,3.3142,3.6357,3.9617,4.2824,4.4998,4.5998,4.6465,4.73,4.851,4.7584,4.7622,4.8501,4.7962,4.7969,4.8396,4.8941,4.9205,4.9346,4.959,4.9005,4.7842,4.7525,4.605,4.3796,4.1521,3.8521,3.5228,0.0,3.0954,2.9885,2.9434,2.9166,2.9327,3.0898,2.9785,2.784,2.7956,3.0019,3.2731,3.4532,3.7415,4.0844,4.4706,4.6566,4.803,5.0286,5.0195,4.9614,4.9453,4.7593,4.5819,4.5057,4.385,4.3429,4.4823,4.5287,4.6311,4.8763,4.7636,4.6376,4.591,4.4843,4.4108,4.4108,4.6273,4.7236,4.6038,4.926,5.1181,5.0916,5.1183,5.1415,5.1645,5.0253,4.9226,4.873,4.896,4.8727,4.8001,4.8461,4.9055,4.9717,4.9687,4.9589,4.9569,5.0896,5.1326,5.1094,5.2188,5.161,5.0096,5.0096,4.9149,4.7835,4.8115,4.8068,4.7866,0.0,0.0,0.0,0.0,0.0,0.0,0.0,0.0,0.0,0.0,0.0,0.0,0.0,0.0,0.0,0.0,0.0,2.5478,2.8458,3.0471,3.2498,3.47,3.8087,4.0193,4.0799,4.1917,4.3235,4.4729,4.4353,4.4613,4.5524,4.5264,4.5321,4.5754,4.6535,4.6955,4.7155,4.733,4.649,4.488,4.3854,4.1823,3.9112,3.6761,3.3968,0.0,2.7964,2.6636,2.6215,2.5852,2.5931,2.6417,2.765,2.6855,2.5527,2.6109,2.9444,3.3667,3.6947,4.0542,4.4247,4.7961,4.9153,4.9749,5.0872,5.0264,4.9188,4.8107,4.6152,4.4145,4.256,4.0796,4.0315,4.2469,4.2804,4.4161,4.8166,4.7272,4.621,4.6242,4.5474,4.4806,4.4474,4.6839,4.7602,4.574,4.8862,5.0717,5.0518,5.0485,5.0949,5.1978,5.0618,4.9824,4.966,4.9892,4.9722,4.9255,4.9083,4.9312,4.9909,4.9539,4.932,4.9294,5.0562,5.0883,5.0592,5.1434,5.1115,5.0066,5.0066,4.948,4.87,4.9131,4.9165,4.8914,0.0,0.0,0.0,0.0,0.0,0.0,0.0,0.0,0.0,0.0,0.0,0.0,0.0,0.0,0.0,0.0,0.0,0.0,2.566,2.6618,2.8252,3.0741,3.2724,3.4313,3.5486,3.7471,3.8534,3.8724,4.0457,4.1258,4.1187,4.181,4.1941,4.1715,4.2618,4.3314,4.3726,4.4009,4.3142,4.1412,3.968,3.7075,3.3961,3.1503,2.8836,2.6217,2.5103,2.3996,2.3076,2.3365,2.4149,2.4981,2.4917,2.5931,2.7398,2.8732,3.1235,3.4695,3.9795,4.2974,4.5653,4.9199,5.0427,5.0577,4.9947,4.9236,4.8041,4.5838,4.4767,4.3127,3.9547,3.8328,3.8593,4.0817,4.1281,4.2965,4.7371,4.7404,4.7038,4.7166,4.7038,4.624,4.4482,4.7299,4.8597,4.7106,0.0,4.8531,4.9226,4.9359,5.0021,5.1448,5.1448,5.1256,5.0894,5.0793,5.109,5.1607,5.0827,5.0326,5.0166,4.9881,4.9385,4.8829,5.0442,5.0523,4.9667,5.0686,5.0735,5.0114,5.008,5.008,5.008,5.008,4.9806,4.95,0.0,0.0,0.0,0.0,0.0,0.0,0.0,0.0,0.0,0.0,0.0,0.0,0.0,0.0,0.0,0.0,0.0,0.0,2.3751,2.5351,2.6304,2.6277,2.913,3.1007,3.1614,3.2434,3.3494,3.484,3.4626,3.48,3.5352,3.6083,3.635,3.6347,3.7672,3.8342,3.8502,3.808,3.6979,3.5404,3.3898,3.2032,2.9989,2.8281,2.6843,2.5629,2.4145,2.35,2.3429,2.3973,2.5689,2.7643,2.767,2.8844,3.0445,3.1862,3.5877,4.0288,4.2219,4.6373,5.0486,5.1979,5.1229,5.0039,4.989,4.7747,4.519,4.3131,3.9867,3.6655,3.4239,3.3516,3.4362,3.7665,4.0017,4.2965,4.7371,4.7835,4.7934,4.8498,4.81,4.7967,4.8563,4.989,5.0121,4.8663,5.022,5.1347,5.1545,5.2572,5.3301,5.3665,5.3169,5.295,5.3172,5.2371,5.2432,5.3335,5.1781,5.0977,5.0913,5.054,4.9983,4.9354,5.0592,5.0952,5.072,5.1016,5.1291,5.1597,5.1045,5.0838,5.0838,5.0838,5.0341,4.9649,0.0,0.0,0.0,0.0,0.0,0.0,0.0,0.0,0.0,0.0,0.0,0.0,0.0,0.0,0.0,0.0,0.0,0.0,0.0,2.4125,2.4204,2.3081,2.5161,2.6437,2.664,2.7476,2.8602,3.0025,3.0114,3.0412,3.0903,3.1941,3.2391,3.2437,3.3873,3.4387,3.416,3.37,3.2529,0.0,0.0,2.7664,2.6134,2.4945,2.4258,2.382,2.3044,2.3763,2.5316,2.689,2.8426,2.9957,3.1604,3.3138,3.4782,3.7061,4.0775,4.4361,4.5579,4.9115,5.2334,5.1847,5.0305,4.8408,4.659,4.4179,4.1399,3.8018,3.5252,3.2741,3.0362,2.9816,3.1106,3.5446,3.803,4.1276,4.6344,4.7305,4.8034,4.9425,4.9226,4.9425,5.0585,5.1347,5.1315,5.0154,5.1214,5.1777,5.1446,5.2175,5.3069,5.3997,5.3632,5.3654,5.4221,5.3616,5.3635,5.4207,5.3124,5.2213,5.1407,5.1343,5.0556,4.9358,0.0,5.1025,5.0905,5.1399,5.1808,5.2123,5.1401,5.1291,5.1572,5.1607,5.1405,5.1253,0.0,0.0,0.0,0.0,0.0,0.0,0.0,0.0,0.0,0.0,0.0,0.0,0.0,0.0,0.0,0.0,0.0,0.0,0.0,0.0,2.2397,2.1204,2.1796,2.2137,2.2065,2.3227,2.4358,2.5322,2.6573,2.7265,2.757,2.878,2.9364,2.946,3.0677,3.0885,3.0297,3.0079,2.8945,2.7114,2.5481,2.4094,2.2917,0.0,2.1882,2.1934,2.2276,2.4251,2.7165,3.0574,3.187,3.2665,3.6202,3.8236,3.9873,4.2896,4.5311,4.7357,4.8779,5.0941,5.2289,5.0307,4.8687,4.6529,4.2468,4.0066,3.7359,3.253,3.1094,2.998,2.7541,2.7304,2.9072,3.4087,3.6208,3.9189,4.4721,4.6378,4.7802,4.9823,5.0154,5.0551,5.1514,5.2011,5.2045,5.1514,5.1547,5.1247,5.0551,5.0585,5.1578,5.3669,5.3636,5.3966,5.4668,5.4624,5.4502,5.4367,5.4367,5.3386,5.167,5.2118,5.121,4.9354,5.0883,0.0,5.1032,5.2096,5.2467,5.2279,5.1647,5.1675,5.2056,5.213,5.253,5.308,0.0,0.0,0.0,0.0,0.0,0.0,0.0,0.0,0.0,0.0,2.2248,2.1977,0.0,0.0,0.0,0.0,0.0,0.0,0.0,0.0,0.0,2.184,2.1845,2.1871,2.1857,2.2047,2.2526,2.3399,2.3632,2.4381,2.5578,2.5844,2.6292,2.6839,2.7105,2.686,2.6199,2.5495,2.468,2.3759,2.2817,2.224,2.2038,2.2007,0.0,0.0,2.3282,2.3943,2.5348,3.1658,3.5445,3.799,4.0741,4.3215,4.5209,4.6052,4.795,4.9695,4.9157,5.0513,5.1684,5.0117,4.8273,4.6078,4.2963,3.884,3.4717,3.1404,2.8323,2.6071,2.5591,2.6984,2.9669,3.4154,3.6638,3.9394,4.34,4.6212,4.8166,4.9193,4.9924,5.1087,5.287,5.2217,5.182,5.2177,5.2705,5.2738,5.2042,5.2539,5.3672,5.5414,5.5032,5.5058,5.5654,5.5245,5.4528,5.3583,5.3583,5.2741,5.1225,5.2572,5.2297,5.0845,5.2975,0.0,5.2984,5.3773,5.3731,5.3176,5.3077,5.2303,5.1359,5.192,5.2234,5.2432,0.0,0.0,0.0,0.0,0.0,0.0,0.0,2.0843,2.134,2.4147,2.3469,2.2719,2.2749,2.2025,2.1543,0.0,0.0,0.0,0.0,0.0,0.0,2.2164,2.2254,2.2198,2.1955,2.1955,2.2049,2.2282,0.0,2.2859,2.3951,2.4298,2.4927,2.5692,2.5658,2.5227,2.4514,2.3735,2.3021,2.2337,2.2103,2.1926,2.1827,2.2041,0.0,0.0,2.2946,2.4019,2.5825,3.0097,3.442,3.8702,4.2685,4.5596,4.7449,4.711,4.9028,5.0885,4.9319,5.0404,5.146,4.924,4.7142,4.4248,3.9093,3.5485,3.1702,2.6558,2.4697,2.3735,2.305,2.4663,2.7528,3.1901,3.42,3.7402,4.2949,4.458,4.6638,5.049,5.0555,5.1153,5.3343,5.2653,5.2021,5.1918,5.225,5.2414,5.2409,5.3036,5.3768,5.4572,5.4531,5.4724,5.5177,5.4735,5.4157,5.3382,5.3788,5.2941,5.1148,5.2673,5.257,5.1217,5.3078,0.0,5.3175,5.4121,5.3946,5.3043,5.2872,5.2326,5.1706,5.2035,5.2428,5.2971,0.0,0.0,0.0,0.0,0.0,0.0,0.0,2.2662,2.3133,2.6283,2.5305,2.4328,2.4385,2.2821,2.166,0.0,0.0,0.0,0.0,0.0,0.0,0.0,0.0,0.0,2.2099,0.0,0.0,2.1893,2.1893,0.0,0.0,0.0,0.0,0.0,2.5176,2.4696,2.3951,2.3206,2.2445,0.0,0.0,2.2041,2.1812,0.0,0.0,0.0,0.0,2.3867,2.5901,2.81,3.1707,3.6145,4.0874,4.4842,4.7533,4.659,4.8767,5.1045,4.9271,5.0281,5.1206,4.8489,4.5949,4.2408,3.5789,3.2531,2.9138,2.2879,2.1934,2.2089,2.1659,2.2917,2.5459,2.9794,3.1589,3.4905,4.1932,4.2803,4.497,5.1123,5.0887,5.1118,5.3415,5.272,5.2089,5.1921,5.1921,5.2051,5.2376,5.2904,5.3268,5.3437,5.359,5.3911,5.4464,5.4057,5.3583,5.3043,5.3718,5.2898,5.0883,5.2459,5.2402,5.1195,5.2867,0.0,0.0,5.4314,5.4058,5.2627,5.2812,5.2524,5.1958,5.2106,5.2574,5.3324,0.0,0.0,0.0,0.0,0.0,0.0,0.0,2.3247,2.4729,2.7972,2.6971,2.5995,2.5993,2.3935,2.2296,0.0,0.0,0.0,0.0,0.0,0.0,0.0,0.0,0.0,0.0,0.0,0.0,2.2604,2.2555,0.0,0.0,0.0,0.0,0.0,0.0,2.4645,2.3951,2.3142,0.0,0.0,0.0,0.0,0.0,0.0,0.0,0.0,0.0,2.2872,2.3316,2.7026,2.8699,2.9707,3.263,3.8929,4.5022,4.4021,4.6685,4.982,4.9021,4.993,5.0548,4.8354,4.5228,4.1465,3.6837,3.21,2.7765,2.4497,2.1768,2.0769,2.3348,2.3964,2.5494,2.9814,3.0726,3.2962,3.8877,4.1421,4.4344,4.8895,4.9991,5.1154,5.3238,5.1719,5.1355,5.3105,5.3202,5.297,5.2442,5.2475,5.2879,5.3654,5.2948,5.3126,5.4289,5.3754,5.294,5.1842,5.2203,5.159,5.0073,5.1603,5.1847,5.1197,5.3353,0.0,0.0,5.5277,5.4716,5.2188,5.4357,5.3492,5.1184,5.1801,5.2133,5.246,0.0,0.0,0.0,0.0,0.0,0.0,2.3697,2.3966,2.516,2.883,2.8334,2.7465,2.6971,2.5654,2.3836,2.1476,0.0,0.0,0.0,0.0,0.0,0.0,0.0,0.0,0.0,0.0,2.1524,2.1904,2.1904,0.0,0.0,0.0,0.0,0.0,0.0,2.4513,2.453,2.2845,0.0,0.0,0.0,0.0,0.0,0.0,0.0,0.0,0.0,0.0,2.1881,2.292,2.4508,2.6065,2.6155,3.0244,3.5604,3.8563,4.2505,4.5993,4.624,4.836,4.9914,4.7247,4.487,4.1546,3.5413,3.21,2.8641,2.2715,2.1249,2.1135,2.1444,2.2215,2.3766,2.6766,2.7393,2.9708,3.6009,3.7327,4.0408,4.7794,4.9327,5.0723,5.3313,5.2886,5.2354,5.225,5.1851,5.1885,5.2518,5.2445,5.2812,5.369,5.2845,5.272,5.3443,5.321,5.2626,5.1696,5.1842,5.1215,4.9931,5.1045,5.1361,5.1205,5.2967,0.0,0.0,5.4231,5.3758,5.1597,5.3406,5.2849,5.1046,5.129,5.1152,5.0934,0.0,0.0,0.0,0.0,0.0,2.1271,2.3935,2.4287,2.54,2.8661,2.8612,2.802,2.7477,2.6258,2.4588,2.2414,2.1679,0.0,0.0,0.0,0.0,0.0,0.0,0.0,0.0,0.0,2.1352,2.1712,2.1484,2.1858,0.0,0.0,2.4047,2.461,0.0,0.0,0.0,0.0,0.0,0.0,0.0,0.0,0.0,0.0,0.0,0.0,0.0,0.0,0.0,0.0,0.0,2.3141,2.1783,2.3746,2.7599,3.3081,3.7912,4.176,4.3069,4.607,4.8327,4.6074,4.3591,4.0078,3.3881,3.0892,2.757,2.1153,2.0438,2.0758,1.9963,2.0791,2.23,2.4481,2.5514,2.8062,3.3806,3.46,3.7601,4.5721,4.7063,4.8696,5.2319,5.3249,5.3116,5.1853,5.1488,5.1684,5.2608,5.2296,5.2536,5.3428,5.2817,5.2587,5.2799,5.2694,5.2272,5.1512,5.1438,5.0758,4.9487,5.0371,5.0574,5.0365,5.1917,0.0,0.0,5.3424,5.3394,5.2102,5.3344,5.3078,5.1908,5.1475,5.0848,5.0295,0.0,0.0,0.0,0.0,0.0,0.0,2.2487,2.3997,2.557,2.7224,2.7405,2.7405,2.7405,2.5244,2.4078,2.4809,2.3023,0.0,0.0,0.0,0.0,0.0,0.0,0.0,0.0,0.0,2.1977,2.2377,2.1649,2.2102,2.36,2.36,2.3685,2.3803,0.0,0.0,0.0,0.0,0.0,0.0,0.0,0.0,1.9963,0.0,0.0,0.0,0.0,0.0,0.0,0.0,0.0,0.0,0.0,2.0671,2.2889,2.8139,3.3128,3.7475,3.9801,4.3015,4.5515,4.502,4.1078,3.6322,3.2727,2.7937,2.3423,2.0512,1.9328,1.9071,1.9752,2.0451,2.1635,2.3842,2.6083,2.8848,3.2524,3.4275,3.7077,4.2171,4.2659,4.4591,4.9756,5.2175,5.3135,5.2442,5.3003,0.0,5.2819,5.1941,5.1878,5.2868,5.2694,5.2589,5.2589,5.2236,5.1696,5.1102,5.0914,4.9978,4.8435,4.9455,4.9367,4.8531,0.0,0.0,0.0,5.3323,5.4209,5.418,5.497,5.4859,5.4059,5.2568,5.1543,5.092,0.0,0.0,0.0,0.0,0.0,0.0,0.0,2.1941,2.2998,2.4038,2.4628,2.4954,2.4954,2.3795,2.3123,2.3381,2.3221,0.0,0.0,0.0,0.0,0.0,0.0,0.0,0.0,2.1417,2.1579,2.3224,2.2443,2.2362,2.2916,2.3439,2.3506,2.3174,2.3127,2.3276,0.0,0.0,0.0,0.0,0.0,2.0326,2.0364,0.0,0.0,0.0,0.0,0.0,0.0,0.0,0.0,0.0,0.0,0.0,0.0,2.3784,2.7885,3.2265,3.3993,3.6728,3.8823,3.772,3.5447,3.253,2.8934,2.65,2.3858,1.9954,1.9362,1.945,1.9131,2.0478,2.2538,2.5263,2.7533,3.0162,3.348,3.6078,3.9159,4.3113,4.7367,5.0817,5.2901,5.3085,5.309,5.3069,5.2622,5.2447,5.2712,5.2015,5.1962,5.2785,5.2141,5.1984,5.248,5.1911,5.1438,5.1065,5.0608,4.9713,4.8435,4.9455,4.9367,0.0,0.0,0.0,0.0,5.3177,5.4027,5.3951,5.4306,5.4393,5.4131,5.2568,5.1575,5.092,0.0,0.0,0.0,0.0,0.0,0.0,0.0,2.0526,2.1224,2.1721,2.2202,2.2709,2.3324,2.2419,2.2047,2.2662,2.272,0.0,0.0,0.0,0.0,0.0,0.0,0.0,2.2475,2.142,2.1904,2.4024,2.2785,2.2949,2.4397,2.3983,2.3638,2.3414,2.3039,2.2779,0.0,0.0,0.0,0.0,1.9913,1.9604,1.9684,0.0,0.0,0.0,0.0,0.0,0.0,0.0,0.0,0.0,0.0,0.0,0.0,0.0,2.4413,2.7596,2.9497,3.2009,3.3939,3.3395,3.1471,2.9034,2.6285,2.4457,2.2459,1.9433,1.9672,2.0166,1.9349,2.1029,2.3044,2.4591,2.732,3.0081,3.2441,3.5239,3.848,4.2273,4.7631,5.1312,5.2017,5.2266,5.2293,5.2202,5.1569,5.1255,5.1379,5.1063,5.1145,5.1674,5.1592,5.1729,5.2125,5.1655,5.129,5.1065,5.0493,4.9681,4.8849,4.9885,4.9914,0.0,0.0,0.0,0.0,5.2794,5.3725,5.4359,5.4188,5.4336,5.4487,5.2663,5.1733,5.1227,0.0,0.0,0.0,0.0,0.0,0.0,0.0,1.981,2.0318,2.0273,2.0273,2.0843,2.2281,2.1096,2.0807,2.2281,0.0,0.0,0.0,0.0,0.0,0.0,0.0,0.0,2.1827,2.1812,2.2781,2.4729,2.288,2.3766,2.7217,2.5062,2.4098,2.4233,2.341,2.2098,2.049,0.0,0.0,0.0,1.846,1.8029,0.0,0.0,0.0,0.0,0.0,0.0,0.0,0.0,0.0,0.0,0.0,0.0,0.0,0.0,0.0,0.0,0.0,2.8491,3.0289,3.1173,2.8632,2.5681,2.4578,2.209,0.0,1.9261,2.034,2.1147,2.0365,2.2057,2.3395,2.2893,2.6303,2.9355,3.0388,3.311,3.6506,4.0681,4.4897,4.7736,4.8378,5.0334,5.1242,5.048,5.0434,5.0168,4.9533,4.9582,4.9812,5.0082,5.1135,5.1729,5.1831,5.1586,5.1369,5.1112,5.0576,4.9995,4.9471,5.0611,5.0949,0.0,0.0,0.0,0.0,5.2377,5.3346,5.5231,5.438,5.4591,5.4996,5.2822,5.2017,5.1828,0.0,0.0,0.0,0.0,0.0,0.0,0.0,0.0,0.0,0.0,2.0146,2.0037,1.9738,1.9371,1.9299,0.0,0.0,0.0,0.0,0.0,0.0,0.0,0.0,0.0,2.1901,2.1842,2.2889,2.5162,2.3967,2.4346,2.6099,2.5429,2.4729,2.3976,2.3339,2.2409,2.1277,2.0377,0.0,0.0,1.9695,1.9491,0.0,0.0,0.0,0.0,1.7855,1.7955,0.0,0.0,0.0,0.0,0.0,0.0,0.0,0.0,2.164,2.2434,2.314,0.0,2.4388,2.5208,2.3003,2.1002,0.0,2.1366,2.0297,2.1372,2.1874,2.2235,2.2539,2.3966,2.5663,2.7444,3.0075,3.2584,3.4509,3.9257,4.36,4.6465,4.9393,5.1017,5.075,5.2175,5.3026,5.2659,5.2807,5.2663,5.2145,5.1089,5.0948,5.1929,5.1662,5.1958,5.2993,5.2503,5.1976,5.1411,5.1474,5.0427,4.8564,5.0874,5.1448,0.0,0.0,0.0,5.3186,5.2949,5.3825,5.5231,5.438,5.4591,5.4996,5.2822,5.2017,5.1828,0.0,0.0,0.0,0.0,0.0,0.0,0.0,0.0,0.0,0.0,0.0,0.0,0.0,0.0,0.0,0.0,0.0,0.0,0.0,0.0,0.0,0.0,0.0,2.1411,2.1169,2.1587,2.3039,2.5591,2.4564,2.5379,2.7811,2.6788,2.6037,2.5554,2.3215,2.1568,2.0497,1.9773,2.0143,2.1008,1.9616,0.0,0.0,0.0,0.0,0.0,1.8087,1.8187,0.0,1.889,2.0042,2.1216,0.0,0.0,0.0,0.0,2.2672,2.3636,2.4099,2.3489,2.3129,2.4575,2.2651,2.0934,2.2926,2.1929,2.0873,2.2037,2.2601,2.3104,2.3733,2.4846,2.6286,2.8267,3.0523,3.3506,3.7728,4.1753,4.5328,4.8243,4.9792,5.0722,0.0,5.2029,5.2433,5.195,5.2179,5.222,5.196,5.1452,5.1499,5.2261,5.2296,5.2547,5.2981,5.2934,5.2433,5.1491,5.2053,5.1317,4.9525,5.1991,5.2802,0.0,0.0,0.0,5.404,5.2788,5.3245,5.4549,5.3985,5.4147,5.4414,5.2562,5.196,5.1845,0.0,0.0,0.0,0.0,0.0,0.0,0.0,0.0,0.0,0.0,0.0,0.0,0.0,0.0,0.0,0.0,0.0,0.0,0.0,0.0,0.0,0.0,2.0699,2.0656,2.0509,2.1366,2.3075,2.5628,2.493,2.6471,3.0,2.8407,2.7615,2.7291,2.3433,2.0962,1.9703,1.8949,1.9454,2.0566,1.9082,0.0,0.0,0.0,0.0,0.0,0.0,0.0,0.0,1.9399,2.0188,2.0832,2.0647,0.0,0.0,0.0,0.0,0.0,2.6286,2.5338,2.4508,2.6351,2.4625,2.2931,2.4645,2.324,2.1806,2.2815,2.3628,2.4365,2.5004,2.62,2.7317,2.808,3.0456,3.4454,4.0856,4.3015,4.5123,4.8251,4.8921,4.9493,5.0498,5.1168,5.1252,5.057,5.0849,5.108,5.1122,5.1561,5.1924,5.2279,5.311,5.3314,5.2803,5.3315,5.2977,5.1764,5.2639,5.2367,5.1116,5.3105,5.4157,5.4293,0.0,0.0,5.4924,5.252,5.2381,5.3714,5.3415,5.3512,5.3643,5.226,5.1851,5.1855,0.0,0.0,0.0,0.0,0.0,0.0,0.0,0.0,0.0,0.0,0.0,0.0,0.0,0.0,0.0,0.0,0.0,0.0,0.0,0.0,0.0,2.0689,2.0746,2.0955,2.1573,2.1716,2.2656,2.4381,2.5411,2.679,2.8459,2.9399,2.8579,2.6288,2.4988,2.3419,2.1695,2.0685,2.0751,2.1404,1.928,0.0,0.0,0.0,0.0,0.0,0.0,0.0,0.0,1.9631,2.0603,2.1516,2.0311,0.0,0.0,0.0,0.0,0.0,2.5526,2.6438,2.7114,2.6927,2.5028,2.3812,2.6043,2.4739,2.3846,2.6554,2.7199,2.7539,2.8252,3.1104,3.2773,3.1136,3.4778,3.9725,4.5333,4.6862,4.7925,4.9189,5.0791,5.1451,5.0522,5.151,5.2194,5.2053,5.2343,5.2697,5.2975,5.2735,5.3078,5.4076,5.4261,5.4295,5.4207,5.4303,5.3862,5.2951,5.3798,5.3389,5.1867,5.2774,5.3924,5.5107,0.0,5.3136,5.4704,5.2799,5.2562,5.3434,5.297,5.3087,5.3369,5.2324,5.1871,5.1546,0.0,0.0,0.0,0.0,0.0,0.0,0.0,0.0,0.0,0.0,0.0,0.0,0.0,0.0,0.0,0.0,0.0,0.0,0.0,0.0,1.9166,2.1732,2.1238,2.1321,2.216,2.2758,2.418,2.6516,2.7344,2.8902,3.1063,3.0398,2.8865,2.6562,2.4853,2.3406,2.218,2.1236,2.1173,2.1573,0.0,0.0,0.0,0.0,0.0,0.0,0.0,0.0,0.0,0.0,2.0936,2.2197,2.0384,0.0,0.0,0.0,0.0,0.0,2.5443,2.6387,2.7435,2.8351,2.7791,2.7402,2.8804,2.774,2.6911,2.8687,2.8418,2.825,2.9403,3.137,3.358,3.5935,4.0034,4.4023,4.7099,4.8015,4.8689,4.9455,5.0693,5.1192,5.0458,5.1758,5.2659,5.2659,5.3179,5.3584,5.3716,5.3341,5.3569,5.4463,5.4106,5.4106,5.4529,5.4494,5.402,5.3172,5.4055,5.3398,5.1463,5.2943,5.3817,5.4119,0.0,5.3612,5.5505,5.3317,5.3052,5.403,5.3668,5.3646,5.3815,5.3714,5.3557,5.3156,0.0,0.0,0.0,0.0,0.0,0.0,0.0,0.0,0.0,0.0,0.0,0.0,0.0,0.0,0.0,0.0,0.0,0.0,0.0,1.8558,1.9794,2.2682,2.2003,2.2252,2.3737,2.4396,2.5967,2.8453,2.9252,3.099,3.3477,3.1339,2.9268,2.7289,2.4956,2.3385,2.2357,2.1651,2.1477,2.1624,0.0,0.0,0.0,0.0,0.0,0.0,0.0,0.0,0.0,0.0,0.0,0.0,0.0,0.0,0.0,2.2973,2.36,2.4861,2.5256,2.6015,2.7164,2.9207,2.9766,3.0239,3.1705,3.0875,3.0108,3.126,3.0678,3.0266,3.1308,3.2334,3.4888,4.0705,4.4581,4.7429,4.8954,4.9272,4.9551,5.0057,5.0525,5.0726,5.0493,5.1731,5.247,5.247,5.3074,5.3468,5.3468,5.3238,5.3391,5.3942,5.3598,5.3598,5.3977,5.4149,5.388,5.3169,5.4086,5.344,5.1559,5.3141,5.3811,5.3625,5.3103,5.408,5.5898,5.3735,5.3518,5.4581,5.3985,5.3873,5.4051,5.459,5.4708,5.4472,0.0,0.0,0.0,0.0,0.0,0.0,0.0,0.0,0.0,0.0,0.0,0.0,0.0,0.0,0.0,0.0,0.0,0.0,0.0,1.9245,2.0574,2.2961,2.3075,2.4464,2.747,2.6927,2.7046,2.7946,3.0144,3.1932,3.3192,3.2104,3.0349,2.8128,2.6549,2.4657,2.2746,2.2451,2.2116,2.1731,2.095,0.0,0.0,0.0,0.0,0.0,0.0,0.0,0.0,0.0,0.0,0.0,0.0,0.0,2.3022,2.0853,2.1681,2.3435,2.4326,2.5576,2.696,2.8508,2.8986,3.0123,3.4174,3.352,3.2869,3.5656,3.6288,3.6185,3.5745,3.7126,3.9884,4.4553,4.7207,4.9641,5.2605,5.2436,5.1932,5.1664,5.1361,5.1023,5.0727,5.1058,5.1321,5.1321,5.1675,5.1865,5.1865,5.2138,5.2291,5.236,5.3046,5.308,5.236,5.3115,5.346,5.336,5.4149,5.4052,5.3238,5.3144,5.3856,5.514,5.3653,5.3746,5.4943,5.3745,5.3832,5.4561,5.3112,5.286,5.3414,5.3614,5.3955,5.4128,0.0,0.0,0.0,0.0,0.0,0.0,0.0,0.0,0.0,0.0,0.0,0.0,0.0,0.0,0.0,0.0,0.0,0.0,0.0,1.9482,2.0894,2.3188,2.3663,2.5386,2.8631,2.8472,2.9036,3.0451,3.2222,3.3268,3.3666,3.1299,2.9469,2.8058,2.5685,2.391,2.2669,2.2599,2.2295,2.1746,2.0984,2.1414,0.0,0.0,0.0,0.0,0.0,0.0,0.0,0.0,2.1759,2.2637,2.1711,2.2912,2.4316,2.2603,2.3287,2.4487,2.397,2.5559,2.7805,2.97,3.0282,3.1272,3.4678,3.5531,3.6399,3.9224,3.9214,3.871,3.8608,3.9798,4.2065,4.6079,4.8073,4.9943,5.2209,5.2051,5.1519,5.0916,5.1114,5.1046,5.0382,5.1043,5.1505,5.1505,5.1819,5.2004,5.2004,5.1679,5.1735,5.2188,5.2046,5.2046,5.2188,5.2528,5.2425,5.1977,5.2735,5.2901,5.2624,5.2536,5.3111,5.4124,5.3517,5.4025,5.5281,5.4907,5.4548,5.4186,5.3181,5.3629,5.4939,5.5359,5.617,5.6862,0.0,0.0,0.0,0.0,0.0,0.0,0.0,0.0,0.0,0.0,0.0,0.0,0.0,0.0,0.0,0.0,0.0,0.0,1.9713,2.0208,2.1524,2.3856,2.433,2.5778,2.8558,2.878,2.9908,3.2021,3.3054,3.3371,3.2913,3.0494,2.8838,2.784,2.5586,2.3964,2.289,2.2938,2.2499,2.1779,2.1249,2.1647,0.0,0.0,0.0,0.0,0.0,0.0,0.0,0.0,2.2157,2.3171,2.2502,2.3467,2.4565,2.3124,2.3534,2.4249,2.3313,2.5002,2.7602,2.9806,3.0962,3.2598,3.6559,3.7787,3.9039,4.2355,4.2252,4.1401,4.0764,4.1928,4.3761,4.6261,4.867,5.0583,5.1588,5.1648,5.1256,5.0206,5.0608,5.068,4.9986,5.0673,5.1165,5.1165,5.1378,5.1528,5.1528,5.1045,5.1011,5.1494,5.1045,5.1011,5.1498,5.1528,5.1252,5.0769,5.1287,5.1768,5.2219,5.2458,5.3,5.3749,5.3749,5.4422,5.56,5.5578,5.4929,5.396,5.3446,5.3963,5.5017,5.547,5.6573,5.76,0.0,0.0,0.0,0.0,0.0,0.0,0.0,0.0,0.0,0.0,0.0,0.0,0.0,0.0,0.0,0.0,0.0,0.0,2.1471,2.1551,2.2584,2.4958,2.501,2.5724,2.7249,2.769,2.9229,3.1966,3.2318,3.1872,3.0682,2.9799,2.874,2.7566,2.6679,2.5265,2.3511,2.3511,2.2859,2.1812,2.1812,2.1812,2.1879,0.0,0.0,0.0,0.0,0.0,0.0,0.0,2.2559,2.3171,2.2502,2.2835,2.3139,2.163,2.1711,2.2247,2.2299,2.389,2.6084,2.845,3.0702,3.3969,4.027,4.0402,4.0483,4.4973,4.5644,4.4682,4.2368,4.3726,4.5238,4.5325,4.905,5.176,5.1188,5.1705,5.1511,4.9736,4.9801,4.986,4.9564,4.9801,5.0011,5.0011,5.0011,5.0011,5.0011,5.0011,5.0011,5.0011,5.0011,5.0011,5.0011,5.0011,5.0011,5.0011,5.0011,5.0769,5.2222,5.3011,5.3804,5.4494,5.4494,5.4943,5.5602,5.5519,5.4903,5.4003,5.393,5.3524,5.3049,5.3474,5.4463,5.5603,0.0,0.0,0.0,0.0,0.0,0.0,0.0,0.0,0.0,0.0,0.0,0.0,0.0,0.0,0.0,0.0,0.0,0.0,2.1345,2.2376,2.3084,2.3256,2.4557,2.5273,2.5248,2.6452,2.7946,2.9808,3.0662,3.0751,3.0025,2.9041,2.8126,2.7376,2.7228,2.5973,2.405,2.4902,2.4467,2.3238,2.3579,2.3373,2.2862,0.0,0.0,0.0,0.0,0.0,0.0,0.0,0.0,0.0,2.2367,2.353,2.456,2.2564,2.3955,2.5796,2.4255,2.5879,2.85,3.077,3.2983,3.5814,4.0315,4.0968,4.1782,4.5864,4.6321,4.5966,4.5747,4.6371,4.71,4.7533,4.9309,5.0538,5.0326,5.0528,5.0464,4.9928,4.9952,4.9982,4.986,4.9952,5.0011,5.0011,5.0011,5.0011,5.0011,5.0011,5.0011,5.0011,5.0011,5.0011,5.0011,5.0011,5.0011,5.0011,5.0011,5.0493,5.1459,5.2218,5.2977,5.377,5.4839,5.5115,5.4778,5.4187,5.3801,5.3508,5.2692,5.2645,5.3193,5.4163,5.5391,5.6633,0.0,0.0,0.0,0.0,0.0,0.0,0.0,0.0,0.0,0.0,2.1123,2.0417,0.0,0.0,0.0,0.0,0.0,0.0,2.259,2.3027,2.3599,2.4377,2.465,2.4899,2.5094,2.6318,2.7226,2.7848,2.9037,2.951,2.9215,2.9166,2.8623,2.776,2.8646,2.7602,2.5236,2.6044,2.5487,2.411,2.4225,2.385,2.3152,0.0,0.0,0.0,0.0,0.0,0.0,0.0,0.0,0.0,2.1953,2.3579,2.5182,2.2535,2.4052,2.625,2.4849,2.6691,2.9754,3.2848,3.5284,3.7946,4.1834,4.3389,4.4865,4.7626,4.7695,4.7533,4.8232,4.8518,4.8741,4.9103,5.04,5.1045,5.0149,5.0252,5.0321,5.0045,5.0011,5.0114,5.0424,5.0183,5.0011,5.0011,4.97,4.9424,4.9114,4.9666,4.9873,4.9528,5.0114,5.0321,5.0011,5.0011,5.0011,5.0011,5.0321,5.0528,5.07,5.1735,5.2666,5.346,5.4667,5.5081,5.4916,5.4393,5.4236,5.4197,5.3493,5.3324,5.3568,5.4311,5.5218,5.604,0.0,0.0,0.0,0.0,0.0,0.0,0.0,0.0,0.0,0.0,2.1006,2.0934,0.0,0.0,0.0,0.0,0.0,0.0,0.0,2.3545,2.4151,2.6958,2.5226,2.4839,2.6208,2.6857,2.6906,2.6303,2.7713,2.8376,2.831,2.9722,2.9643,2.8458,3.0353,2.9551,2.6739,2.7053,2.618,2.4581,2.4408,2.3716,2.2937,2.3782,0.0,0.0,0.0,0.0,0.0,0.0,0.0,0.0,2.1473,2.3154,2.5075,2.2102,2.2951,2.4905,2.4919,2.6962,3.0161,3.4607,3.7686,4.0637,4.4702,4.721,4.8939,4.9815,4.9499,4.9361,5.0183,5.0183,5.0114,5.0114,5.1735,5.2252,5.008,5.0424,5.0666,5.008,5.0011,5.0287,5.1045,5.039,4.9942,5.0011,4.9189,4.843,4.781,4.9051,4.943,4.8678,5.009,5.0504,4.9849,4.9918,4.9958,5.0027,5.0681,5.071,5.009,5.1533,5.2666,5.3425,5.4046,5.4736,5.5396,5.5315,5.5343,5.5411,5.5318,5.4812,5.4142,5.4161,5.4361,5.4652,0.0,0.0,0.0,0.0,0.0,0.0,0.0,0.0,0.0,0.0,0.0,0.0,0.0,0.0,0.0,0.0,0.0,0.0,0.0,2.4252,2.4732,2.5382,2.6006,2.643,2.6691,2.6349,2.6488,2.705,2.7945,2.8111,2.7566,2.8751,2.8924,2.8202,2.921,2.8642,2.7007,2.8007,2.7183,2.5289,2.6328,2.4996,2.2469,2.3598,2.3152,0.0,0.0,0.0,0.0,0.0,0.0,0.0,2.1393,2.2772,2.4461,2.3245,2.4508,2.6657,2.8398,2.9345,3.0954,3.5419,4.0426,4.5286,4.9226,5.054,5.0792,5.0159,5.0715,5.1584,5.2498,5.1701,5.0873,5.0873,5.0257,4.9396,4.8355,4.881,4.9465,4.9942,5.0011,5.0287,5.1045,4.9844,4.9292,4.9942,4.8734,4.8092,4.8392,4.8186,4.7889,4.7632,4.8494,4.8846,4.8494,4.9074,4.9596,0.0,5.0376,5.0465,5.0518,5.1683,5.2666,5.3391,5.2908,5.3149,5.388,5.382,5.3822,5.3889,5.3752,5.3973,5.4453,5.4708,5.5024,5.5557,0.0,0.0,0.0,0.0,0.0,0.0,0.0,0.0,0.0,0.0,0.0,0.0,0.0,0.0,0.0,0.0,0.0,0.0,0.0,0.0,2.4324,2.4551,2.6048,2.6852,2.6907,2.6233,2.657,2.7925,2.7703,2.7666,2.7845,2.912,2.9341,2.8765,2.9858,2.9573,2.8273,2.8895,2.8045,2.6435,2.7136,2.586,2.3624,2.3915,2.3399,2.2508,2.2988,0.0,0.0,0.0,0.0,0.0,0.0,0.0,2.4197,2.3148,2.4443,2.6606,2.843,3.0036,3.2476,3.8048,4.3132,4.7221,4.8961,4.9967,5.0397,4.9973,5.0479,5.13,5.2119,5.1045,4.9982,4.9982,4.9327,4.8534,4.7775,4.8017,4.843,4.8872,4.8907,4.9355,5.0459,4.9183,4.8568,4.939,4.8045,4.7128,4.7079,4.7333,4.7249,4.6731,4.7768,4.823,4.8018,4.8361,4.908,5.0103,5.0536,5.1065,5.1657,5.1687,5.2114,5.2804,5.2011,5.2114,5.2877,5.319,5.3574,5.3986,5.4628,5.495,5.5076,5.5399,5.5572,5.5712,0.0,0.0,0.0,0.0,0.0,0.0,0.0,0.0,0.0,0.0,0.0,0.0,0.0,0.0,0.0,0.0,0.0,0.0,0.0,0.0,0.0,2.4936,2.6472,2.7374,2.7528,2.6833,2.7295,2.8979,2.7893,2.8023,2.9296,3.0028,3.014,2.9736,3.0685,3.0455,2.9273,2.9346,2.8596,2.7302,2.7487,2.6533,2.498,2.4464,2.3863,2.3289,2.3414,2.3074,2.2651,2.3137,0.0,0.0,0.0,0.0,2.3995,2.296,2.4,2.5844,2.7483,3.0441,3.4527,4.0595,4.4654,4.7153,4.7136,4.8175,4.9214,4.959,4.9801,5.0188,5.0976,4.974,4.8637,4.8775,4.8465,4.7948,4.7217,4.7217,4.7327,4.7465,4.75,4.8114,4.9666,4.8424,4.781,4.8534,4.7113,4.6052,4.5784,4.6364,4.6501,4.6032,4.7009,4.7547,4.7575,4.768,4.8492,4.9944,5.0615,5.1483,5.2548,5.1336,5.1313,5.2153,5.1395,5.1429,5.205,5.2873,5.3632,5.4434,5.5757,5.5996,5.5642,5.5979,5.5869,5.5477,0.0,0.0,0.0,0.0,0.0,0.0,0.0,0.0,0.0,0.0,2.3075,2.3862,0.0,0.0,0.0,0.0,0.0,0.0,0.0,0.0,0.0,2.8069,2.9076,2.9638,2.96,2.9062,2.9297,3.042,3.0125,3.0956,3.2768,3.0824,3.0241,3.0816,2.9751,2.8785,2.8022,2.8699,2.817,2.6985,2.8056,2.7018,2.4762,2.4913,2.4547,2.3996,2.4043,2.4088,2.4031,2.3549,2.3688,0.0,0.0,0.0,2.3602,2.4306,2.4588,2.5252,2.8078,3.2408,3.7032,4.0493,4.2692,4.466,4.7192,4.8086,4.8511,4.9218,4.953,5.0007,5.0947,4.9292,4.8051,4.8706,4.7121,4.5604,4.4863,4.532,4.5949,4.6665,4.6769,4.7327,4.881,4.7631,4.7052,4.7775,4.5837,4.5371,4.7127,4.4868,4.4202,4.5716,4.5172,4.5282,4.6221,4.6764,4.7766,4.9227,4.9657,5.045,5.1641,5.0313,5.06,5.2153,5.1309,5.1064,5.1321,5.208,5.2839,5.3607,5.4398,5.5076,5.5642,5.5979,5.5675,5.5179,0.0,0.0,0.0,0.0,0.0,0.0,0.0,0.0,0.0,0.0,0.0,2.3757,0.0,0.0,0.0,0.0,0.0,0.0,0.0,0.0,0.0,2.7139,2.7997,2.8422,2.8315,2.8625,2.9026,2.9533,3.0537,3.2293,3.4635,3.355,3.2715,3.2148,3.1489,3.0296,2.8762,2.9027,2.8328,2.7133,2.8414,2.7571,2.5547,2.5661,2.5629,2.5531,2.563,2.5505,2.5323,2.5375,2.5007,2.4569,2.4824,0.0,0.0,0.0,2.5289,2.5847,2.9336,3.2517,3.5712,3.9146,4.0477,4.1711,4.4694,4.5117,4.5235,4.651,4.6948,4.7489,4.8833,4.7554,4.6419,4.6845,4.5734,4.4665,4.4345,4.4561,4.4906,4.5251,4.5699,4.6362,4.7431,4.6569,4.6224,4.7044,4.5734,4.5328,4.6281,4.4989,4.4441,4.5021,4.4547,4.4595,4.5275,4.5514,4.6609,4.8498,4.9493,5.0326,5.1021,5.0555,5.104,5.2153,5.135,5.1275,5.1774,5.2563,5.308,5.3504,5.4568,5.5281,5.5642,5.5979,5.5949,5.5621,0.0,0.0,0.0,0.0,0.0,0.0,0.0,0.0,0.0,0.0,0.0,0.0,0.0,0.0,0.0,0.0,0.0,0.0,0.0,0.0,0.0,2.6417,2.7199,2.7462,2.7118,2.8026,2.8542,2.8644,3.0609,3.288,3.5419,3.6112,3.5564,3.3984,3.3717,3.2253,3.0024,2.9919,2.9248,2.8319,2.8733,2.7827,2.6236,2.5897,2.5814,2.5967,2.6084,2.6043,2.5959,2.651,2.5915,2.4978,2.5232,2.4765,0.0,0.0,0.0,2.6252,2.9487,3.1467,3.3275,3.6084,3.735,3.843,4.0663,4.1441,4.2102,4.3389,4.4204,4.4961,4.6145,4.5719,4.5325,4.5673,4.5079,4.4492,4.4345,4.4311,4.4311,4.4311,4.4803,4.5432,4.6224,4.5742,4.5638,4.6251,4.5596,4.5294,4.5673,4.5042,4.4734,4.4818,4.4277,4.4231,4.4718,4.4887,4.5881,4.7736,4.8829,4.9726,5.0425,5.0593,5.1286,5.2341,5.1838,5.1933,5.2532,5.3149,5.3529,5.3811,5.5042,5.5585,5.5641,5.6094,5.6061,5.562,0.0,0.0,0.0,0.0,0.0,0.0,0.0,0.0,0.0,0.0,0.0,0.0,2.6271,2.6454,2.6779,2.7603,2.84,0.0,0.0,0.0,0.0,2.7728,2.8404,0.0,2.7501,2.8164,2.8562,2.8699,3.0814,3.2914,3.4906,3.7449,3.7952,3.665,3.562,3.3713,3.1215,3.1363,3.1306,3.102,2.9101,2.7612,2.6338,2.4997,2.4342,2.4149,2.4278,2.4873,2.5655,2.5866,2.5913,2.5887,2.6286,2.5163,2.3941,0.0,0.0,0.0,2.7466,2.9072,3.0311,3.0514,3.2679,3.4776,3.4912,3.7686,4.0282,4.0501,4.2226,4.3564,4.3203,4.4389,4.5638,4.6397,4.5845,4.5113,4.4414,4.4311,4.4311,4.4311,4.4345,4.463,4.5397,4.5432,4.5432,4.5466,4.4768,4.4975,4.6458,4.4458,4.4018,4.5591,4.4013,4.3667,4.4685,4.5384,4.6146,4.6974,4.704,4.7963,4.9654,4.9686,5.0826,5.2848,5.2975,5.3101,5.3356,5.3391,5.3804,5.4529,5.5292,5.5568,5.5669,5.6464,5.5843,5.4537,0.0,0.0,0.0,0.0,0.0,0.0,0.0,0.0,0.0,0.0,0.0,0.0,0.0,2.6512,2.7061,2.8436,2.9186,0.0,0.0,0.0,0.0,2.9089,2.9355,2.9317,2.8976,2.9355,2.9246,2.8637,3.1043,3.2889,3.4283,3.6141,3.6257,3.4993,3.6572,3.507,3.1385,3.1847,3.0669,2.8638,2.9265,2.8271,2.6483,2.6943,2.7037,2.6985,2.6894,2.7673,2.8767,2.8469,0.0,0.0,0.0,2.7128,2.6784,2.6485,2.6683,2.7232,2.83,2.8994,2.9754,3.1269,3.2029,3.2747,3.4167,3.674,3.8686,3.8153,4.1171,4.3536,4.227,4.2988,4.4079,4.4975,4.4458,4.4044,4.4276,4.4311,4.4311,4.4311,4.4734,4.5087,4.5363,4.5397,4.5397,4.5397,4.4208,4.4174,4.5742,4.407,4.3717,4.5199,4.4667,4.4328,4.429,4.4843,4.5218,4.5483,4.6444,4.7237,4.7897,4.9094,5.0424,5.1849,5.2614,5.3413,5.4115,5.4115,5.4563,5.5253,5.5529,5.5943,5.6357,5.6115,5.5701,5.5118,0.0,0.0,0.0,0.0,0.0,0.0,0.0,0.0,2.5879,2.6417,0.0,0.0,0.0,0.0,2.7464,2.8865,2.96,2.972,2.9112,2.9228,2.9238,2.9087,2.9595,2.9608,2.9112,2.9721,2.9612,2.8737,3.0631,3.2349,3.384,3.4881,3.51,3.4697,3.6741,3.5667,3.2374,3.3301,3.2368,3.028,3.0596,2.9801,2.8459,2.9093,2.9072,2.8811,2.9283,2.9775,3.0161,0.0,0.0,0.0,0.0,2.8007,2.7751,2.7002,2.7094,2.7604,2.8402,2.8418,2.8655,3.0455,3.0707,3.0784,3.1968,3.4716,3.6752,3.5948,3.9211,4.1881,4.0768,4.1263,4.2358,4.4009,4.3897,4.3655,4.3897,4.4138,4.4311,4.4311,4.4941,4.5397,4.5397,4.5397,4.5397,4.5397,4.4415,0.0,4.5328,4.4415,4.4181,4.4988,4.4879,4.4575,4.4097,4.436,4.4577,4.4688,4.5947,4.6643,4.6941,4.866,4.992,5.0877,5.1913,5.2983,5.4149,5.4391,5.4805,5.5288,5.5497,5.5943,5.6357,5.6115,5.5839,5.5529,0.0,0.0,0.0,0.0,0.0,0.0,0.0,0.0,2.6527,2.6527,0.0,0.0,0.0,0.0,0.0,2.8975,2.971,2.9502,2.7942,2.8505,2.8542,2.7789,0.0,0.0,2.7869,2.921,2.9636,2.906,2.971,3.1266,3.3587,3.399,3.4855,3.6061,3.6153,3.5373,3.4175,3.5703,3.6417,3.6254,3.3083,3.1979,3.2119,3.1145,3.0021,2.9194,3.1132,3.0808,0.0,3.0775,0.0,0.0,0.0,2.7806,2.6521,2.6274,2.6473,2.6928,0.0,0.0,0.0,2.7689,2.845,2.884,2.806,3.1385,3.4495,3.3878,3.6187,3.8402,3.8469,3.9146,4.0664,4.3655,4.4207,4.4035,4.331,4.3862,4.4311,4.4311,4.4906,4.5328,4.5363,4.5363,4.5363,4.5397,4.5328,4.5328,4.5397,4.5397,4.5291,4.5022,4.4686,4.4378,4.4126,4.4126,4.4286,4.4685,4.5448,4.621,4.6939,4.8398,4.9458,5.0166,5.0847,5.2009,5.3394,5.4149,5.446,5.4563,5.5255,5.5566,5.5704,5.6427,5.6255,5.56,0.0,0.0,0.0,0.0,0.0,2.743,2.7101,2.7211,2.7346,0.0,0.0,0.0,2.7675,2.8759,2.9759,3.0576,3.0857,3.104,3.115,3.0832,3.0782,3.1124,3.0976,3.0976,3.1186,3.0989,3.0819,3.065,3.0882,3.1664,3.2897,3.2985,3.3132,3.3358,3.4571,3.4457,3.3362,3.4341,3.363,3.1913,3.2414,3.1745,3.0646,3.21,3.1463,3.0059,3.2246,3.2754,3.2406,0.0,3.2762,3.23,0.0,2.9077,2.7572,0.0,0.0,2.8561,2.8513,0.0,0.0,0.0,0.0,0.0,2.9514,3.1763,3.3564,3.2256,3.498,3.7269,3.6191,3.8033,3.9802,4.0135,4.2068,4.3621,4.3966,4.4173,4.4311,4.4311,4.4035,4.4035,4.4527,4.4596,4.4837,0.0,4.3769,4.3563,4.5328,4.5397,4.5371,4.5291,4.4988,4.4824,4.4776,4.4519,4.4451,4.4567,4.5879,4.6619,4.6854,4.8084,4.9342,5.0478,5.075,5.1351,5.2224,5.2647,5.3494,5.4428,5.3796,5.459,5.5925,5.5102,5.5243,5.5689,0.0,0.0,0.0,0.0,0.0,2.8759,2.8271,2.8503,2.893,0.0,0.0,0.0,2.9223,3.0332,3.0991,3.077,3.1355,3.1939,3.2428,3.2318,3.2464,3.2939,3.2487,3.2464,3.298,3.2501,3.2441,3.2823,3.2151,3.2604,3.4137,3.344,3.3213,3.3399,3.4219,3.3984,3.295,3.3405,3.3359,3.3142,3.388,3.405,3.3987,3.5259,3.4718,3.358,0.0,0.0,3.5194,3.4745,3.4562,0.0,0.0,0.0,0.0,0.0,0.0,0.0,0.0,2.9517,2.9713,3.0393,0.0,0.0,2.9277,3.1002,3.2275,3.0795,3.3137,3.518,3.4246,3.6075,3.7701,3.7597,3.9893,4.1985,4.2792,4.3138,4.3448,4.3793,4.3448,4.3379,4.3793,4.4104,4.4345,4.4458,4.345,4.345,4.4872,4.4941,4.5079,4.5397,4.5264,4.513,4.5022,4.4797,4.4659,4.4519,4.6041,4.6786,4.6853,4.8124,4.9159,4.994,5.0278,5.0647,5.1063,5.1558,5.2472,5.3532,5.2861,5.3784,5.5383,5.4566,5.5145,5.6302,0.0,0.0,2.9599,2.7306,2.8173,2.9161,2.9149,2.9783,3.0747,0.0,3.304,3.3063,3.1767,3.2062,3.177,3.039,3.1581,3.2383,3.2397,3.325,3.3724,3.3738,3.3817,3.3845,3.3858,3.3862,3.4256,3.5004,3.3547,3.3963,3.6119,3.4614,3.4284,3.4844,3.452,3.3785,3.2866,3.2859,3.4533,3.7062,3.6128,3.7146,3.9167,3.8946,3.8381,3.7835,3.8979,3.8663,3.7504,3.6428,3.5416,0.0,0.0,0.0,0.0,0.0,2.9472,0.0,0.0,0.0,0.0,3.0934,3.0784,0.0,2.8601,2.9866,3.0984,2.9775,3.117,3.2586,3.2651,3.3779,3.496,3.5668,3.7647,3.9445,4.0468,4.1354,4.2068,4.2492,4.2723,4.2861,4.293,4.3621,4.3828,4.3241,4.3793,4.4138,4.4069,4.4138,4.4458,4.5121,4.5225,4.5153,4.4912,4.4981,4.4879,4.4603,4.6157,4.6903,4.6971,4.8372,4.9049,4.9083,4.9803,5.0143,5.0242,5.0986,5.1694,5.23,5.2165,5.3112,5.4565,5.443,5.5515,5.6975,0.0,3.0015,3.0747,2.9588,3.0186,3.0819,3.0768,3.0916,3.1161,3.1415,3.2221,3.3126,3.4151,3.2574,3.1584,3.1886,3.2161,3.2329,3.2397,3.3747,3.4578,3.4649,3.47,3.4765,3.4756,3.5416,3.554,3.5004,3.5343,3.543,3.5261,3.4931,3.4491,3.4014,3.3669,3.3421,3.3208,3.3282,3.4129,3.5407,3.4678,3.554,3.7305,3.777,3.7339,3.6739,3.8958,3.8866,3.7504,3.6861,3.6106,3.505,0.0,0.0,0.0,3.0545,0.0,0.0,0.0,0.0,0.0,0.0,0.0,0.0,3.1379,3.0891,3.0489,3.0821,3.0791,3.095,3.1621,3.2476,3.3126,3.3262,3.4719,3.6563,3.8665,4.0227,4.0433,3.8654,3.9583,4.0653,4.1309,4.2033,4.2654,4.3172,4.331,4.3138,4.2482,4.3069,4.3483,4.3621,4.4207,4.4492,4.444,4.5034,4.5291,4.5238,4.6783,4.7505,4.7573,4.8553,4.9172,4.9453,4.9956,5.0326,5.0693,5.1727,5.22,5.2199,5.1329,5.2638,5.4852,5.3644,5.4848,5.6888,2.9049,2.9953,3.0625,3.0198,3.0442,3.11,3.2255,3.2148,3.2504,3.4128,3.4706,3.4948,3.4914,3.341,3.237,3.2324,3.3043,3.3727,3.4127,3.5367,3.6069,3.6054,3.5584,3.5321,3.5293,3.6115,3.6385,3.5994,3.6113,3.6003,3.5628,3.5188,3.4275,3.3068,3.4243,3.4051,3.287,3.374,3.4615,3.5373,3.4958,3.5972,3.7786,3.8029,3.8121,3.8238,3.9446,3.9076,3.7844,3.6769,3.6614,0.0,3.4642,3.3873,3.3458,0.0,3.1474,3.0671,0.0,0.0,0.0,3.1529,0.0,0.0,0.0,3.0673,3.0609,3.0258,3.0534,3.0825,3.0825,3.1457,3.2071,3.248,3.3523,3.4554,3.5403,3.7921,3.9698,3.9663,4.002,4.0284,4.0284,4.1319,4.2171,4.2585,4.1895,4.1619,4.1999,4.2378,4.2792,4.3172,4.3931,4.4311,4.4311,4.5044,4.5344,4.5211,4.6344,4.7015,4.7284,4.8086,4.8646,4.9086,5.0024,5.0459,5.0558,5.1848,5.2389,5.2267,5.136,5.2324,5.4156,5.3423,5.4556,5.6425,2.9464,2.9977,3.043,3.0515,3.0442,3.1027,3.3122,3.2797,3.3423,3.6582,3.7147,3.6868,3.5811,3.4623,3.3814,3.3618,3.4228,3.5072,3.61,3.6947,3.7307,3.6994,3.6495,3.6005,3.5648,3.6555,3.7022,3.6991,3.651,3.623,3.6194,3.5286,3.4047,3.2611,3.4543,3.4594,3.3301,3.4359,3.539,3.6297,3.6208,3.7168,3.8596,3.869,3.9219,3.9935,3.9952,3.9412,3.8412,3.6737,3.6912,3.7547,3.6026,3.5074,0.0,0.0,0.0,0.0,0.0,0.0,0.0,0.0,0.0,3.1489,0.0,0.0,0.0,2.9952,3.05,3.1064,3.0512,3.0866,3.1497,3.2128,3.274,0.0,0.0,3.5403,0.0,3.9766,3.9824,3.948,3.886,4.033,4.1388,4.1526,4.0388,4.0319,4.1698,4.1654,4.193,4.2723,4.3483,4.3906,4.3993,4.4724,4.5115,4.5118,4.5868,4.6504,4.7022,4.7706,4.8195,4.855,4.9858,5.0326,5.032,5.1612,5.2277,5.2307,5.1413,5.2108,5.3599,5.3334,5.4439,5.615,3.1127,3.1151,3.138,3.2032,3.1597,3.1477,3.2434,3.1955,3.2423,3.4883,3.5929,3.7094,3.8776,3.6498,3.5871,3.8432,3.581,3.4914,3.6999,3.7403,3.7169,3.6266,3.7607,3.7499,3.5716,3.718,3.7614,3.6906,3.683,3.6463,3.5732,3.4954,3.4285,3.3772,3.2706,3.3832,3.6479,3.5367,3.6155,3.8227,3.8262,3.8094,3.7937,3.8807,3.921,3.937,3.9901,3.9952,3.9421,0.0,3.6899,3.6886,0.0,3.4565,3.3741,3.3635,0.0,0.0,0.0,0.0,0.0,0.0,3.3152,0.0,0.0,0.0,3.1345,3.1839,0.0,3.0431,3.0973,0.0,0.0,3.1312,3.1433,3.1947,3.3291,3.3312,3.3025,3.267,3.4391,3.5561,3.5459,3.7556,3.9193,3.9905,3.9802,4.0077,4.0998,4.0353,4.0319,4.1136,4.1895,4.2462,4.2894,4.3613,4.4511,4.5529,4.6336,4.7052,4.7673,4.8202,4.848,4.8517,4.9061,4.9625,5.0286,5.1082,5.1812,5.2241,5.0883,5.2009,5.4229,5.297,5.4266,5.652,3.1236,3.1334,3.1591,3.2394,3.1871,3.1774,3.3016,3.3726,3.4481,3.5433,3.6333,3.7717,3.9908,3.8277,3.7703,3.9393,3.8189,3.7521,3.8022,3.7718,3.7506,3.7398,3.7286,3.6604,3.5289,3.6684,3.7022,3.6257,3.645,3.6393,3.6051,3.5244,3.4401,3.3634,3.3695,3.4393,3.5598,3.6586,3.7396,3.8157,3.897,3.878,0.0,3.8955,3.9607,3.9963,3.919,3.9393,3.9589,0.0,3.7331,0.0,0.0,0.0,0.0,3.6092,0.0,0.0,0.0,0.0,0.0,0.0,0.0,0.0,3.4319,0.0,3.242,0.0,0.0,0.0,0.0,0.0,0.0,0.0,3.119,3.1278,0.0,0.0,3.1361,3.3762,0.0,0.0,3.6208,3.5981,3.6298,3.7575,3.7679,3.7988,3.8745,3.9399,4.0043,4.086,4.1474,4.2081,4.2706,4.3299,4.4175,4.5379,4.5715,4.6364,4.7285,4.7493,4.7796,4.8262,4.8862,4.9525,5.0286,5.0982,5.1746,5.231,5.1247,5.1843,5.3301,5.3533,5.4394,5.5521,3.1743,3.1468,3.1433,3.264,3.2056,3.1874,3.3256,3.4637,3.5711,3.6286,3.6765,3.8108,4.0978,3.9844,3.9605,4.1393,4.0918,4.0396,4.0117,3.8889,3.8135,3.8003,3.7255,3.631,3.5044,3.6578,3.6946,3.6111,3.6338,3.6326,3.6149,3.5332,3.4711,3.4222,3.471,3.5249,3.5902,3.7681,3.848,3.8677,3.9832,3.9755,3.8974,3.9268,3.9932,4.0518,3.9279,3.9384,3.9778,3.696,3.798,0.0,3.8105,0.0,0.0,0.0,0.0,0.0,3.5187,0.0,0.0,0.0,0.0,0.0,0.0,0.0,0.0,0.0,0.0,0.0,0.0,0.0,0.0,0.0,0.0,3.1157,0.0,2.9973,3.093,3.3741,0.0,0.0,0.0,3.4651,3.4343,3.5749,3.6002,3.6529,3.7489,3.8574,3.965,4.0645,4.1203,4.1801,4.2445,4.297,4.3866,4.5053,4.5254,4.5898,4.6908,4.7106,4.7504,4.8034,4.8564,4.9326,5.0253,5.0783,5.1545,5.2376,5.1812,5.1945,5.2539,5.3765,5.446,5.5032,3.3368,3.1683,3.0881,3.3177,3.2358,3.1678,3.2509,3.3412,3.4776,3.7059,3.6809,3.8114,4.2541,4.1126,4.1632,4.6096,4.3989,4.2798,4.3742,4.1429,3.914,3.7219,3.8065,3.7583,3.5412,3.7469,3.7974,3.6865,3.6805,3.6439,3.5814,3.4985,3.5196,3.6167,3.4772,3.6069,3.9284,3.8517,3.9129,4.0648,4.1288,4.1243,4.0709,0.0,3.9932,4.068,4.0645,0.0,0.0,3.9008,3.8747,0.0,0.0,0.0,0.0,0.0,0.0,0.0,0.0,0.0,0.0,3.717,0.0,0.0,0.0,0.0,3.4472,0.0,0.0,0.0,0.0,0.0,0.0,0.0,0.0,0.0,0.0,3.1292,3.1447,2.9468,2.9897,0.0,0.0,3.3339,3.4117,3.4869,3.5479,3.6491,3.7989,3.7926,3.8565,4.007,4.0823,4.1411,4.182,4.2562,4.3523,4.4718,4.5448,4.6146,4.6908,4.7636,4.7968,4.8001,4.8034,4.8862,5.022,5.0253,5.1082,5.2409,5.2376,5.2409,5.2473,5.3169,5.4472,5.5813,3.4258,3.3364,3.2907,3.4311,3.4096,3.3867,3.4156,3.3568,3.4621,3.8876,3.957,4.1658,4.7024,4.6565,4.6534,4.8258,4.6993,4.5903,4.5364,4.3712,4.2299,4.1307,4.0976,3.9905,3.7942,3.7977,3.7647,3.69,3.6113,3.5867,3.6131,3.5833,3.5925,3.6249,3.5249,3.5897,3.7733,3.8942,3.9578,3.9804,4.019,4.0792,4.1342,0.0,4.0569,4.0823,4.0823,4.0728,0.0,3.9346,3.9787,4.0642,3.9567,3.9914,4.0723,4.064,4.032,0.0,0.0,0.0,3.9792,3.8768,0.0,0.0,0.0,0.0,0.0,0.0,0.0,0.0,0.0,0.0,0.0,0.0,0.0,0.0,0.0,3.0548,3.0751,3.0499,3.0688,3.1288,0.0,0.0,3.0394,3.1696,3.2494,3.3101,3.3645,3.7058,3.9116,3.9433,4.1086,4.2126,4.2501,4.2599,4.3319,4.4688,4.4953,4.5715,4.6908,4.7139,4.7537,4.8001,4.8001,4.8829,5.022,5.022,5.1082,5.2376,5.1879,5.2014,5.2684,5.3881,5.4608,5.5098,3.4637,3.4452,3.4435,3.5255,3.5145,3.5257,3.6163,3.6209,3.7707,4.2149,4.3336,4.5476,4.9952,4.9525,4.9227,4.9957,4.9576,4.847,4.6593,4.565,4.4505,4.3158,4.217,4.0983,0.0,0.0,0.0,3.7607,3.6554,3.6345,3.696,3.6517,3.6456,3.6697,3.6215,3.6367,3.7137,3.9504,4.007,3.9465,3.9848,4.0556,0.0,0.0,4.1099,4.1999,0.0,4.0995,4.1006,4.0053,4.0516,4.135,4.0643,4.1151,4.2056,4.2462,4.2019,4.1427,4.1439,4.1239,0.0,4.0793,3.9779,0.0,3.8984,0.0,0.0,0.0,0.0,0.0,0.0,0.0,0.0,0.0,0.0,0.0,0.0,3.1224,3.1157,3.1901,3.1534,3.1235,3.1259,2.9492,2.8609,2.9304,3.0323,3.1172,0.0,0.0,3.8526,3.8814,4.0867,4.225,4.276,4.2854,4.3396,4.4324,4.4556,4.5317,4.651,4.6775,4.7305,4.8001,4.8299,4.9094,5.022,5.0485,5.1148,5.1978,5.1956,5.2128,5.2532,5.3554,5.4372,5.509,3.479,3.5072,3.5343,3.6055,3.555,3.5851,3.8384,4.0708,4.3305,4.6488,4.772,4.9153,5.1364,5.0238,4.993,5.1455,5.1725,5.0628,4.7802,4.7359,4.5929,4.3011,4.2031,4.123,4.0436,0.0,0.0,0.0,3.7968,3.7715,3.8184,3.6947,3.6766,3.7512,3.7512,3.7512,3.765,4.0122,4.0631,3.9847,4.0206,4.0621,4.0847,3.9785,4.1435,4.4,4.1723,4.1343,4.1861,4.1136,4.0894,4.117,4.262,4.2137,4.1447,4.3552,4.3207,4.2348,4.3225,4.2949,4.2591,4.3076,0.0,0.0,0.0,0.0,3.8046,0.0,0.0,0.0,0.0,0.0,0.0,0.0,0.0,0.0,0.0,0.0,3.2564,3.3254,3.2116,3.073,2.9265,2.9175,2.8835,2.7944,2.9231,3.063,0.0,0.0,3.6861,3.8243,4.0265,4.1735,4.2502,4.3197,4.3532,4.3598,4.4357,4.5086,4.5814,4.6543,4.7305,4.8034,4.8796,4.9525,5.0286,5.0982,5.1315,5.145,5.2604,5.264,5.2102,5.2424,5.3868,5.579,3.6597,3.6853,3.6927,3.7096,3.6805,3.722,3.926,4.0132,4.239,4.7683,4.9258,5.1092,5.4197,5.4138,5.3991,5.414,5.3525,5.2884,5.2344,5.1102,4.9354,4.6989,4.6811,4.5321,4.2243,4.1706,4.1041,4.0158,3.814,3.7479,3.8184,3.7519,3.7305,3.7512,3.7512,3.7512,3.765,3.9997,4.1054,4.1053,3.9282,3.9739,4.1327,0.0,4.1435,4.4,4.1723,4.1032,4.117,4.0963,4.0894,4.0963,4.1378,4.1999,4.262,4.2585,4.3252,4.3805,4.2925,4.3115,4.3442,4.3029,4.1993,4.1056,0.0,0.0,0.0,0.0,0.0,0.0,0.0,0.0,0.0,0.0,0.0,0.0,0.0,0.0,0.0,3.2564,3.1772,3.1099,3.0806,2.8834,2.7997,2.8991,2.9279,3.0113,0.0,0.0,0.0,3.8043,3.9598,4.1198,4.2756,4.2342,4.2622,4.3598,4.4357,4.5086,4.5814,4.6543,4.7305,4.8034,4.8796,4.9525,5.0286,5.0982,5.1647,5.2113,5.2235,5.2435,5.2731,5.4053,5.5436,5.6578,3.7235,3.7883,3.824,3.805,3.9584,4.0945,4.1294,4.2056,4.4319,4.9312,5.1395,5.3042,5.4464,5.5185,5.5405,5.487,5.4166,5.361,5.332,5.2446,5.1297,4.9992,4.8895,4.7069,4.4396,4.2646,0.0,4.091,3.831,3.7705,3.8948,3.7624,3.6973,3.6973,3.6973,3.6973,3.7146,3.979,4.1271,4.1719,4.0514,4.0973,0.0,4.0524,4.1297,4.3069,4.1481,4.1101,4.1343,4.0998,4.0894,4.1032,4.1688,4.2313,4.2871,4.2955,4.3409,4.3663,4.2766,4.3021,4.3543,4.3485,4.2928,4.23,4.2053,4.0786,3.9501,0.0,0.0,0.0,0.0,0.0,0.0,0.0,0.0,0.0,0.0,0.0,0.0,0.0,3.3025,3.2734,3.1511,2.8767,2.76,2.8903,2.9197,0.0,0.0,0.0,0.0,3.7324,4.0011,4.1937,4.2931,4.3108,4.3498,4.4182,4.458,4.5313,4.6278,4.6709,4.7471,4.8531,4.926,5.0021,5.0717,5.1149,5.1347,5.145,5.1764,5.2866,5.4424,5.5587,5.6121,5.6207,3.7142,3.8295,3.9056,3.8883,4.2531,4.5197,4.4272,4.5831,4.8277,5.1457,5.3988,5.5141,5.424,5.5189,5.5625,5.5011,5.4453,5.3779,5.2927,5.2739,5.2475,5.1946,4.9653,4.7696,4.6259,4.315,4.1546,0.0,3.8829,3.8384,3.9944,3.7672,3.6559,3.6456,3.6456,3.6628,3.7042,3.9503,4.1123,4.1995,4.2457,4.2714,4.2684,4.1351,4.1391,4.2068,4.1447,4.1481,4.1757,4.1136,4.0918,4.1183,4.2482,4.2677,4.2577,4.3558,4.3412,4.2845,4.2554,4.2863,4.3381,4.3893,4.3676,4.327,4.2849,4.2064,4.107,3.9785,3.991,3.974,0.0,0.0,0.0,0.0,0.0,0.0,0.0,0.0,0.0,0.0,0.0,0.0,3.1842,2.9334,2.8091,2.8693,0.0,0.0,0.0,0.0,0.0,3.6565,4.0347,4.265,4.3154,0.0,4.4942,4.5169,4.51,4.5673,4.6908,4.7007,4.7768,4.9061,4.9856,5.0553,5.1119,5.1216,5.1052,5.0657,5.1647,5.3669,5.6199,5.6698,5.6302,5.5505,3.6884,3.7667,3.8524,3.9535,4.2573,4.5846,4.8844,5.1422,5.3461,5.4696,5.6839,5.8141,5.7978,5.7608,5.743,5.7482,5.6235,5.545,5.5281,0.0,0.0,5.2066,5.1558,4.9619,4.5908,4.4923,4.3829,4.244,4.0577,3.9756,3.9978,3.8757,3.787,3.7305,3.7305,3.8341,4.0043,3.9146,0.0,4.1747,4.1859,4.1517,4.1121,4.229,4.2812,4.2965,4.2827,4.2068,4.1067,4.0929,4.1012,4.1186,4.1276,4.1821,4.2276,4.1657,4.2389,4.3114,4.18,4.2773,4.3845,4.2812,4.2626,4.2473,4.1673,4.1002,4.0383,3.9918,3.9884,4.0036,4.0296,0.0,0.0,0.0,0.0,0.0,0.0,0.0,0.0,0.0,0.0,3.3591,0.0,0.0,0.0,0.0,0.0,0.0,0.0,0.0,0.0,0.0,3.7704,0.0,0.0,0.0,4.4049,4.6542,4.6067,4.6203,4.6908,4.7537,4.8097,4.8655,4.9759,5.0091,4.9992,5.0921,5.1791,5.2639,5.3274,5.448,5.5971,5.6656,5.6765,5.6536,3.9308,3.9289,3.9878,4.1751,4.5378,4.91,5.2226,5.5673,5.7376,5.5781,5.6547,5.721,5.721,5.7906,5.8108,5.7406,5.6769,5.6195,5.5766,5.5485,5.4901,5.4025,5.2842,5.0767,4.7685,4.6128,4.4726,4.3362,4.0866,3.9985,4.0646,3.8437,3.7422,3.7512,3.7512,3.8341,3.9733,0.0,0.0,4.1965,4.3142,4.3142,4.2584,4.3432,4.3759,4.3724,4.3235,4.2299,4.1312,4.1505,4.1418,4.1256,4.1661,4.2161,4.2486,4.1846,4.2381,4.2859,4.1568,4.2321,4.3311,4.2438,4.2722,4.2921,4.1588,4.1204,4.0905,4.0052,3.9884,3.9961,4.017,3.9078,0.0,0.0,0.0,0.0,0.0,0.0,0.0,0.0,0.0,0.0,0.0,0.0,0.0,0.0,0.0,0.0,0.0,0.0,0.0,0.0,0.0,0.0,0.0,0.0,0.0,4.6437,4.6686,4.7443,4.8547,4.8704,4.9325,5.0382,5.0377,5.0385,5.0387,5.0658,5.1521,5.2767,5.3174,5.4657,5.6637,5.719,5.7709,5.7939,4.2264,4.2171,4.2869,4.5199,4.9223,5.2874,5.5176,5.8727,6.0111,5.7144,5.6741,5.6741,5.6741,5.8204,5.8509,5.6928,5.6972,5.648,5.4985,5.5343,5.5417,5.5077,5.3518,5.1605,4.941,4.7022,4.5303,4.4163,4.1314,4.0508,4.1512,3.862,3.7422,3.7754,0.0,0.0,0.0,0.0,4.2516,4.2654,4.4604,4.4872,4.4069,4.4242,4.4311,4.4216,4.3615,4.286,4.2183,4.2492,4.196,4.1325,4.2219,4.2637,4.2659,4.2183,4.2323,4.2439,4.1603,4.1916,4.2427,4.2268,4.2849,4.3065,4.1537,4.1405,4.1318,4.0076,4.0153,4.024,3.9637,3.9634,0.0,0.0,0.0,0.0,0.0,0.0,0.0,0.0,0.0,0.0,3.5263,0.0,0.0,0.0,0.0,0.0,3.2784,0.0,0.0,0.0,0.0,4.1136,4.2674,0.0,4.6401,4.6791,4.7533,4.8619,4.9952,4.9645,5.0287,5.1687,5.0883,5.0757,5.1054,5.086,5.1518,5.2682,5.3279,5.5073,5.7364,5.7869,5.8555,5.9039,4.4443,4.6097,4.814,5.0165,5.3249,5.6072,5.7842,6.0058,6.126,6.0646,6.0589,6.0589,6.0589,6.0191,5.9152,5.7301,5.7515,5.6229,5.2775,5.5071,5.5405,5.274,5.3413,5.2404,4.9286,4.7665,4.617,0.0,4.3331,4.2603,0.0,4.113,0.0,0.0,0.0,0.0,0.0,4.3414,4.4069,4.4173,4.5018,4.4561,4.3379,4.4035,4.4311,4.4354,4.4844,4.449,4.3872,4.3838,4.257,4.1175,4.1973,4.2416,4.2405,4.1347,4.1529,4.2047,4.1954,4.1637,4.1487,4.2133,4.2005,4.1512,4.0681,4.0606,4.0521,3.9845,4.0987,4.1565,3.9967,4.0127,3.9579,0.0,0.0,0.0,0.0,0.0,0.0,3.4644,0.0,0.0,3.5021,3.5471,3.5155,3.3529,3.3423,0.0,0.0,0.0,0.0,3.7832,0.0,4.0264,4.5115,4.5744,4.712,4.9255,4.9058,4.9127,4.9475,4.9669,5.0022,5.048,5.0612,5.0754,5.1025,5.2303,5.3033,5.3476,5.5212,5.644,5.7432,5.8497,5.8952,5.9036,4.7996,4.8641,5.0061,5.2569,5.4489,5.6543,5.9177,6.0555,6.1187,6.1094,6.1119,6.1119,6.1119,6.0854,6.0,5.8368,5.8383,5.7426,5.5065,5.6117,5.6229,5.4722,5.4352,5.3448,5.1824,4.9508,4.7806,0.0,0.0,0.0,0.0,0.0,0.0,0.0,0.0,4.2639,4.3483,4.501,4.5665,4.5734,4.6466,4.5872,4.4561,4.4872,4.4699,4.4251,4.4036,4.3606,4.3218,4.3872,4.3269,4.2299,4.2575,4.2679,4.2645,4.2319,4.2208,4.2245,4.2364,4.2158,4.1878,4.1957,4.2173,4.22,4.1654,4.1732,4.1838,4.1568,4.169,4.1512,4.0383,4.0802,4.0758,0.0,0.0,0.0,0.0,0.0,0.0,0.0,0.0,3.6681,0.0,3.6873,3.6287,3.6107,0.0,0.0,0.0,0.0,0.0,3.7399,0.0,4.1044,4.3681,4.6309,4.8088,4.8951,4.9619,5.0446,5.1302,5.0886,5.0994,5.145,5.1772,5.2058,5.2413,5.3416,5.4022,5.4429,5.5179,5.6404,5.7839,5.8139,5.8878,5.9654,5.1832,5.2089,5.306,5.5485,5.6592,5.7752,5.9595,6.0585,6.0953,6.0523,6.0854,6.1119,6.1119,6.1119,6.0464,5.8854,5.8807,5.8123,5.6229,5.6658,5.6638,5.5833,5.5028,0.0,5.3652,5.1201,4.9627,4.8967,4.6632,0.0,0.0,0.0,0.0,0.0,4.3811,4.4673,4.5079,4.6596,4.7113,4.6975,4.7465,4.6914,4.5707,4.5251,4.4734,4.4207,4.3398,4.2971,4.2959,4.3768,4.3733,4.3407,4.3289,4.3134,4.3031,4.2877,4.2773,4.2705,4.2864,4.2649,4.2395,4.25,4.2724,4.2825,4.2597,4.268,4.2668,4.223,4.2116,4.1767,4.0492,4.1237,4.1591,4.0185,0.0,0.0,0.0,0.0,0.0,0.0,3.6894,3.6956,3.8666,3.7559,3.6899,3.7429,0.0,0.0,0.0,0.0,0.0,0.0,0.0,0.0,0.0,4.6851,4.8664,4.8978,5.0314,5.136,5.2072,5.2031,5.2342,5.2929,5.3637,5.3848,5.377,5.47,5.5179,5.5415,5.5754,5.6809,5.8139,5.8374,5.9018,5.9826,5.5803,5.6949,5.8177,5.9669,6.0523,6.0556,5.9138,6.0158,6.0589,5.9131,6.0191,6.1119,6.1119,6.1119,6.0347,5.8474,5.8667,5.773,5.4906,5.6124,5.6355,0.0,0.0,5.4937,5.4016,5.2445,5.147,5.105,0.0,0.0,4.6535,0.0,4.5222,4.5432,4.6811,4.7114,4.6665,4.8155,4.8327,4.77,4.7672,4.7224,4.6424,4.4872,4.4311,4.4207,4.3398,4.3288,4.3593,4.3627,4.3799,4.4044,4.3851,4.3693,4.3396,4.255,4.2908,4.3566,4.343,4.2942,4.2765,4.3979,4.358,4.2931,4.2959,4.2879,4.2422,4.109,4.22,4.2645,4.0158,4.1323,4.174,3.8791,0.0,0.0,0.0,0.0,0.0,0.0,3.6822,3.6522,3.718,3.6801,0.0,0.0,0.0,0.0,0.0,0.0,0.0,3.8764,3.9175,0.0,4.5818,4.735,4.8761,5.0103,5.1374,5.1557,5.0873,5.2856,5.4052,5.4585,5.6171,5.6024,5.4814,5.6272,5.6601,5.6303,5.7563,5.8073,5.8243,5.9564,5.9615,5.9124,5.5844,5.7348,5.8787,5.9649,6.0543,6.0953,6.049,6.0821,6.0953,6.0456,6.0821,6.1119,6.1119,6.1119,6.0663,0.0,5.8413,5.7496,0.0,5.6328,5.6172,5.6474,5.6052,5.5416,5.4567,5.3295,5.208,5.0901,0.0,0.0,0.0,4.6965,4.6725,4.7272,4.8258,4.8633,4.8487,4.9303,4.9493,4.9286,4.9286,4.8803,4.7913,4.6458,4.5527,4.488,4.3468,4.3245,4.3593,4.3484,4.3995,4.4653,4.4562,4.4524,4.4461,4.4318,4.4298,4.4407,4.4586,4.3963,4.3437,4.4135,4.4068,4.3923,4.423,4.4609,4.4575,4.3424,4.4024,4.422,4.2421,4.2706,4.2634,4.0925,4.1028,0.0,0.0,0.0,0.0,0.0,3.7069,3.6321,3.7441,3.7271,0.0,0.0,0.0,0.0,0.0,0.0,0.0,0.0,4.2706,0.0,4.5845,4.8635,5.034,5.097,5.107,5.1651,5.2756,5.378,5.4952,5.6071,5.654,5.6425,5.6043,5.6675,5.6747,5.6488,5.651,5.7086,5.7957,5.8359,5.8737,5.9124,5.7308,5.8469,5.9517,6.0111,6.0702,6.092,6.0357,6.0755,6.092,6.0357,6.0755,6.1119,6.1119,6.1119,0.0,6.0456,5.9332,5.858,5.8322,5.7524,5.7181,5.7406,5.6658,5.5991,5.5551,5.4293,0.0,5.2304,5.142,5.0646,5.0016,4.8446,4.8271,4.9361,4.9799,4.9868,4.9743,5.0195,5.0252,5.0011,5.0011,4.97,4.9085,4.7596,4.6446,4.5444,4.388,4.3318,4.3382,4.3713,4.4313,4.4997,4.5324,4.5681,4.5939,4.5554,4.5333,4.5208,4.5363,4.477,4.4175,4.447,4.4298,4.4121,4.4463,4.4891,4.4975,4.4029,4.4409,4.4514,4.325,4.2925,4.274,4.2406,4.192,4.1784,4.2437,0.0,0.0,0.0,0.0,0.0,0.0,3.8892,3.9067,0.0,0.0,0.0,0.0,0.0,0.0,4.095,4.4333,0.0,4.6828,4.9173,5.057,5.0997,5.1438,5.2602,5.4409,5.5383,5.6317,5.7208,5.7399,5.7158,5.6601,5.6749,5.6741,5.6566,5.623,5.678,5.786,5.8141,5.8562,5.9124,5.9743,6.01,6.0357,0.0,6.1185,0.0,5.933,6.0258,6.0622,5.9231,6.0299,6.1127,6.1127,6.1202,6.1169,6.1169,0.0,0.0,0.0,5.9326,5.8849,5.7692,5.6917,5.6586,5.6731,5.5277,5.4601,5.4771,5.2198,5.1382,5.2252,5.0011,4.9907,5.1558,5.1163,5.0812,5.055,5.0857,5.0636,5.005,4.9982,4.9982,4.9838,4.8327,4.7127,4.6082,4.4692,4.3749,4.3294,4.4282,4.485,4.529,4.6143,4.712,4.768,4.636,4.6034,4.6096,4.5972,4.5441,4.4967,4.4997,4.4408,4.385,4.406,4.4211,4.4131,4.3427,4.3863,4.4039,4.3194,4.2478,4.2344,4.332,4.1398,4.0552,4.2643,0.0,0.0,0.0,0.0,0.0,0.0,4.1193,4.1488,0.0,0.0,0.0,0.0,0.0,4.1208,4.2181,4.4492,4.6691,4.8608,4.9206,4.9828,5.0481,5.2352,5.4119,5.5748,5.7228,5.7842,5.786,5.8597,5.8035,5.6596,5.6596,5.6596,5.6596,5.6526,5.7052,5.7895,5.8632,5.8948,5.9124,0.0,0.0,6.185,6.2472,6.2216,6.1824,6.1492,6.1218,6.0986,6.0622,6.1143,6.1547,6.1547,6.183,6.203,6.203,6.0443,5.9535,5.9852,5.871,5.7969,5.7845,5.7243,5.6636,5.6095,5.5212,5.46,5.4352,5.3144,5.2754,5.308,5.1592,5.1338,5.2112,5.0939,5.0881,5.1622,5.0395,5.0163,5.0557,5.0007,4.986,4.9907,4.8913,4.8226,4.7631,4.6544,4.5857,4.5537,4.5678,4.6155,4.6726,4.7015,4.7768,4.836,4.7622,4.7325,4.7231,4.7356,4.6514,4.5701,4.6186,4.614,4.6005,4.6035,4.6357,4.6544,4.6255,4.6324,4.6424,4.6162,4.466,4.3576,4.4024,4.2254,4.1019,4.1447,4.0027,0.0,0.0,3.9431,3.9889,4.141,4.1299,4.1805,0.0,0.0,0.0,0.0,4.3777,4.3983,4.4194,4.681,4.8413,4.8671,4.9974,5.106,5.2002,5.3358,5.4559,5.5572,5.6515,5.7258,5.7825,5.8,5.7509,5.6596,5.6596,5.6596,5.6526,5.5999,5.6596,5.7825,5.8,5.8492,5.9124,6.0476,6.1224,6.1808,6.2107,6.1858,6.1682,6.1682,6.1351,6.1202,6.1334,6.1547,6.179,6.1917,6.2156,6.2391,6.262,6.1612,6.0719,6.0148,5.9565,5.8853,5.7952,5.7476,5.7034,5.652,5.5474,5.4635,5.398,5.3667,5.3653,5.3873,5.2853,5.2627,5.2969,5.1647,5.1454,5.2175,5.0738,5.0403,5.0738,5.0076,4.9889,4.9942,4.9499,4.8913,4.8246,4.7547,4.7083,4.6843,4.7118,4.7688,4.8388,4.8978,4.963,5.0147,4.9922,4.9399,4.8843,4.8625,4.8186,4.7742,4.7561,4.7224,4.7026,4.7423,4.7675,4.7788,4.7693,4.7331,4.72,4.75,4.5535,4.4056,4.4503,4.2072,4.0383,4.1018,3.9662,0.0,4.0838,4.0958,4.1681,4.3666,4.3962,4.4347,4.5211,4.5001,0.0,4.5635,4.713,4.7471,4.6385,4.8588,4.9915,5.0217,5.1201,5.2234,5.3334,5.4373,5.5262,5.6034,5.6806,5.7338,5.7666,5.7666,5.739,5.6908,5.6619,5.651,5.647,5.6145,5.6526,5.7333,5.807,5.8632,5.9124,6.1318,6.1616,6.1715,6.1616,6.1583,6.1516,6.1318,6.1285,6.1385,6.1662,6.175,6.1951,6.2352,6.2469,6.2659,6.3076,6.3315,6.2537,6.0438,6.074,6.0129,5.8092,5.7808,5.7588,5.7402,5.5959,5.473,5.375,5.3915,5.4207,5.4557,5.3767,5.3579,5.3892,5.2567,5.2234,5.2555,5.1378,5.0909,5.0909,5.0233,4.9982,5.0011,5.0011,4.9389,4.8514,4.8188,4.7891,4.7847,4.845,4.9153,4.9889,5.0853,5.1437,5.1771,5.1924,5.1394,5.0598,5.0035,5.01,5.0067,4.9175,4.8349,4.7953,4.8684,4.8754,4.8691,4.8594,4.7865,4.747,4.8067,4.6036,4.4393,4.479,4.1688,3.9697,4.0916,0.0,3.9479,4.2822,4.2896,4.37,4.6371,4.7238,4.7451,4.7061,4.8787,4.9321,4.8135,5.0218,5.0605,4.8826,5.0154,5.133,5.2232,5.2605,5.3369,5.4489,5.5297,5.5999,5.6631,5.7408,5.7666,5.7541,5.7615,5.752,5.7254,5.6854,5.6567,5.6418,5.6645,5.6741,5.6947,5.8457,5.9159,5.944,6.2951,6.3935,6.4564,6.3935,6.3802,6.3405,6.2179,6.2056,6.1949,6.1728,6.203,6.2352,6.2813,6.3193,6.3452,6.3526,6.3555,6.2864,6.1213,6.0629,5.9765,5.8453,5.8207,5.7991,5.7808,5.6354,5.5076,5.3948,5.398,5.4335,5.493,5.386,5.3829,5.4468,5.2777,5.2663,5.3631,5.1514,5.1097,5.1665,5.0321,4.986,5.0011,5.0011,4.9732,4.927,4.8938,4.9003,4.9287,4.9387,4.9825,5.036,5.0858,5.0809,5.0611,5.0922,5.1662,5.2339,5.223,5.1726,5.1238,5.1072,5.0747,5.0388,5.0391,5.0457,5.0458,4.9991,4.946,4.906,4.9094,4.7389,4.5634,4.4692,4.2523,4.0737,4.0192,0.0,4.1781,4.3582,4.4879,4.6493,4.8754,4.7997,4.8432,5.1059,4.9698,4.9584,5.1509,5.1077,5.1081,5.1721,5.2183,5.2735,5.3349,5.3823,5.4466,5.5332,5.6069,5.649,5.6631,5.725,5.7506,5.751,5.8046,5.788,5.7358,5.7878,5.7416,5.6458,5.7118,5.7456,5.7719,5.8667,5.9826,6.0949,6.3249,6.3471,6.357,6.3206,6.2842,6.2378,6.1715,6.1616,6.17,6.1984,6.2195,6.2547,6.3265,6.3489,6.36,6.36,6.322,6.253,6.1358,6.0872,6.0043,5.8735,5.8384,5.7857,5.7161,5.608,5.5141,5.4429,5.4153,5.4239,5.4714,5.4212,5.4215,5.452,5.3197,5.321,5.4168,5.2245,5.1752,5.2145,5.1006,5.0379,5.0092,5.004,4.9889,4.9752,4.9613,4.994,5.0487,5.0593,5.1128,5.1797,5.2102,5.1926,5.17,5.195,5.1874,5.1983,5.2997,5.1843,5.0543,5.1267,5.0784,5.0225,5.0593,5.1061,5.143,5.1363,5.0894,5.0593,5.0727,4.8553,4.6614,4.6207,4.3172,0.0,0.0,4.2066,4.3032,4.4927,4.7178,4.9194,5.0592,5.0509,5.087,5.2265,5.1657,5.1666,5.2705,5.2808,5.3042,5.3606,5.3767,5.4063,5.462,5.4828,5.5332,5.6104,5.6455,5.6842,5.7263,5.7429,5.7688,5.8012,5.8198,5.8033,5.7623,5.7617,5.7054,5.621,5.7199,5.7359,5.7316,5.9443,6.0423,6.0774,6.3415,6.3378,6.3022,6.252,6.2113,6.1682,6.1185,6.1335,6.1665,6.2229,6.2527,6.2945,6.3526,6.3738,6.3772,6.36,6.3082,6.2427,6.1634,6.1249,6.0421,5.8839,5.8455,5.7759,5.6655,5.6151,5.5548,5.4873,5.4494,5.4411,5.4589,5.4463,5.4399,5.4428,5.3555,5.3624,5.4328,5.298,5.2447,5.2414,5.168,5.0979,5.032,5.0357,5.0339,5.0355,5.0382,5.0744,5.1221,5.153,5.1963,5.24,5.3009,5.2738,5.2309,5.2669,5.2077,5.1717,5.3492,5.2359,5.0883,5.1629,5.1085,5.0492,5.0827,5.1531,5.2169,5.2202,5.1967,5.1698,5.153,4.942,4.7615,4.7338,0.0,0.0,0.0,4.3733,4.4565,4.7232,4.9538,5.1374,5.2564,5.3159,5.3492,5.346,5.3922,5.4113,5.3901,5.4672,5.5039,5.4834,5.4834,5.5053,5.5478,5.5653,5.6004,5.6596,5.6982,5.7474,5.8105,5.8059,5.818,5.837,5.8241,5.8007,5.7598,5.7144,5.6653,5.6267,5.7352,5.7545,5.7538,6.0288,6.1125,6.109,6.4264,6.5254,6.5478,6.3567,6.3746,6.3471,6.1417,6.1983,6.2561,6.2336,6.3276,6.3867,6.3632,6.422,6.4324,6.3669,6.3531,6.3186,6.2461,6.1703,6.0528,5.8874,5.8596,5.8043,5.7082,5.7189,5.6543,5.5074,5.5206,5.5187,5.4961,5.4335,5.4173,5.4359,5.368,5.3714,5.4168,5.3378,5.2904,5.263,5.2003,5.1291,5.0627,5.1163,5.1384,5.1402,5.1415,5.1312,5.1286,5.1865,5.1397,5.0893,5.2639,5.1929,5.0655,5.1526,5.2153,5.2846,5.4097,5.4524,5.4352,5.3232,5.3196,5.3043,5.1763,5.2404,5.3011,5.2034,5.2202,5.1993,5.0283,4.9781,4.8894,4.6641,0.0,0.0,4.596,4.5944,4.7337,5.1127,5.1758,5.2776,5.5022,5.5267,5.5583,5.625,5.6325,5.636,5.633,5.643,5.6054,5.5169,5.5169,5.5259,5.5507,5.6059,5.6409,5.6631,5.8105,5.8878,5.8948,5.9389,5.9192,5.837,5.8241,5.7695,5.6874,5.6805,5.6835,5.6997,5.7955,5.8813,5.9706,6.0849,6.2178,6.3337,6.484,6.5082,6.4781,6.3524,6.3183,6.2577,6.1318,6.1691,6.2132,6.2268,6.2935,6.3631,6.4218,6.4117,6.4083,6.4255,6.3841,6.3289,6.253,6.1737,6.0563,5.8874,5.8255,5.7945,5.794,5.7123,5.6406,5.5993,5.5614,5.5268,5.5023,5.4316,5.4187,5.4463,5.4195,5.4225,5.4399,5.4537,5.426,5.3684,5.3427,5.2895,5.2229,5.2253,5.2242,5.2259,5.2292,5.1815,5.1321,5.227,5.1931,5.1327,5.274,5.2503,5.1775,5.2039,5.2684,5.3406,5.3922,5.3987,5.3925,5.3977,5.3494,5.3004,5.2943,5.3653,5.416,5.3512,5.389,5.4059,5.3111,5.2068,5.1229,5.0578,0.0,4.8983,4.9734,4.9639,5.0369,5.284,5.3207,5.3824,5.5154,5.5779,5.6195,5.6561,5.6505,5.6505,5.6596,5.6174,5.5729,5.5199,5.5109,5.5383,5.6059,5.6278,5.697,5.8105,5.8702,5.9229,5.9685,5.9771,5.9297,5.837,5.8241,5.7384,5.6081,5.6081,5.6178,5.6443,5.7886,5.9055,6.0091,6.2007,6.3091,6.3653,6.5172,6.5205,6.4627,6.3481,6.2884,6.2264,6.1418,6.1628,6.207,6.243,6.3094,6.3748,6.4287,6.4324,6.4427,6.4669,6.4462,6.3979,6.322,6.2013,6.0563,5.8944,5.8325,5.8119,5.8219,5.7227,5.6541,5.6162,5.592,5.5613,5.5241,5.4768,5.4635,5.4871,5.4592,5.4567,5.4682,5.5163,5.4953,5.4314,5.4343,5.3886,5.3162,5.3114,5.3101,5.3088,5.3269,5.2684,5.1953,5.2842,5.2438,5.1766,5.291,5.3042,5.2782,5.2823,5.342,5.414,5.4535,5.4448,5.4264,5.4178,5.3685,5.3361,5.3679,5.4428,5.4869,5.4314,5.4701,5.4839,5.3821,5.2976,5.2332,5.2236,5.152,5.1222,5.1804,5.1864,5.2457,5.4077,5.4341,5.485,5.5924,5.6243,5.6659,5.7206,5.6908,5.6842,5.7241,5.6601,5.612,5.5872,5.5784,5.6133,5.6993,5.6815,5.7433,5.9018,5.9229,5.9615,6.0107,6.0223,5.9639,5.8502,5.8583,5.7656,5.6008,5.5701,5.6005,5.6752,5.8022,5.9369,6.086,6.2848,6.3758,6.4004,6.5227,6.5932,6.5722,6.3634,6.3315,6.2946,6.1862,6.2037,6.2469,6.2962,6.3958,6.4427,6.3703,6.4979,6.5566,6.4772,6.5428,6.5531,6.4738,6.2565,6.0634,5.9081,5.9012,5.8565,5.7638,5.7773,5.705,5.5407,5.6327,5.6391,5.56,5.5656,5.5718,5.5683,5.4859,5.4714,5.5006,5.5007,5.4733,5.4314,5.4493,5.3943,5.3204,5.3795,5.3927,5.3887,5.4312,5.3917,5.3178,5.3577,5.2827,5.1933,5.3042,5.3271,5.3197,5.3658,5.4365,5.5227,5.6147,5.6388,5.5912,5.3925,5.4098,5.4523,5.3881,5.456,5.5065,5.4216,5.4306,5.3825,5.1651,5.1826,5.1893,5.0529,5.1545,5.2306,5.1645,5.2213,5.338,5.4994,5.5199,5.5889,5.7618,5.6935,5.7052,5.859,5.7837,5.7701,5.8628,5.8118,5.7635,5.7289,5.7289,5.7672,5.837,5.7669,5.7863,5.9018,5.9756,6.0107,6.0142,6.0949,6.0326,5.873,5.9336,5.865,5.693,5.6008,5.6662,5.8243,5.844,6.0032,6.233,6.3234,6.4074,6.4672,6.4442,6.4839,6.4627,6.3481,6.3315,6.2818,6.1484,6.187,6.2555,6.3255,6.4149,6.5014,6.5876,6.5911,6.6014,6.629,6.6048,6.5324,6.4014,6.2806,6.1461,5.9909,5.8806,5.8082,5.7808,5.7358,5.66,5.5535,5.5841,5.5853,5.5587,5.511,5.5342,5.6212,5.5588,5.5484,5.5826,5.5957,5.603,5.6144,5.6423,5.6621,5.6711,5.6329,5.6165,5.6041,5.5429,5.453,5.3667,5.434,5.3613,5.2716,5.4155,5.4384,5.4221,5.5057,5.5143,5.5227,5.6143,5.6444,5.651,5.6303,5.597,5.5803,5.6261,5.6896,5.7111,5.6286,5.6297,5.6098,5.494,5.4635,5.4329,5.3382,5.4703,5.562,5.4892,5.5253,5.5998,5.7161,5.5966,5.5467,5.654,5.6497,5.6776,5.7663,5.7947,5.8014,5.7859,5.7678,5.751,5.7289,5.7289,5.7329,5.7409,5.7851,5.8634,5.9756,6.0001,6.0388,6.0949,6.1195,6.0576,5.9371,6.0204,5.9549,5.7862,5.8108,5.9001,6.0208,6.0699,6.1809,6.3269,6.4075,6.453,6.4672,6.4498,6.4796,6.4465,6.3481,6.3315,6.296,6.1925,6.1951,6.26,6.3968,6.4341,6.5034,6.6428,6.6428,6.6497,6.6945,6.6566,6.5807,6.4565,6.3348,6.214,6.0866,5.9214,5.8221,5.7909,5.7185,5.6426,5.5598,5.5598,5.5611,5.5587,5.5449,5.5921,5.6908,5.63,5.6258,5.6611,5.6457,5.6503,5.6603,5.6798,5.7155,5.7499,5.7167,5.6907,5.6716,5.654,5.5859,5.5119,5.5702,5.5026,5.407,5.4996,5.5126,5.5144,5.6321,5.6404,5.6278,5.7037,5.7203,5.7218,5.7618,5.7219,5.6955,5.779,5.8122,5.8102,5.7586,5.7497,5.7261,5.6473,5.586,5.5349,5.4941,5.5791,5.6405,5.6126,5.684,5.7486,5.7888,5.7108,5.6544,5.6745,5.6811,5.7129,5.7672,5.8437,5.8714,5.8357,5.8698,5.8669,5.8229,5.8572,5.8539,5.8031,5.8894,5.9543,6.001,6.0391,6.0984,6.1757,6.2073,6.1658,6.0759,6.1494,6.1011,5.9661,5.9666,6.0288,6.1256,6.164,6.2474,6.3586,6.4322,6.4602,6.4568,6.5061,6.5326,6.4895,6.3504,6.3382,6.3245,6.2724,6.2171,6.2596,6.4778,6.4561,6.462,6.5826,6.6592,6.7044,6.7044,6.7014,6.6669,6.5872,6.4118,6.2692,6.1797,6.0099,5.8817,5.8015,5.7256,5.6462,5.5736,5.5635,5.5669,5.5775,5.6301,5.6981,5.7707,5.7025,5.6962,5.7361,5.6725,5.6322,5.6133,5.6167,5.6303,5.6536,5.6863,5.6669,5.6396,5.755,5.7488,5.6899,5.7202,5.6554,5.5623,5.563,5.5563,5.5828,5.7359,5.7754,5.7842,5.8455,5.8373,5.8139,5.821,5.8092,5.8079,5.8517,5.8532,5.8372,5.8241,5.8043,5.7634,5.6811,5.5988,5.5472,5.5604,5.5639,5.577,5.6189,5.7473,5.8196,5.7751,5.8307,5.8444,5.7833,5.7779,5.8002,5.8505,5.9307,5.983,5.983,6.0623,6.0726,5.9863,6.0691,6.0691,5.9725,6.0456,6.0557,6.0021,6.0922,6.1759,6.2529,6.3233,6.3163,6.2463,6.2927,6.2684,6.1918,6.0912,6.105,6.1813,6.1814,6.2475,6.345,6.4114,6.4358,6.4358,6.4432,6.4597,6.4332,6.3438,6.3813,6.3547,6.1742,6.2099,6.2956,6.4035,6.4363,6.5013,6.6418,6.7052,6.7398,6.7398,6.7128,6.6553,6.5412,6.4444,6.3085,6.138,6.0964,6.0122,5.8778,5.7738,5.6986,5.6529,5.5813,5.5957,5.6919,5.6056,5.6741,5.8634,5.7301,5.723,5.8112,5.7059,5.6545,5.6423,5.6532,5.6849,5.7213,5.6838,5.6946,5.7342,5.7605,5.7171,5.6446,5.6071,5.5829,5.5674,5.5617,5.5314,5.5362,5.725,5.7368,5.7274,5.9106,5.9337,5.9208,5.9686,5.9577,5.9141,5.8188,5.8209,5.837,5.8372,5.8109,5.7908,5.7835,5.708,5.669,5.7316,5.781,5.832,5.8893,5.9346,5.938,5.8862,5.8587,5.8189,5.7489,5.8465,5.9264,5.9469,6.0662,6.1464,6.1634,6.1808,6.1876,6.1634,6.1808,6.1494,6.0559,6.1427,6.1493,6.0758,6.1461,6.2331,6.3337,6.317,6.3032,6.2892,6.3624,6.3413,6.2577,6.2921,6.3305,6.3622,6.3479,6.3655,6.4042,6.4182,6.4251,6.4251,6.473,6.5039,6.498,6.4214,6.4414,6.4181,6.2682,6.2482,6.2966,6.4287,6.4329,6.4907,6.6601,6.7327,6.7774,6.7981,6.7541,6.6793,6.5767,6.4619,6.3383,6.203,6.1126,6.022,5.9271,5.865,5.7933,5.702,5.6098,5.6199,5.7289,5.6747,5.7192,5.8528,5.7642,5.7517,5.7957,5.7101,5.644,5.6074,5.6151,5.6258,5.6368,5.6542,5.669,5.6994,5.8274,5.8417,5.796,5.7299,5.6721,5.6223,5.5939,5.5643,5.5796,5.7864,5.8158,5.821,5.9983,6.0498,6.0614,6.0941,6.1043,6.0611,5.9042,5.8846,5.9162,5.9832,5.9236,5.8832,5.9706,5.8544,5.7682,5.8431,5.8783,5.9213,5.9831,6.0629,6.0848,6.0007,6.0008,5.9861,5.9286,5.9953,6.0581,6.0994,6.1668,6.2055,6.2055,6.2471,6.2506,6.2089,6.2574,6.2433,6.1462,6.2194,6.2437,6.2086,6.2438,6.3031,6.3972,6.3694,6.3554,6.3588,6.3899,6.3793,6.3303,6.361,6.382,6.3892,6.3783,6.3856,6.4072,6.4072,6.4109,6.4216,6.5293,6.5702,6.5698,6.4872,6.4905,6.4705,6.3559,6.2931,6.3079,6.4528,6.4303,6.4665,6.6347,6.7183,6.7768,6.8266,6.7728,6.7005,6.6106,6.4705,6.3543,6.2724,6.1094,5.999,5.9616,5.9583,5.89,5.7533,5.6711,5.6781,5.7704,5.7633,5.7978,5.8652,5.8184,5.8056,5.8109,5.7239,5.6464,5.5747,5.5648,5.5418,5.5295,5.62,5.6413,5.6575,5.8994,5.9886,5.9737,5.8788,5.7896,5.7016,5.633,5.621,5.6722,5.8698,5.928,5.9616,6.1116,6.1707,6.1927,6.2017,6.2226,6.194,6.0349,5.9999,6.0364,6.164,6.0739,6.0133,6.1644,6.0191,5.8961,5.9597,5.9783,6.0058,6.0705,6.2047,6.254,6.1401,6.165,6.1824,6.1509,6.1616,6.1932,6.2564,6.2606,6.2575,6.2369,6.31,6.3205,6.2404,6.3306,6.3409,6.2575,6.3032,6.3311,6.345,6.345,6.3764,6.4393,6.4251,6.4144,6.4109,6.3963,6.3854,6.3854,6.3673,6.36,6.36,6.36,6.3779,6.41,6.4137,6.4245,6.439,6.5392,6.547,6.5083,6.3766,6.4519,6.4486,6.1866,6.2951,6.3945,6.36,6.4032,6.4663,6.5504,6.6065,6.6522,6.699,6.6964,6.639,6.5236,6.4372,6.3417,6.2339,6.1426,6.0622,5.9942,5.9942,5.9438,5.8319,5.8038,5.8358,5.9271,5.8116,5.8832,6.0976,5.9322,5.9283,6.0305,5.8315,5.711,5.6481,5.5885,5.5532,5.5511,5.62,5.6727,5.7433,5.9117,5.9799,5.9643,5.7771,5.7577,5.7876,5.6602,5.6628,5.746,5.9184,5.9641,6.0083,6.2567,6.2821,6.2446,6.2978,6.2676,6.2121,6.1708,6.1576,6.1832,6.2737,6.2057,6.1549,6.2486,6.1837,6.1327,6.1925,6.2439,6.2928,6.3545,6.4569,6.4752,6.34,6.2567,6.2184,6.2248,6.288,6.3337,6.3407,6.4005,6.4356,6.4321,6.4427,6.4427,6.4356,6.4461,6.4392,6.4114,6.4148,6.4183,6.4077,6.3898,6.404,6.4393,6.4073,6.3963,6.3927,6.371,6.3637,6.3637,6.36,6.36,6.36,6.36,6.4127,6.4865,6.5046,6.5118,6.505,6.5425,6.5614,6.559,6.4957,6.5357,6.5224,6.3524,6.3909,6.4266,6.3935,6.4167,6.4664,6.5326,6.5834,6.635,6.6959,6.6666,6.6177,6.567,6.471,6.3753,6.2851,6.208,6.1185,6.0026,6.0423,6.0091,5.9059,5.9059,5.9517,6.0379,6.0079,6.0495,6.146,6.0738,6.0565,6.072,5.9777,5.8751,5.7821,5.7827,5.7128,5.6153,5.7155,5.7439,5.7541,5.9348,6.01,6.0184,5.9526,5.9348,5.9298,5.8608,5.8587,5.9109,6.0258,6.0832,6.1423,6.3056,6.3786,6.4169,6.4435,6.4336,6.4152,6.4018,6.3926,6.3944,6.4208,6.3544,6.3161,6.3857,6.2955,6.215,6.2352,6.2963,6.3633,6.4215,6.5505,6.5934,6.4685,6.3565,6.2926,6.3054,6.3372,6.3758,6.4179,6.453,6.4847,6.5163,6.4882,6.4847,6.5163,6.4743,6.4463,6.4393,6.4217,6.4144,6.4215,6.4416,6.4589,6.47,6.4479,6.4574,6.4988,6.443,6.4462,6.4807,6.3945,6.3841,6.4152,6.3883,6.4343,6.5254,6.5925,6.5822,6.5511]}]]